<?xml version="1.0" encoding="UTF-8"?>
<gpx version="1.1" creator="https://www.youtrack.es" xsi:schemaLocation="http://www.topografix.com/GPX/1/1 http://www.topografix.com/GPX/1/1/gpx.xsd http://www.garmin.com/xmlschemas/GpxExtensions/v3 http://www.garmin.com/xmlschemas/GpxExtensionsv3.xsd http://www.garmin.com/xmlschemas/TrackPointExtension/v1 http://www.garmin.com/xmlschemas/TrackPointExtensionv1.xsd" xmlns:gpxtpx="http://www.garmin.com/xmlschemas/TrackPointExtension/v1" xmlns:gpxx="http://www.garmin.com/xmlschemas/GpxExtensions/v3" xmlns:xsi="http://www.w3.org/2001/XMLSchema-instance">
  <metadata>
    <link href="https://www.youtrack.es">
      <text>YouTrack.es</text>
    </link>
    <time>2026-05-09T03:37:52Z</time>
  </metadata>
  <trk>
    <src>https://www.youtrack.es</src>
    <link href="https://www.youtrack.es/ruta/30079-ruta-camos">
      <text>YouTrack.es</text>
    </link>
    <trkseg>
      <trkpt lat="42.088577" lon="2.7531767">
        <ele>213.0</ele>
        <time>2022-03-10T10:15:43Z</time>
      </trkpt>
      <trkpt lat="42.088585" lon="2.753177">
        <ele>213.0</ele>
        <time>2022-03-10T10:15:45Z</time>
      </trkpt>
      <trkpt lat="42.088657" lon="2.7531767">
        <ele>213.0</ele>
        <time>2022-03-10T10:15:46Z</time>
      </trkpt>
      <trkpt lat="42.088722" lon="2.7531772">
        <ele>213.0</ele>
        <time>2022-03-10T10:15:46Z</time>
      </trkpt>
      <trkpt lat="42.088776" lon="2.7531776">
        <ele>213.0</ele>
        <time>2022-03-10T10:15:48Z</time>
      </trkpt>
      <trkpt lat="42.088825" lon="2.7531767">
        <ele>213.0</ele>
        <time>2022-03-10T10:15:48Z</time>
      </trkpt>
      <trkpt lat="42.088863" lon="2.7531743">
        <ele>213.0</ele>
        <time>2022-03-10T10:15:50Z</time>
      </trkpt>
      <trkpt lat="42.088898" lon="2.7531695">
        <ele>213.0</ele>
        <time>2022-03-10T10:15:50Z</time>
      </trkpt>
      <trkpt lat="42.08893" lon="2.7531593">
        <ele>213.0</ele>
        <time>2022-03-10T10:15:51Z</time>
      </trkpt>
      <trkpt lat="42.08895" lon="2.7531505">
        <ele>213.0</ele>
        <time>2022-03-10T10:15:52Z</time>
      </trkpt>
      <trkpt lat="42.088974" lon="2.7531438">
        <ele>213.0</ele>
        <time>2022-03-10T10:15:53Z</time>
      </trkpt>
      <trkpt lat="42.08899" lon="2.7531383">
        <ele>213.0</ele>
        <time>2022-03-10T10:15:54Z</time>
      </trkpt>
      <trkpt lat="42.089005" lon="2.753133">
        <ele>213.0</ele>
        <time>2022-03-10T10:15:55Z</time>
      </trkpt>
      <trkpt lat="42.08902" lon="2.753127">
        <ele>213.0</ele>
        <time>2022-03-10T10:15:56Z</time>
      </trkpt>
      <trkpt lat="42.08904" lon="2.7531214">
        <ele>213.0</ele>
        <time>2022-03-10T10:15:57Z</time>
      </trkpt>
      <trkpt lat="42.08906" lon="2.7531116">
        <ele>212.0</ele>
        <time>2022-03-10T10:15:58Z</time>
      </trkpt>
      <trkpt lat="42.08909" lon="2.7530973">
        <ele>212.0</ele>
        <time>2022-03-10T10:16:00Z</time>
      </trkpt>
      <trkpt lat="42.08911" lon="2.7530844">
        <ele>211.0</ele>
        <time>2022-03-10T10:16:00Z</time>
      </trkpt>
      <trkpt lat="42.089138" lon="2.7530694">
        <ele>211.0</ele>
        <time>2022-03-10T10:16:01Z</time>
      </trkpt>
      <trkpt lat="42.089165" lon="2.7530556">
        <ele>211.0</ele>
        <time>2022-03-10T10:16:02Z</time>
      </trkpt>
      <trkpt lat="42.089188" lon="2.7530465">
        <ele>210.0</ele>
        <time>2022-03-10T10:16:03Z</time>
      </trkpt>
      <trkpt lat="42.089207" lon="2.7530403">
        <ele>210.0</ele>
        <time>2022-03-10T10:16:04Z</time>
      </trkpt>
      <trkpt lat="42.08923" lon="2.7530348">
        <ele>209.0</ele>
        <time>2022-03-10T10:16:05Z</time>
      </trkpt>
      <trkpt lat="42.089256" lon="2.7530313">
        <ele>209.0</ele>
        <time>2022-03-10T10:16:06Z</time>
      </trkpt>
      <trkpt lat="42.089283" lon="2.7530336">
        <ele>208.0</ele>
        <time>2022-03-10T10:16:07Z</time>
      </trkpt>
      <trkpt lat="42.08931" lon="2.7530441">
        <ele>208.0</ele>
        <time>2022-03-10T10:16:08Z</time>
      </trkpt>
      <trkpt lat="42.089344" lon="2.7530656">
        <ele>208.0</ele>
        <time>2022-03-10T10:16:09Z</time>
      </trkpt>
      <trkpt lat="42.089386" lon="2.7530901">
        <ele>207.0</ele>
        <time>2022-03-10T10:16:10Z</time>
      </trkpt>
      <trkpt lat="42.089428" lon="2.753117">
        <ele>206.0</ele>
        <time>2022-03-10T10:16:11Z</time>
      </trkpt>
      <trkpt lat="42.089474" lon="2.7531452">
        <ele>206.0</ele>
        <time>2022-03-10T10:16:12Z</time>
      </trkpt>
      <trkpt lat="42.089516" lon="2.7531748">
        <ele>205.0</ele>
        <time>2022-03-10T10:16:13Z</time>
      </trkpt>
      <trkpt lat="42.089558" lon="2.753208">
        <ele>204.0</ele>
        <time>2022-03-10T10:16:14Z</time>
      </trkpt>
      <trkpt lat="42.0896" lon="2.753247">
        <ele>203.0</ele>
        <time>2022-03-10T10:16:15Z</time>
      </trkpt>
      <trkpt lat="42.089638" lon="2.753289">
        <ele>203.0</ele>
        <time>2022-03-10T10:16:16Z</time>
      </trkpt>
      <trkpt lat="42.089672" lon="2.7533295">
        <ele>202.0</ele>
        <time>2022-03-10T10:16:17Z</time>
      </trkpt>
      <trkpt lat="42.089703" lon="2.7533665">
        <ele>201.0</ele>
        <time>2022-03-10T10:16:18Z</time>
      </trkpt>
      <trkpt lat="42.089733" lon="2.7533941">
        <ele>200.0</ele>
        <time>2022-03-10T10:16:19Z</time>
      </trkpt>
      <trkpt lat="42.089767" lon="2.7534113">
        <ele>199.0</ele>
        <time>2022-03-10T10:16:20Z</time>
      </trkpt>
      <trkpt lat="42.089798" lon="2.7534146">
        <ele>198.0</ele>
        <time>2022-03-10T10:16:21Z</time>
      </trkpt>
      <trkpt lat="42.089832" lon="2.753407">
        <ele>197.0</ele>
        <time>2022-03-10T10:16:22Z</time>
      </trkpt>
      <trkpt lat="42.089855" lon="2.7533894">
        <ele>196.0</ele>
        <time>2022-03-10T10:16:23Z</time>
      </trkpt>
      <trkpt lat="42.089878" lon="2.7533646">
        <ele>195.0</ele>
        <time>2022-03-10T10:16:24Z</time>
      </trkpt>
      <trkpt lat="42.089893" lon="2.7533274">
        <ele>195.0</ele>
        <time>2022-03-10T10:16:25Z</time>
      </trkpt>
      <trkpt lat="42.089905" lon="2.7532835">
        <ele>194.0</ele>
        <time>2022-03-10T10:16:26Z</time>
      </trkpt>
      <trkpt lat="42.089916" lon="2.753233">
        <ele>193.0</ele>
        <time>2022-03-10T10:16:27Z</time>
      </trkpt>
      <trkpt lat="42.089928" lon="2.7531748">
        <ele>192.0</ele>
        <time>2022-03-10T10:16:28Z</time>
      </trkpt>
      <trkpt lat="42.089943" lon="2.7531097">
        <ele>191.0</ele>
        <time>2022-03-10T10:16:29Z</time>
      </trkpt>
      <trkpt lat="42.089954" lon="2.7530396">
        <ele>190.0</ele>
        <time>2022-03-10T10:16:30Z</time>
      </trkpt>
      <trkpt lat="42.089962" lon="2.7529666">
        <ele>189.0</ele>
        <time>2022-03-10T10:16:31Z</time>
      </trkpt>
      <trkpt lat="42.08996" lon="2.7528925">
        <ele>189.0</ele>
        <time>2022-03-10T10:16:32Z</time>
      </trkpt>
      <trkpt lat="42.08995" lon="2.7528167">
        <ele>188.0</ele>
        <time>2022-03-10T10:16:33Z</time>
      </trkpt>
      <trkpt lat="42.089935" lon="2.7527392">
        <ele>187.0</ele>
        <time>2022-03-10T10:16:34Z</time>
      </trkpt>
      <trkpt lat="42.08992" lon="2.7526557">
        <ele>187.0</ele>
        <time>2022-03-10T10:16:35Z</time>
      </trkpt>
      <trkpt lat="42.0899" lon="2.7525728">
        <ele>186.0</ele>
        <time>2022-03-10T10:16:36Z</time>
      </trkpt>
      <trkpt lat="42.08988" lon="2.752492">
        <ele>185.0</ele>
        <time>2022-03-10T10:16:37Z</time>
      </trkpt>
      <trkpt lat="42.08986" lon="2.752408">
        <ele>184.0</ele>
        <time>2022-03-10T10:16:38Z</time>
      </trkpt>
      <trkpt lat="42.089832" lon="2.752327">
        <ele>183.0</ele>
        <time>2022-03-10T10:16:39Z</time>
      </trkpt>
      <trkpt lat="42.089798" lon="2.7522485">
        <ele>182.0</ele>
        <time>2022-03-10T10:16:40Z</time>
      </trkpt>
      <trkpt lat="42.089767" lon="2.7521746">
        <ele>182.0</ele>
        <time>2022-03-10T10:16:42Z</time>
      </trkpt>
      <trkpt lat="42.089733" lon="2.752096">
        <ele>181.0</ele>
        <time>2022-03-10T10:16:42Z</time>
      </trkpt>
      <trkpt lat="42.0897" lon="2.7520192">
        <ele>181.0</ele>
        <time>2022-03-10T10:16:43Z</time>
      </trkpt>
      <trkpt lat="42.08966" lon="2.751949">
        <ele>181.0</ele>
        <time>2022-03-10T10:16:45Z</time>
      </trkpt>
      <trkpt lat="42.089622" lon="2.7518795">
        <ele>180.0</ele>
        <time>2022-03-10T10:16:45Z</time>
      </trkpt>
      <trkpt lat="42.089596" lon="2.7518067">
        <ele>180.0</ele>
        <time>2022-03-10T10:16:46Z</time>
      </trkpt>
      <trkpt lat="42.089573" lon="2.7517316">
        <ele>180.0</ele>
        <time>2022-03-10T10:16:47Z</time>
      </trkpt>
      <trkpt lat="42.089565" lon="2.7516546">
        <ele>180.0</ele>
        <time>2022-03-10T10:16:48Z</time>
      </trkpt>
      <trkpt lat="42.08956" lon="2.7515802">
        <ele>180.0</ele>
        <time>2022-03-10T10:16:49Z</time>
      </trkpt>
      <trkpt lat="42.08957" lon="2.7515085">
        <ele>180.0</ele>
        <time>2022-03-10T10:16:50Z</time>
      </trkpt>
      <trkpt lat="42.08959" lon="2.751443">
        <ele>181.0</ele>
        <time>2022-03-10T10:16:51Z</time>
      </trkpt>
      <trkpt lat="42.08962" lon="2.7513871">
        <ele>181.0</ele>
        <time>2022-03-10T10:16:52Z</time>
      </trkpt>
      <trkpt lat="42.089653" lon="2.7513437">
        <ele>182.0</ele>
        <time>2022-03-10T10:16:53Z</time>
      </trkpt>
      <trkpt lat="42.08969" lon="2.7513108">
        <ele>183.0</ele>
        <time>2022-03-10T10:16:54Z</time>
      </trkpt>
      <trkpt lat="42.089737" lon="2.7512844">
        <ele>183.0</ele>
        <time>2022-03-10T10:16:55Z</time>
      </trkpt>
      <trkpt lat="42.089783" lon="2.7512598">
        <ele>184.0</ele>
        <time>2022-03-10T10:16:56Z</time>
      </trkpt>
      <trkpt lat="42.089832" lon="2.7512398">
        <ele>185.0</ele>
        <time>2022-03-10T10:16:57Z</time>
      </trkpt>
      <trkpt lat="42.089878" lon="2.7512217">
        <ele>186.0</ele>
        <time>2022-03-10T10:16:59Z</time>
      </trkpt>
      <trkpt lat="42.089924" lon="2.7512043">
        <ele>187.0</ele>
        <time>2022-03-10T10:16:59Z</time>
      </trkpt>
      <trkpt lat="42.08997" lon="2.751192">
        <ele>187.0</ele>
        <time>2022-03-10T10:17:00Z</time>
      </trkpt>
      <trkpt lat="42.090027" lon="2.7511814">
        <ele>188.0</ele>
        <time>2022-03-10T10:17:01Z</time>
      </trkpt>
      <trkpt lat="42.090088" lon="2.751172">
        <ele>189.0</ele>
        <time>2022-03-10T10:17:02Z</time>
      </trkpt>
      <trkpt lat="42.09015" lon="2.7511644">
        <ele>189.0</ele>
        <time>2022-03-10T10:17:03Z</time>
      </trkpt>
      <trkpt lat="42.09021" lon="2.7511559">
        <ele>190.0</ele>
        <time>2022-03-10T10:17:04Z</time>
      </trkpt>
      <trkpt lat="42.090275" lon="2.7511501">
        <ele>190.0</ele>
        <time>2022-03-10T10:17:05Z</time>
      </trkpt>
      <trkpt lat="42.09033" lon="2.7511392">
        <ele>191.0</ele>
        <time>2022-03-10T10:17:06Z</time>
      </trkpt>
      <trkpt lat="42.09038" lon="2.7511234">
        <ele>192.0</ele>
        <time>2022-03-10T10:17:07Z</time>
      </trkpt>
      <trkpt lat="42.09044" lon="2.7510986">
        <ele>192.0</ele>
        <time>2022-03-10T10:17:08Z</time>
      </trkpt>
      <trkpt lat="42.0905" lon="2.7510672">
        <ele>193.0</ele>
        <time>2022-03-10T10:17:09Z</time>
      </trkpt>
      <trkpt lat="42.09056" lon="2.7510333">
        <ele>193.0</ele>
        <time>2022-03-10T10:17:10Z</time>
      </trkpt>
      <trkpt lat="42.090626" lon="2.7509933">
        <ele>193.0</ele>
        <time>2022-03-10T10:17:11Z</time>
      </trkpt>
      <trkpt lat="42.09069" lon="2.7509491">
        <ele>193.0</ele>
        <time>2022-03-10T10:17:12Z</time>
      </trkpt>
      <trkpt lat="42.090755" lon="2.750904">
        <ele>194.0</ele>
        <time>2022-03-10T10:17:13Z</time>
      </trkpt>
      <trkpt lat="42.09082" lon="2.7508612">
        <ele>194.0</ele>
        <time>2022-03-10T10:17:14Z</time>
      </trkpt>
      <trkpt lat="42.09089" lon="2.75082">
        <ele>195.0</ele>
        <time>2022-03-10T10:17:15Z</time>
      </trkpt>
      <trkpt lat="42.090958" lon="2.750781">
        <ele>195.0</ele>
        <time>2022-03-10T10:17:16Z</time>
      </trkpt>
      <trkpt lat="42.091022" lon="2.7507443">
        <ele>196.0</ele>
        <time>2022-03-10T10:17:17Z</time>
      </trkpt>
      <trkpt lat="42.091084" lon="2.7507052">
        <ele>196.0</ele>
        <time>2022-03-10T10:17:18Z</time>
      </trkpt>
      <trkpt lat="42.091137" lon="2.7506647">
        <ele>196.0</ele>
        <time>2022-03-10T10:17:19Z</time>
      </trkpt>
      <trkpt lat="42.09119" lon="2.7506208">
        <ele>197.0</ele>
        <time>2022-03-10T10:17:20Z</time>
      </trkpt>
      <trkpt lat="42.091244" lon="2.7505705">
        <ele>197.0</ele>
        <time>2022-03-10T10:17:21Z</time>
      </trkpt>
      <trkpt lat="42.091293" lon="2.7505162">
        <ele>197.0</ele>
        <time>2022-03-10T10:17:22Z</time>
      </trkpt>
      <trkpt lat="42.091335" lon="2.7504601">
        <ele>197.0</ele>
        <time>2022-03-10T10:17:23Z</time>
      </trkpt>
      <trkpt lat="42.091377" lon="2.7504005">
        <ele>196.0</ele>
        <time>2022-03-10T10:17:24Z</time>
      </trkpt>
      <trkpt lat="42.09142" lon="2.750336">
        <ele>196.0</ele>
        <time>2022-03-10T10:17:25Z</time>
      </trkpt>
      <trkpt lat="42.091457" lon="2.7502656">
        <ele>196.0</ele>
        <time>2022-03-10T10:17:26Z</time>
      </trkpt>
      <trkpt lat="42.091496" lon="2.7501924">
        <ele>195.0</ele>
        <time>2022-03-10T10:17:27Z</time>
      </trkpt>
      <trkpt lat="42.091534" lon="2.750118">
        <ele>195.0</ele>
        <time>2022-03-10T10:17:28Z</time>
      </trkpt>
      <trkpt lat="42.091568" lon="2.7500436">
        <ele>194.0</ele>
        <time>2022-03-10T10:17:29Z</time>
      </trkpt>
      <trkpt lat="42.09161" lon="2.7499685">
        <ele>194.0</ele>
        <time>2022-03-10T10:17:30Z</time>
      </trkpt>
      <trkpt lat="42.091652" lon="2.7498937">
        <ele>194.0</ele>
        <time>2022-03-10T10:17:31Z</time>
      </trkpt>
      <trkpt lat="42.091694" lon="2.7498205">
        <ele>194.0</ele>
        <time>2022-03-10T10:17:32Z</time>
      </trkpt>
      <trkpt lat="42.091732" lon="2.7497487">
        <ele>194.0</ele>
        <time>2022-03-10T10:17:33Z</time>
      </trkpt>
      <trkpt lat="42.091766" lon="2.7496762">
        <ele>193.0</ele>
        <time>2022-03-10T10:17:34Z</time>
      </trkpt>
      <trkpt lat="42.091793" lon="2.7496018">
        <ele>193.0</ele>
        <time>2022-03-10T10:17:35Z</time>
      </trkpt>
      <trkpt lat="42.091816" lon="2.7495277">
        <ele>193.0</ele>
        <time>2022-03-10T10:17:36Z</time>
      </trkpt>
      <trkpt lat="42.09183" lon="2.7494557">
        <ele>193.0</ele>
        <time>2022-03-10T10:17:37Z</time>
      </trkpt>
      <trkpt lat="42.091846" lon="2.7493753">
        <ele>193.0</ele>
        <time>2022-03-10T10:17:38Z</time>
      </trkpt>
      <trkpt lat="42.091858" lon="2.7492986">
        <ele>193.0</ele>
        <time>2022-03-10T10:17:39Z</time>
      </trkpt>
      <trkpt lat="42.09187" lon="2.749233">
        <ele>192.0</ele>
        <time>2022-03-10T10:17:40Z</time>
      </trkpt>
      <trkpt lat="42.09189" lon="2.749166">
        <ele>192.0</ele>
        <time>2022-03-10T10:17:41Z</time>
      </trkpt>
      <trkpt lat="42.091908" lon="2.7491095">
        <ele>191.0</ele>
        <time>2022-03-10T10:17:42Z</time>
      </trkpt>
      <trkpt lat="42.09193" lon="2.7490628">
        <ele>191.0</ele>
        <time>2022-03-10T10:17:43Z</time>
      </trkpt>
      <trkpt lat="42.091965" lon="2.749024">
        <ele>191.0</ele>
        <time>2022-03-10T10:17:44Z</time>
      </trkpt>
      <trkpt lat="42.092003" lon="2.7489967">
        <ele>191.0</ele>
        <time>2022-03-10T10:17:45Z</time>
      </trkpt>
      <trkpt lat="42.092045" lon="2.7489789">
        <ele>191.0</ele>
        <time>2022-03-10T10:17:46Z</time>
      </trkpt>
      <trkpt lat="42.092094" lon="2.7489684">
        <ele>191.0</ele>
        <time>2022-03-10T10:17:47Z</time>
      </trkpt>
      <trkpt lat="42.09214" lon="2.7489645">
        <ele>191.0</ele>
        <time>2022-03-10T10:17:48Z</time>
      </trkpt>
      <trkpt lat="42.09219" lon="2.7489665">
        <ele>191.0</ele>
        <time>2022-03-10T10:17:49Z</time>
      </trkpt>
      <trkpt lat="42.09224" lon="2.7489712">
        <ele>191.0</ele>
        <time>2022-03-10T10:17:50Z</time>
      </trkpt>
      <trkpt lat="42.09229" lon="2.748974">
        <ele>190.0</ele>
        <time>2022-03-10T10:17:51Z</time>
      </trkpt>
      <trkpt lat="42.092342" lon="2.7489734">
        <ele>190.0</ele>
        <time>2022-03-10T10:17:52Z</time>
      </trkpt>
      <trkpt lat="42.092392" lon="2.7489684">
        <ele>190.0</ele>
        <time>2022-03-10T10:17:53Z</time>
      </trkpt>
      <trkpt lat="42.092438" lon="2.7489562">
        <ele>190.0</ele>
        <time>2022-03-10T10:17:54Z</time>
      </trkpt>
      <trkpt lat="42.092487" lon="2.748936">
        <ele>190.0</ele>
        <time>2022-03-10T10:17:55Z</time>
      </trkpt>
      <trkpt lat="42.09254" lon="2.748903">
        <ele>190.0</ele>
        <time>2022-03-10T10:17:56Z</time>
      </trkpt>
      <trkpt lat="42.092587" lon="2.7488644">
        <ele>190.0</ele>
        <time>2022-03-10T10:17:57Z</time>
      </trkpt>
      <trkpt lat="42.092625" lon="2.748818">
        <ele>190.0</ele>
        <time>2022-03-10T10:17:59Z</time>
      </trkpt>
      <trkpt lat="42.09267" lon="2.7487583">
        <ele>190.0</ele>
        <time>2022-03-10T10:17:59Z</time>
      </trkpt>
      <trkpt lat="42.0927" lon="2.7486994">
        <ele>190.0</ele>
        <time>2022-03-10T10:18:00Z</time>
      </trkpt>
      <trkpt lat="42.092735" lon="2.748633">
        <ele>190.0</ele>
        <time>2022-03-10T10:18:01Z</time>
      </trkpt>
      <trkpt lat="42.092762" lon="2.7485704">
        <ele>190.0</ele>
        <time>2022-03-10T10:18:02Z</time>
      </trkpt>
      <trkpt lat="42.09279" lon="2.7485082">
        <ele>190.0</ele>
        <time>2022-03-10T10:18:03Z</time>
      </trkpt>
      <trkpt lat="42.09281" lon="2.748447">
        <ele>189.0</ele>
        <time>2022-03-10T10:18:04Z</time>
      </trkpt>
      <trkpt lat="42.09284" lon="2.7483869">
        <ele>189.0</ele>
        <time>2022-03-10T10:18:05Z</time>
      </trkpt>
      <trkpt lat="42.092873" lon="2.7483268">
        <ele>189.0</ele>
        <time>2022-03-10T10:18:06Z</time>
      </trkpt>
      <trkpt lat="42.092903" lon="2.7482696">
        <ele>189.0</ele>
        <time>2022-03-10T10:18:07Z</time>
      </trkpt>
      <trkpt lat="42.092945" lon="2.748214">
        <ele>189.0</ele>
        <time>2022-03-10T10:18:08Z</time>
      </trkpt>
      <trkpt lat="42.09298" lon="2.748161">
        <ele>189.0</ele>
        <time>2022-03-10T10:18:09Z</time>
      </trkpt>
      <trkpt lat="42.093018" lon="2.7481103">
        <ele>188.0</ele>
        <time>2022-03-10T10:18:10Z</time>
      </trkpt>
      <trkpt lat="42.093056" lon="2.7480636">
        <ele>188.0</ele>
        <time>2022-03-10T10:18:11Z</time>
      </trkpt>
      <trkpt lat="42.09309" lon="2.7480228">
        <ele>188.0</ele>
        <time>2022-03-10T10:18:12Z</time>
      </trkpt>
      <trkpt lat="42.09312" lon="2.747983">
        <ele>188.0</ele>
        <time>2022-03-10T10:18:13Z</time>
      </trkpt>
      <trkpt lat="42.093155" lon="2.7479463">
        <ele>188.0</ele>
        <time>2022-03-10T10:18:14Z</time>
      </trkpt>
      <trkpt lat="42.093185" lon="2.7479117">
        <ele>187.0</ele>
        <time>2022-03-10T10:18:15Z</time>
      </trkpt>
      <trkpt lat="42.093224" lon="2.747883">
        <ele>187.0</ele>
        <time>2022-03-10T10:18:16Z</time>
      </trkpt>
      <trkpt lat="42.09326" lon="2.7478657">
        <ele>187.0</ele>
        <time>2022-03-10T10:18:17Z</time>
      </trkpt>
      <trkpt lat="42.09331" lon="2.747868">
        <ele>187.0</ele>
        <time>2022-03-10T10:18:18Z</time>
      </trkpt>
      <trkpt lat="42.093357" lon="2.747881">
        <ele>187.0</ele>
        <time>2022-03-10T10:18:19Z</time>
      </trkpt>
      <trkpt lat="42.093403" lon="2.7479033">
        <ele>186.0</ele>
        <time>2022-03-10T10:18:20Z</time>
      </trkpt>
      <trkpt lat="42.09344" lon="2.7479348">
        <ele>185.0</ele>
        <time>2022-03-10T10:18:21Z</time>
      </trkpt>
      <trkpt lat="42.09348" lon="2.7479715">
        <ele>185.0</ele>
        <time>2022-03-10T10:18:22Z</time>
      </trkpt>
      <trkpt lat="42.093513" lon="2.7480128">
        <ele>184.0</ele>
        <time>2022-03-10T10:18:23Z</time>
      </trkpt>
      <trkpt lat="42.093544" lon="2.7480512">
        <ele>183.0</ele>
        <time>2022-03-10T10:18:24Z</time>
      </trkpt>
      <trkpt lat="42.09358" lon="2.7480865">
        <ele>182.0</ele>
        <time>2022-03-10T10:18:25Z</time>
      </trkpt>
      <trkpt lat="42.093613" lon="2.7481184">
        <ele>182.0</ele>
        <time>2022-03-10T10:18:26Z</time>
      </trkpt>
      <trkpt lat="42.09365" lon="2.7481477">
        <ele>181.0</ele>
        <time>2022-03-10T10:18:27Z</time>
      </trkpt>
      <trkpt lat="42.093693" lon="2.7481728">
        <ele>181.0</ele>
        <time>2022-03-10T10:18:28Z</time>
      </trkpt>
      <trkpt lat="42.093735" lon="2.748194">
        <ele>180.0</ele>
        <time>2022-03-10T10:18:29Z</time>
      </trkpt>
      <trkpt lat="42.093777" lon="2.748211">
        <ele>180.0</ele>
        <time>2022-03-10T10:18:30Z</time>
      </trkpt>
      <trkpt lat="42.093815" lon="2.7482214">
        <ele>179.0</ele>
        <time>2022-03-10T10:18:31Z</time>
      </trkpt>
      <trkpt lat="42.09386" lon="2.7482243">
        <ele>179.0</ele>
        <time>2022-03-10T10:18:32Z</time>
      </trkpt>
      <trkpt lat="42.093903" lon="2.7482204">
        <ele>178.0</ele>
        <time>2022-03-10T10:18:33Z</time>
      </trkpt>
      <trkpt lat="42.09395" lon="2.748213">
        <ele>178.0</ele>
        <time>2022-03-10T10:18:34Z</time>
      </trkpt>
      <trkpt lat="42.093987" lon="2.7482045">
        <ele>178.0</ele>
        <time>2022-03-10T10:18:35Z</time>
      </trkpt>
      <trkpt lat="42.094025" lon="2.748197">
        <ele>177.0</ele>
        <time>2022-03-10T10:18:36Z</time>
      </trkpt>
      <trkpt lat="42.094063" lon="2.7481961">
        <ele>177.0</ele>
        <time>2022-03-10T10:18:37Z</time>
      </trkpt>
      <trkpt lat="42.094097" lon="2.7482076">
        <ele>177.0</ele>
        <time>2022-03-10T10:18:38Z</time>
      </trkpt>
      <trkpt lat="42.094124" lon="2.748235">
        <ele>177.0</ele>
        <time>2022-03-10T10:18:39Z</time>
      </trkpt>
      <trkpt lat="42.09415" lon="2.7482762">
        <ele>177.0</ele>
        <time>2022-03-10T10:18:40Z</time>
      </trkpt>
      <trkpt lat="42.094177" lon="2.7483277">
        <ele>177.0</ele>
        <time>2022-03-10T10:18:41Z</time>
      </trkpt>
      <trkpt lat="42.094208" lon="2.748388">
        <ele>177.0</ele>
        <time>2022-03-10T10:18:42Z</time>
      </trkpt>
      <trkpt lat="42.094242" lon="2.7484598">
        <ele>177.0</ele>
        <time>2022-03-10T10:18:43Z</time>
      </trkpt>
      <trkpt lat="42.094276" lon="2.748533">
        <ele>176.0</ele>
        <time>2022-03-10T10:18:44Z</time>
      </trkpt>
      <trkpt lat="42.094307" lon="2.7486029">
        <ele>176.0</ele>
        <time>2022-03-10T10:18:45Z</time>
      </trkpt>
      <trkpt lat="42.094337" lon="2.7486722">
        <ele>175.0</ele>
        <time>2022-03-10T10:18:46Z</time>
      </trkpt>
      <trkpt lat="42.09436" lon="2.7487395">
        <ele>175.0</ele>
        <time>2022-03-10T10:18:47Z</time>
      </trkpt>
      <trkpt lat="42.094383" lon="2.748804">
        <ele>175.0</ele>
        <time>2022-03-10T10:18:48Z</time>
      </trkpt>
      <trkpt lat="42.0944" lon="2.7488668">
        <ele>174.0</ele>
        <time>2022-03-10T10:18:49Z</time>
      </trkpt>
      <trkpt lat="42.094406" lon="2.7489274">
        <ele>174.0</ele>
        <time>2022-03-10T10:18:50Z</time>
      </trkpt>
      <trkpt lat="42.094414" lon="2.7489846">
        <ele>174.0</ele>
        <time>2022-03-10T10:18:51Z</time>
      </trkpt>
      <trkpt lat="42.094425" lon="2.7490394">
        <ele>174.0</ele>
        <time>2022-03-10T10:18:52Z</time>
      </trkpt>
      <trkpt lat="42.094437" lon="2.749089">
        <ele>173.0</ele>
        <time>2022-03-10T10:18:53Z</time>
      </trkpt>
      <trkpt lat="42.094456" lon="2.7491295">
        <ele>173.0</ele>
        <time>2022-03-10T10:18:54Z</time>
      </trkpt>
      <trkpt lat="42.094482" lon="2.749165">
        <ele>172.0</ele>
        <time>2022-03-10T10:18:55Z</time>
      </trkpt>
      <trkpt lat="42.094517" lon="2.7491958">
        <ele>172.0</ele>
        <time>2022-03-10T10:18:56Z</time>
      </trkpt>
      <trkpt lat="42.09455" lon="2.749221">
        <ele>172.0</ele>
        <time>2022-03-10T10:18:57Z</time>
      </trkpt>
      <trkpt lat="42.094593" lon="2.7492416">
        <ele>172.0</ele>
        <time>2022-03-10T10:18:59Z</time>
      </trkpt>
      <trkpt lat="42.09464" lon="2.7492568">
        <ele>171.0</ele>
        <time>2022-03-10T10:18:59Z</time>
      </trkpt>
      <trkpt lat="42.09469" lon="2.749269">
        <ele>171.0</ele>
        <time>2022-03-10T10:19:00Z</time>
      </trkpt>
      <trkpt lat="42.094734" lon="2.7492778">
        <ele>171.0</ele>
        <time>2022-03-10T10:19:01Z</time>
      </trkpt>
      <trkpt lat="42.094788" lon="2.7492816">
        <ele>170.0</ele>
        <time>2022-03-10T10:19:02Z</time>
      </trkpt>
      <trkpt lat="42.09484" lon="2.7492843">
        <ele>170.0</ele>
        <time>2022-03-10T10:19:03Z</time>
      </trkpt>
      <trkpt lat="42.094894" lon="2.7492845">
        <ele>169.0</ele>
        <time>2022-03-10T10:19:04Z</time>
      </trkpt>
      <trkpt lat="42.094948" lon="2.749282">
        <ele>169.0</ele>
        <time>2022-03-10T10:19:05Z</time>
      </trkpt>
      <trkpt lat="42.094997" lon="2.7492774">
        <ele>168.0</ele>
        <time>2022-03-10T10:19:06Z</time>
      </trkpt>
      <trkpt lat="42.095047" lon="2.7492723">
        <ele>168.0</ele>
        <time>2022-03-10T10:19:07Z</time>
      </trkpt>
      <trkpt lat="42.095085" lon="2.7492661">
        <ele>167.0</ele>
        <time>2022-03-10T10:19:08Z</time>
      </trkpt>
      <trkpt lat="42.095123" lon="2.7492604">
        <ele>167.0</ele>
        <time>2022-03-10T10:19:09Z</time>
      </trkpt>
      <trkpt lat="42.09516" lon="2.749256">
        <ele>167.0</ele>
        <time>2022-03-10T10:19:10Z</time>
      </trkpt>
      <trkpt lat="42.0952" lon="2.749253">
        <ele>166.0</ele>
        <time>2022-03-10T10:19:11Z</time>
      </trkpt>
      <trkpt lat="42.09523" lon="2.7492492">
        <ele>166.0</ele>
        <time>2022-03-10T10:19:12Z</time>
      </trkpt>
      <trkpt lat="42.095264" lon="2.7492418">
        <ele>166.0</ele>
        <time>2022-03-10T10:19:13Z</time>
      </trkpt>
      <trkpt lat="42.095295" lon="2.7492278">
        <ele>166.0</ele>
        <time>2022-03-10T10:19:14Z</time>
      </trkpt>
      <trkpt lat="42.09533" lon="2.7492025">
        <ele>166.0</ele>
        <time>2022-03-10T10:19:15Z</time>
      </trkpt>
      <trkpt lat="42.095364" lon="2.749167">
        <ele>166.0</ele>
        <time>2022-03-10T10:19:16Z</time>
      </trkpt>
      <trkpt lat="42.095398" lon="2.7491257">
        <ele>167.0</ele>
        <time>2022-03-10T10:19:17Z</time>
      </trkpt>
      <trkpt lat="42.095436" lon="2.7490807">
        <ele>167.0</ele>
        <time>2022-03-10T10:19:18Z</time>
      </trkpt>
      <trkpt lat="42.095474" lon="2.749033">
        <ele>167.0</ele>
        <time>2022-03-10T10:19:19Z</time>
      </trkpt>
      <trkpt lat="42.095516" lon="2.7489815">
        <ele>167.0</ele>
        <time>2022-03-10T10:19:20Z</time>
      </trkpt>
      <trkpt lat="42.09556" lon="2.7489247">
        <ele>167.0</ele>
        <time>2022-03-10T10:19:21Z</time>
      </trkpt>
      <trkpt lat="42.095596" lon="2.7488685">
        <ele>167.0</ele>
        <time>2022-03-10T10:19:22Z</time>
      </trkpt>
      <trkpt lat="42.09563" lon="2.7488134">
        <ele>167.0</ele>
        <time>2022-03-10T10:19:23Z</time>
      </trkpt>
      <trkpt lat="42.095665" lon="2.7487495">
        <ele>167.0</ele>
        <time>2022-03-10T10:19:24Z</time>
      </trkpt>
      <trkpt lat="42.09569" lon="2.7486806">
        <ele>167.0</ele>
        <time>2022-03-10T10:19:25Z</time>
      </trkpt>
      <trkpt lat="42.09572" lon="2.7486115">
        <ele>167.0</ele>
        <time>2022-03-10T10:19:26Z</time>
      </trkpt>
      <trkpt lat="42.09574" lon="2.748543">
        <ele>167.0</ele>
        <time>2022-03-10T10:19:27Z</time>
      </trkpt>
      <trkpt lat="42.09576" lon="2.7484763">
        <ele>167.0</ele>
        <time>2022-03-10T10:19:28Z</time>
      </trkpt>
      <trkpt lat="42.09578" lon="2.748412">
        <ele>167.0</ele>
        <time>2022-03-10T10:19:29Z</time>
      </trkpt>
      <trkpt lat="42.09579" lon="2.7483547">
        <ele>167.0</ele>
        <time>2022-03-10T10:19:30Z</time>
      </trkpt>
      <trkpt lat="42.095802" lon="2.7483037">
        <ele>167.0</ele>
        <time>2022-03-10T10:19:31Z</time>
      </trkpt>
      <trkpt lat="42.09581" lon="2.7482612">
        <ele>167.0</ele>
        <time>2022-03-10T10:19:32Z</time>
      </trkpt>
      <trkpt lat="42.095814" lon="2.748226">
        <ele>167.0</ele>
        <time>2022-03-10T10:19:33Z</time>
      </trkpt>
      <trkpt lat="42.095818" lon="2.7481952">
        <ele>167.0</ele>
        <time>2022-03-10T10:19:33Z</time>
      </trkpt>
      <trkpt lat="42.09582" lon="2.7481673">
        <ele>167.0</ele>
        <time>2022-03-10T10:19:34Z</time>
      </trkpt>
      <trkpt lat="42.095825" lon="2.7481408">
        <ele>166.0</ele>
        <time>2022-03-10T10:19:35Z</time>
      </trkpt>
      <trkpt lat="42.09583" lon="2.7481163">
        <ele>166.0</ele>
        <time>2022-03-10T10:19:36Z</time>
      </trkpt>
      <trkpt lat="42.095833" lon="2.7480886">
        <ele>166.0</ele>
        <time>2022-03-10T10:19:37Z</time>
      </trkpt>
      <trkpt lat="42.095833" lon="2.748055">
        <ele>166.0</ele>
        <time>2022-03-10T10:19:38Z</time>
      </trkpt>
      <trkpt lat="42.095833" lon="2.7480192">
        <ele>166.0</ele>
        <time>2022-03-10T10:19:39Z</time>
      </trkpt>
      <trkpt lat="42.095833" lon="2.7479825">
        <ele>166.0</ele>
        <time>2022-03-10T10:19:40Z</time>
      </trkpt>
      <trkpt lat="42.095837" lon="2.7479472">
        <ele>166.0</ele>
        <time>2022-03-10T10:19:41Z</time>
      </trkpt>
      <trkpt lat="42.095837" lon="2.747911">
        <ele>166.0</ele>
        <time>2022-03-10T10:19:42Z</time>
      </trkpt>
      <trkpt lat="42.095837" lon="2.7478695">
        <ele>167.0</ele>
        <time>2022-03-10T10:19:43Z</time>
      </trkpt>
      <trkpt lat="42.095837" lon="2.7478213">
        <ele>167.0</ele>
        <time>2022-03-10T10:19:44Z</time>
      </trkpt>
      <trkpt lat="42.095837" lon="2.7477715">
        <ele>167.0</ele>
        <time>2022-03-10T10:19:45Z</time>
      </trkpt>
      <trkpt lat="42.095833" lon="2.7477217">
        <ele>167.0</ele>
        <time>2022-03-10T10:19:46Z</time>
      </trkpt>
      <trkpt lat="42.095833" lon="2.7476702">
        <ele>167.0</ele>
        <time>2022-03-10T10:19:47Z</time>
      </trkpt>
      <trkpt lat="42.095825" lon="2.7476156">
        <ele>167.0</ele>
        <time>2022-03-10T10:19:48Z</time>
      </trkpt>
      <trkpt lat="42.095818" lon="2.7475548">
        <ele>167.0</ele>
        <time>2022-03-10T10:19:49Z</time>
      </trkpt>
      <trkpt lat="42.09581" lon="2.7474928">
        <ele>167.0</ele>
        <time>2022-03-10T10:19:50Z</time>
      </trkpt>
      <trkpt lat="42.095802" lon="2.7474294">
        <ele>167.0</ele>
        <time>2022-03-10T10:19:51Z</time>
      </trkpt>
      <trkpt lat="42.09579" lon="2.7473714">
        <ele>167.0</ele>
        <time>2022-03-10T10:19:52Z</time>
      </trkpt>
      <trkpt lat="42.09578" lon="2.747315">
        <ele>167.0</ele>
        <time>2022-03-10T10:19:53Z</time>
      </trkpt>
      <trkpt lat="42.095768" lon="2.7472599">
        <ele>167.0</ele>
        <time>2022-03-10T10:19:54Z</time>
      </trkpt>
      <trkpt lat="42.09576" lon="2.7472036">
        <ele>168.0</ele>
        <time>2022-03-10T10:19:55Z</time>
      </trkpt>
      <trkpt lat="42.09575" lon="2.7471504">
        <ele>168.0</ele>
        <time>2022-03-10T10:19:56Z</time>
      </trkpt>
      <trkpt lat="42.09574" lon="2.7471027">
        <ele>168.0</ele>
        <time>2022-03-10T10:19:58Z</time>
      </trkpt>
      <trkpt lat="42.09574" lon="2.747065">
        <ele>168.0</ele>
        <time>2022-03-10T10:19:58Z</time>
      </trkpt>
      <trkpt lat="42.095745" lon="2.7470357">
        <ele>168.0</ele>
        <time>2022-03-10T10:19:59Z</time>
      </trkpt>
      <trkpt lat="42.09576" lon="2.747014">
        <ele>168.0</ele>
        <time>2022-03-10T10:20:00Z</time>
      </trkpt>
      <trkpt lat="42.095783" lon="2.7469993">
        <ele>168.0</ele>
        <time>2022-03-10T10:20:01Z</time>
      </trkpt>
      <trkpt lat="42.09581" lon="2.7469904">
        <ele>169.0</ele>
        <time>2022-03-10T10:20:02Z</time>
      </trkpt>
      <trkpt lat="42.095848" lon="2.7469823">
        <ele>169.0</ele>
        <time>2022-03-10T10:20:03Z</time>
      </trkpt>
      <trkpt lat="42.095886" lon="2.7469735">
        <ele>169.0</ele>
        <time>2022-03-10T10:20:04Z</time>
      </trkpt>
      <trkpt lat="42.095936" lon="2.7469633">
        <ele>169.0</ele>
        <time>2022-03-10T10:20:05Z</time>
      </trkpt>
      <trkpt lat="42.095985" lon="2.7469504">
        <ele>170.0</ele>
        <time>2022-03-10T10:20:06Z</time>
      </trkpt>
      <trkpt lat="42.096043" lon="2.7469342">
        <ele>170.0</ele>
        <time>2022-03-10T10:20:07Z</time>
      </trkpt>
      <trkpt lat="42.096104" lon="2.746913">
        <ele>171.0</ele>
        <time>2022-03-10T10:20:08Z</time>
      </trkpt>
      <trkpt lat="42.096165" lon="2.7468886">
        <ele>171.0</ele>
        <time>2022-03-10T10:20:09Z</time>
      </trkpt>
      <trkpt lat="42.09623" lon="2.7468615">
        <ele>171.0</ele>
        <time>2022-03-10T10:20:10Z</time>
      </trkpt>
      <trkpt lat="42.09629" lon="2.7468352">
        <ele>172.0</ele>
        <time>2022-03-10T10:20:11Z</time>
      </trkpt>
      <trkpt lat="42.09636" lon="2.7468119">
        <ele>172.0</ele>
        <time>2022-03-10T10:20:12Z</time>
      </trkpt>
      <trkpt lat="42.09643" lon="2.7467916">
        <ele>173.0</ele>
        <time>2022-03-10T10:20:13Z</time>
      </trkpt>
      <trkpt lat="42.0965" lon="2.7467756">
        <ele>173.0</ele>
        <time>2022-03-10T10:20:14Z</time>
      </trkpt>
      <trkpt lat="42.096565" lon="2.7467623">
        <ele>173.0</ele>
        <time>2022-03-10T10:20:15Z</time>
      </trkpt>
      <trkpt lat="42.09663" lon="2.746751">
        <ele>173.0</ele>
        <time>2022-03-10T10:20:16Z</time>
      </trkpt>
      <trkpt lat="42.096695" lon="2.746737">
        <ele>173.0</ele>
        <time>2022-03-10T10:20:17Z</time>
      </trkpt>
      <trkpt lat="42.096756" lon="2.7467196">
        <ele>173.0</ele>
        <time>2022-03-10T10:20:18Z</time>
      </trkpt>
      <trkpt lat="42.096825" lon="2.7466972">
        <ele>173.0</ele>
        <time>2022-03-10T10:20:19Z</time>
      </trkpt>
      <trkpt lat="42.09689" lon="2.746668">
        <ele>174.0</ele>
        <time>2022-03-10T10:20:20Z</time>
      </trkpt>
      <trkpt lat="42.09696" lon="2.7466335">
        <ele>174.0</ele>
        <time>2022-03-10T10:20:21Z</time>
      </trkpt>
      <trkpt lat="42.09704" lon="2.746597">
        <ele>174.0</ele>
        <time>2022-03-10T10:20:22Z</time>
      </trkpt>
      <trkpt lat="42.097115" lon="2.74656">
        <ele>174.0</ele>
        <time>2022-03-10T10:20:23Z</time>
      </trkpt>
      <trkpt lat="42.097206" lon="2.7465222">
        <ele>175.0</ele>
        <time>2022-03-10T10:20:24Z</time>
      </trkpt>
      <trkpt lat="42.097286" lon="2.7464895">
        <ele>175.0</ele>
        <time>2022-03-10T10:20:25Z</time>
      </trkpt>
      <trkpt lat="42.097374" lon="2.7464576">
        <ele>175.0</ele>
        <time>2022-03-10T10:20:26Z</time>
      </trkpt>
      <trkpt lat="42.09746" lon="2.746424">
        <ele>175.0</ele>
        <time>2022-03-10T10:20:27Z</time>
      </trkpt>
      <trkpt lat="42.097546" lon="2.7463892">
        <ele>175.0</ele>
        <time>2022-03-10T10:20:28Z</time>
      </trkpt>
      <trkpt lat="42.097637" lon="2.7463508">
        <ele>175.0</ele>
        <time>2022-03-10T10:20:29Z</time>
      </trkpt>
      <trkpt lat="42.09772" lon="2.7463107">
        <ele>175.0</ele>
        <time>2022-03-10T10:20:30Z</time>
      </trkpt>
      <trkpt lat="42.09781" lon="2.746272">
        <ele>175.0</ele>
        <time>2022-03-10T10:20:31Z</time>
      </trkpt>
      <trkpt lat="42.097893" lon="2.7462366">
        <ele>175.0</ele>
        <time>2022-03-10T10:20:32Z</time>
      </trkpt>
      <trkpt lat="42.097973" lon="2.7462058">
        <ele>175.0</ele>
        <time>2022-03-10T10:20:33Z</time>
      </trkpt>
      <trkpt lat="42.098053" lon="2.7461789">
        <ele>175.0</ele>
        <time>2022-03-10T10:20:34Z</time>
      </trkpt>
      <trkpt lat="42.098133" lon="2.7461565">
        <ele>175.0</ele>
        <time>2022-03-10T10:20:35Z</time>
      </trkpt>
      <trkpt lat="42.098213" lon="2.7461398">
        <ele>176.0</ele>
        <time>2022-03-10T10:20:36Z</time>
      </trkpt>
      <trkpt lat="42.098293" lon="2.746128">
        <ele>176.0</ele>
        <time>2022-03-10T10:20:37Z</time>
      </trkpt>
      <trkpt lat="42.09838" lon="2.746122">
        <ele>176.0</ele>
        <time>2022-03-10T10:20:38Z</time>
      </trkpt>
      <trkpt lat="42.09847" lon="2.7461197">
        <ele>176.0</ele>
        <time>2022-03-10T10:20:39Z</time>
      </trkpt>
      <trkpt lat="42.098557" lon="2.746121">
        <ele>176.0</ele>
        <time>2022-03-10T10:20:40Z</time>
      </trkpt>
      <trkpt lat="42.098648" lon="2.7461243">
        <ele>176.0</ele>
        <time>2022-03-10T10:20:41Z</time>
      </trkpt>
      <trkpt lat="42.098736" lon="2.7461293">
        <ele>176.0</ele>
        <time>2022-03-10T10:20:42Z</time>
      </trkpt>
      <trkpt lat="42.09882" lon="2.746136">
        <ele>176.0</ele>
        <time>2022-03-10T10:20:43Z</time>
      </trkpt>
      <trkpt lat="42.0989" lon="2.7461426">
        <ele>176.0</ele>
        <time>2022-03-10T10:20:44Z</time>
      </trkpt>
      <trkpt lat="42.09898" lon="2.7461498">
        <ele>176.0</ele>
        <time>2022-03-10T10:20:45Z</time>
      </trkpt>
      <trkpt lat="42.09906" lon="2.7461567">
        <ele>176.0</ele>
        <time>2022-03-10T10:20:46Z</time>
      </trkpt>
      <trkpt lat="42.099125" lon="2.7461617">
        <ele>176.0</ele>
        <time>2022-03-10T10:20:47Z</time>
      </trkpt>
      <trkpt lat="42.09919" lon="2.7461627">
        <ele>176.0</ele>
        <time>2022-03-10T10:20:48Z</time>
      </trkpt>
      <trkpt lat="42.09925" lon="2.7461572">
        <ele>176.0</ele>
        <time>2022-03-10T10:20:49Z</time>
      </trkpt>
      <trkpt lat="42.09931" lon="2.7461436">
        <ele>176.0</ele>
        <time>2022-03-10T10:20:50Z</time>
      </trkpt>
      <trkpt lat="42.09938" lon="2.7461257">
        <ele>177.0</ele>
        <time>2022-03-10T10:20:51Z</time>
      </trkpt>
      <trkpt lat="42.099445" lon="2.7461069">
        <ele>177.0</ele>
        <time>2022-03-10T10:20:52Z</time>
      </trkpt>
      <trkpt lat="42.099518" lon="2.7460897">
        <ele>177.0</ele>
        <time>2022-03-10T10:20:53Z</time>
      </trkpt>
      <trkpt lat="42.09959" lon="2.7460756">
        <ele>177.0</ele>
        <time>2022-03-10T10:20:54Z</time>
      </trkpt>
      <trkpt lat="42.099667" lon="2.7460635">
        <ele>177.0</ele>
        <time>2022-03-10T10:20:55Z</time>
      </trkpt>
      <trkpt lat="42.099754" lon="2.7460535">
        <ele>177.0</ele>
        <time>2022-03-10T10:20:56Z</time>
      </trkpt>
      <trkpt lat="42.099827" lon="2.7460449">
        <ele>177.0</ele>
        <time>2022-03-10T10:20:57Z</time>
      </trkpt>
      <trkpt lat="42.0999" lon="2.7460368">
        <ele>177.0</ele>
        <time>2022-03-10T10:20:59Z</time>
      </trkpt>
      <trkpt lat="42.09997" lon="2.7460294">
        <ele>177.0</ele>
        <time>2022-03-10T10:20:59Z</time>
      </trkpt>
      <trkpt lat="42.10004" lon="2.746023">
        <ele>178.0</ele>
        <time>2022-03-10T10:21:00Z</time>
      </trkpt>
      <trkpt lat="42.10012" lon="2.7460186">
        <ele>178.0</ele>
        <time>2022-03-10T10:21:01Z</time>
      </trkpt>
      <trkpt lat="42.100197" lon="2.7460148">
        <ele>178.0</ele>
        <time>2022-03-10T10:21:02Z</time>
      </trkpt>
      <trkpt lat="42.100277" lon="2.7460117">
        <ele>178.0</ele>
        <time>2022-03-10T10:21:03Z</time>
      </trkpt>
      <trkpt lat="42.100353" lon="2.7460089">
        <ele>178.0</ele>
        <time>2022-03-10T10:21:04Z</time>
      </trkpt>
      <trkpt lat="42.10043" lon="2.746002">
        <ele>178.0</ele>
        <time>2022-03-10T10:21:05Z</time>
      </trkpt>
      <trkpt lat="42.100502" lon="2.7459888">
        <ele>178.0</ele>
        <time>2022-03-10T10:21:06Z</time>
      </trkpt>
      <trkpt lat="42.100555" lon="2.745971">
        <ele>178.0</ele>
        <time>2022-03-10T10:21:07Z</time>
      </trkpt>
      <trkpt lat="42.1006" lon="2.7459447">
        <ele>178.0</ele>
        <time>2022-03-10T10:21:08Z</time>
      </trkpt>
      <trkpt lat="42.100643" lon="2.7459116">
        <ele>178.0</ele>
        <time>2022-03-10T10:21:09Z</time>
      </trkpt>
      <trkpt lat="42.100666" lon="2.7458737">
        <ele>178.0</ele>
        <time>2022-03-10T10:21:10Z</time>
      </trkpt>
      <trkpt lat="42.10069" lon="2.7458298">
        <ele>178.0</ele>
        <time>2022-03-10T10:21:11Z</time>
      </trkpt>
      <trkpt lat="42.1007" lon="2.7457805">
        <ele>178.0</ele>
        <time>2022-03-10T10:21:12Z</time>
      </trkpt>
      <trkpt lat="42.10071" lon="2.745725">
        <ele>179.0</ele>
        <time>2022-03-10T10:21:13Z</time>
      </trkpt>
      <trkpt lat="42.10072" lon="2.745664">
        <ele>179.0</ele>
        <time>2022-03-10T10:21:14Z</time>
      </trkpt>
      <trkpt lat="42.100723" lon="2.745593">
        <ele>179.0</ele>
        <time>2022-03-10T10:21:15Z</time>
      </trkpt>
      <trkpt lat="42.100727" lon="2.745516">
        <ele>179.0</ele>
        <time>2022-03-10T10:21:16Z</time>
      </trkpt>
      <trkpt lat="42.100735" lon="2.7454326">
        <ele>180.0</ele>
        <time>2022-03-10T10:21:17Z</time>
      </trkpt>
      <trkpt lat="42.10074" lon="2.7453415">
        <ele>180.0</ele>
        <time>2022-03-10T10:21:18Z</time>
      </trkpt>
      <trkpt lat="42.100742" lon="2.7452452">
        <ele>180.0</ele>
        <time>2022-03-10T10:21:19Z</time>
      </trkpt>
      <trkpt lat="42.100746" lon="2.7451494">
        <ele>180.0</ele>
        <time>2022-03-10T10:21:20Z</time>
      </trkpt>
      <trkpt lat="42.10075" lon="2.7450528">
        <ele>181.0</ele>
        <time>2022-03-10T10:21:21Z</time>
      </trkpt>
      <trkpt lat="42.10076" lon="2.7449522">
        <ele>181.0</ele>
        <time>2022-03-10T10:21:22Z</time>
      </trkpt>
      <trkpt lat="42.100777" lon="2.7448497">
        <ele>181.0</ele>
        <time>2022-03-10T10:21:23Z</time>
      </trkpt>
      <trkpt lat="42.100796" lon="2.7447476">
        <ele>181.0</ele>
        <time>2022-03-10T10:21:24Z</time>
      </trkpt>
      <trkpt lat="42.100815" lon="2.7446487">
        <ele>181.0</ele>
        <time>2022-03-10T10:21:25Z</time>
      </trkpt>
      <trkpt lat="42.100834" lon="2.744551">
        <ele>181.0</ele>
        <time>2022-03-10T10:21:26Z</time>
      </trkpt>
      <trkpt lat="42.10085" lon="2.7444553">
        <ele>181.0</ele>
        <time>2022-03-10T10:21:27Z</time>
      </trkpt>
      <trkpt lat="42.10086" lon="2.7443626">
        <ele>181.0</ele>
        <time>2022-03-10T10:21:28Z</time>
      </trkpt>
      <trkpt lat="42.10087" lon="2.744273">
        <ele>182.0</ele>
        <time>2022-03-10T10:21:29Z</time>
      </trkpt>
      <trkpt lat="42.100872" lon="2.7441885">
        <ele>182.0</ele>
        <time>2022-03-10T10:21:30Z</time>
      </trkpt>
      <trkpt lat="42.100876" lon="2.744114">
        <ele>182.0</ele>
        <time>2022-03-10T10:21:31Z</time>
      </trkpt>
      <trkpt lat="42.100876" lon="2.7440515">
        <ele>182.0</ele>
        <time>2022-03-10T10:21:32Z</time>
      </trkpt>
      <trkpt lat="42.10088" lon="2.7440042">
        <ele>182.0</ele>
        <time>2022-03-10T10:21:33Z</time>
      </trkpt>
      <trkpt lat="42.100883" lon="2.7439687">
        <ele>181.0</ele>
        <time>2022-03-10T10:21:34Z</time>
      </trkpt>
      <trkpt lat="42.100883" lon="2.743942">
        <ele>181.0</ele>
        <time>2022-03-10T10:21:35Z</time>
      </trkpt>
      <trkpt lat="42.10089" lon="2.743922">
        <ele>181.0</ele>
        <time>2022-03-10T10:21:36Z</time>
      </trkpt>
      <trkpt lat="42.10091" lon="2.743913">
        <ele>181.0</ele>
        <time>2022-03-10T10:21:37Z</time>
      </trkpt>
      <trkpt lat="42.100937" lon="2.7439117">
        <ele>181.0</ele>
        <time>2022-03-10T10:21:38Z</time>
      </trkpt>
      <trkpt lat="42.100967" lon="2.74392">
        <ele>181.0</ele>
        <time>2022-03-10T10:21:39Z</time>
      </trkpt>
      <trkpt lat="42.10101" lon="2.7439356">
        <ele>181.0</ele>
        <time>2022-03-10T10:21:40Z</time>
      </trkpt>
      <trkpt lat="42.101063" lon="2.7439532">
        <ele>181.0</ele>
        <time>2022-03-10T10:21:41Z</time>
      </trkpt>
      <trkpt lat="42.101112" lon="2.7439709">
        <ele>181.0</ele>
        <time>2022-03-10T10:21:42Z</time>
      </trkpt>
      <trkpt lat="42.101162" lon="2.7439802">
        <ele>181.0</ele>
        <time>2022-03-10T10:21:43Z</time>
      </trkpt>
      <trkpt lat="42.101208" lon="2.743975">
        <ele>181.0</ele>
        <time>2022-03-10T10:21:44Z</time>
      </trkpt>
      <trkpt lat="42.101246" lon="2.7439523">
        <ele>181.0</ele>
        <time>2022-03-10T10:21:45Z</time>
      </trkpt>
      <trkpt lat="42.101276" lon="2.743907">
        <ele>182.0</ele>
        <time>2022-03-10T10:21:46Z</time>
      </trkpt>
      <trkpt lat="42.101303" lon="2.7438455">
        <ele>182.0</ele>
        <time>2022-03-10T10:21:47Z</time>
      </trkpt>
      <trkpt lat="42.101326" lon="2.7437696">
        <ele>182.0</ele>
        <time>2022-03-10T10:21:48Z</time>
      </trkpt>
      <trkpt lat="42.10134" lon="2.743681">
        <ele>183.0</ele>
        <time>2022-03-10T10:21:49Z</time>
      </trkpt>
      <trkpt lat="42.101357" lon="2.743584">
        <ele>183.0</ele>
        <time>2022-03-10T10:21:50Z</time>
      </trkpt>
      <trkpt lat="42.101364" lon="2.743481">
        <ele>183.0</ele>
        <time>2022-03-10T10:21:51Z</time>
      </trkpt>
      <trkpt lat="42.10137" lon="2.7433743">
        <ele>183.0</ele>
        <time>2022-03-10T10:21:52Z</time>
      </trkpt>
      <trkpt lat="42.10138" lon="2.7432694">
        <ele>183.0</ele>
        <time>2022-03-10T10:21:53Z</time>
      </trkpt>
      <trkpt lat="42.101387" lon="2.743166">
        <ele>183.0</ele>
        <time>2022-03-10T10:21:54Z</time>
      </trkpt>
      <trkpt lat="42.10139" lon="2.7430644">
        <ele>184.0</ele>
        <time>2022-03-10T10:21:55Z</time>
      </trkpt>
      <trkpt lat="42.101395" lon="2.7429633">
        <ele>184.0</ele>
        <time>2022-03-10T10:21:56Z</time>
      </trkpt>
      <trkpt lat="42.101395" lon="2.7428648">
        <ele>185.0</ele>
        <time>2022-03-10T10:21:57Z</time>
      </trkpt>
      <trkpt lat="42.101395" lon="2.7427685">
        <ele>185.0</ele>
        <time>2022-03-10T10:21:59Z</time>
      </trkpt>
      <trkpt lat="42.101387" lon="2.7426772">
        <ele>185.0</ele>
        <time>2022-03-10T10:21:59Z</time>
      </trkpt>
      <trkpt lat="42.10138" lon="2.7425914">
        <ele>185.0</ele>
        <time>2022-03-10T10:22:00Z</time>
      </trkpt>
      <trkpt lat="42.101364" lon="2.7425148">
        <ele>185.0</ele>
        <time>2022-03-10T10:22:01Z</time>
      </trkpt>
      <trkpt lat="42.10135" lon="2.7424538">
        <ele>185.0</ele>
        <time>2022-03-10T10:22:02Z</time>
      </trkpt>
      <trkpt lat="42.10134" lon="2.7424045">
        <ele>185.0</ele>
        <time>2022-03-10T10:22:03Z</time>
      </trkpt>
      <trkpt lat="42.101334" lon="2.7423644">
        <ele>185.0</ele>
        <time>2022-03-10T10:22:04Z</time>
      </trkpt>
      <trkpt lat="42.101326" lon="2.7423332">
        <ele>185.0</ele>
        <time>2022-03-10T10:22:05Z</time>
      </trkpt>
      <trkpt lat="42.101326" lon="2.7423093">
        <ele>185.0</ele>
        <time>2022-03-10T10:22:06Z</time>
      </trkpt>
      <trkpt lat="42.10133" lon="2.7422922">
        <ele>185.0</ele>
        <time>2022-03-10T10:22:07Z</time>
      </trkpt>
      <trkpt lat="42.101334" lon="2.74228">
        <ele>185.0</ele>
        <time>2022-03-10T10:22:08Z</time>
      </trkpt>
      <trkpt lat="42.10133" lon="2.7422764">
        <ele>185.0</ele>
        <time>2022-03-10T10:22:09Z</time>
      </trkpt>
      <trkpt lat="42.101326" lon="2.7422783">
        <ele>185.0</ele>
        <time>2022-03-10T10:22:10Z</time>
      </trkpt>
      <trkpt lat="42.101322" lon="2.7422829">
        <ele>185.0</ele>
        <time>2022-03-10T10:22:11Z</time>
      </trkpt>
      <trkpt lat="42.10132" lon="2.7422872">
        <ele>185.0</ele>
        <time>2022-03-10T10:22:12Z</time>
      </trkpt>
      <trkpt lat="42.10132" lon="2.742293">
        <ele>185.0</ele>
        <time>2022-03-10T10:22:13Z</time>
      </trkpt>
      <trkpt lat="42.101322" lon="2.7423005">
        <ele>185.0</ele>
        <time>2022-03-10T10:22:14Z</time>
      </trkpt>
      <trkpt lat="42.101326" lon="2.7423103">
        <ele>185.0</ele>
        <time>2022-03-10T10:22:15Z</time>
      </trkpt>
      <trkpt lat="42.10133" lon="2.7423239">
        <ele>185.0</ele>
        <time>2022-03-10T10:22:16Z</time>
      </trkpt>
      <trkpt lat="42.101334" lon="2.7423418">
        <ele>185.0</ele>
        <time>2022-03-10T10:22:17Z</time>
      </trkpt>
      <trkpt lat="42.10134" lon="2.7423682">
        <ele>185.0</ele>
        <time>2022-03-10T10:22:18Z</time>
      </trkpt>
      <trkpt lat="42.10135" lon="2.7424042">
        <ele>185.0</ele>
        <time>2022-03-10T10:22:19Z</time>
      </trkpt>
      <trkpt lat="42.101357" lon="2.742452">
        <ele>185.0</ele>
        <time>2022-03-10T10:22:20Z</time>
      </trkpt>
      <trkpt lat="42.101364" lon="2.7425182">
        <ele>185.0</ele>
        <time>2022-03-10T10:22:21Z</time>
      </trkpt>
      <trkpt lat="42.10137" lon="2.7425907">
        <ele>185.0</ele>
        <time>2022-03-10T10:22:22Z</time>
      </trkpt>
      <trkpt lat="42.101376" lon="2.7426822">
        <ele>185.0</ele>
        <time>2022-03-10T10:22:23Z</time>
      </trkpt>
      <trkpt lat="42.10138" lon="2.7427857">
        <ele>185.0</ele>
        <time>2022-03-10T10:22:24Z</time>
      </trkpt>
      <trkpt lat="42.10138" lon="2.7428963">
        <ele>185.0</ele>
        <time>2022-03-10T10:22:25Z</time>
      </trkpt>
      <trkpt lat="42.10138" lon="2.7430115">
        <ele>185.0</ele>
        <time>2022-03-10T10:22:26Z</time>
      </trkpt>
      <trkpt lat="42.101376" lon="2.7431266">
        <ele>185.0</ele>
        <time>2022-03-10T10:22:27Z</time>
      </trkpt>
      <trkpt lat="42.10137" lon="2.74324">
        <ele>185.0</ele>
        <time>2022-03-10T10:22:28Z</time>
      </trkpt>
      <trkpt lat="42.101364" lon="2.7433507">
        <ele>184.0</ele>
        <time>2022-03-10T10:22:29Z</time>
      </trkpt>
      <trkpt lat="42.101353" lon="2.743455">
        <ele>184.0</ele>
        <time>2022-03-10T10:22:30Z</time>
      </trkpt>
      <trkpt lat="42.101334" lon="2.7435563">
        <ele>184.0</ele>
        <time>2022-03-10T10:22:31Z</time>
      </trkpt>
      <trkpt lat="42.10132" lon="2.7436397">
        <ele>184.0</ele>
        <time>2022-03-10T10:22:32Z</time>
      </trkpt>
      <trkpt lat="42.1013" lon="2.7437222">
        <ele>183.0</ele>
        <time>2022-03-10T10:22:33Z</time>
      </trkpt>
      <trkpt lat="42.10128" lon="2.7437913">
        <ele>183.0</ele>
        <time>2022-03-10T10:22:34Z</time>
      </trkpt>
      <trkpt lat="42.101257" lon="2.7438486">
        <ele>183.0</ele>
        <time>2022-03-10T10:22:35Z</time>
      </trkpt>
      <trkpt lat="42.101227" lon="2.7438948">
        <ele>183.0</ele>
        <time>2022-03-10T10:22:36Z</time>
      </trkpt>
      <trkpt lat="42.101192" lon="2.743929">
        <ele>183.0</ele>
        <time>2022-03-10T10:22:37Z</time>
      </trkpt>
      <trkpt lat="42.10116" lon="2.7439477">
        <ele>183.0</ele>
        <time>2022-03-10T10:22:38Z</time>
      </trkpt>
      <trkpt lat="42.101116" lon="2.7439556">
        <ele>182.0</ele>
        <time>2022-03-10T10:22:39Z</time>
      </trkpt>
      <trkpt lat="42.101074" lon="2.743954">
        <ele>182.0</ele>
        <time>2022-03-10T10:22:40Z</time>
      </trkpt>
      <trkpt lat="42.101032" lon="2.7439475">
        <ele>182.0</ele>
        <time>2022-03-10T10:22:41Z</time>
      </trkpt>
      <trkpt lat="42.10099" lon="2.743943">
        <ele>182.0</ele>
        <time>2022-03-10T10:22:42Z</time>
      </trkpt>
      <trkpt lat="42.100952" lon="2.7439463">
        <ele>182.0</ele>
        <time>2022-03-10T10:22:43Z</time>
      </trkpt>
      <trkpt lat="42.10092" lon="2.7439578">
        <ele>182.0</ele>
        <time>2022-03-10T10:22:44Z</time>
      </trkpt>
      <trkpt lat="42.100903" lon="2.7439773">
        <ele>182.0</ele>
        <time>2022-03-10T10:22:45Z</time>
      </trkpt>
      <trkpt lat="42.100887" lon="2.74401">
        <ele>182.0</ele>
        <time>2022-03-10T10:22:46Z</time>
      </trkpt>
      <trkpt lat="42.10088" lon="2.744055">
        <ele>182.0</ele>
        <time>2022-03-10T10:22:47Z</time>
      </trkpt>
      <trkpt lat="42.100876" lon="2.744114">
        <ele>182.0</ele>
        <time>2022-03-10T10:22:48Z</time>
      </trkpt>
      <trkpt lat="42.10087" lon="2.7441819">
        <ele>182.0</ele>
        <time>2022-03-10T10:22:49Z</time>
      </trkpt>
      <trkpt lat="42.10086" lon="2.7442563">
        <ele>182.0</ele>
        <time>2022-03-10T10:22:50Z</time>
      </trkpt>
      <trkpt lat="42.100853" lon="2.744343">
        <ele>182.0</ele>
        <time>2022-03-10T10:22:51Z</time>
      </trkpt>
      <trkpt lat="42.100838" lon="2.744432">
        <ele>182.0</ele>
        <time>2022-03-10T10:22:52Z</time>
      </trkpt>
      <trkpt lat="42.10082" lon="2.7445216">
        <ele>182.0</ele>
        <time>2022-03-10T10:22:53Z</time>
      </trkpt>
      <trkpt lat="42.100796" lon="2.7446153">
        <ele>182.0</ele>
        <time>2022-03-10T10:22:54Z</time>
      </trkpt>
      <trkpt lat="42.100777" lon="2.7447052">
        <ele>182.0</ele>
        <time>2022-03-10T10:22:55Z</time>
      </trkpt>
      <trkpt lat="42.100758" lon="2.7447982">
        <ele>182.0</ele>
        <time>2022-03-10T10:22:56Z</time>
      </trkpt>
      <trkpt lat="42.100742" lon="2.744894">
        <ele>181.0</ele>
        <time>2022-03-10T10:22:57Z</time>
      </trkpt>
      <trkpt lat="42.100727" lon="2.744991">
        <ele>181.0</ele>
        <time>2022-03-10T10:22:59Z</time>
      </trkpt>
      <trkpt lat="42.100716" lon="2.7450871">
        <ele>181.0</ele>
        <time>2022-03-10T10:22:59Z</time>
      </trkpt>
      <trkpt lat="42.100708" lon="2.7451835">
        <ele>181.0</ele>
        <time>2022-03-10T10:23:00Z</time>
      </trkpt>
      <trkpt lat="42.100704" lon="2.7452781">
        <ele>181.0</ele>
        <time>2022-03-10T10:23:01Z</time>
      </trkpt>
      <trkpt lat="42.100697" lon="2.745368">
        <ele>180.0</ele>
        <time>2022-03-10T10:23:02Z</time>
      </trkpt>
      <trkpt lat="42.100697" lon="2.7454503">
        <ele>180.0</ele>
        <time>2022-03-10T10:23:03Z</time>
      </trkpt>
      <trkpt lat="42.100697" lon="2.7455263">
        <ele>180.0</ele>
        <time>2022-03-10T10:23:04Z</time>
      </trkpt>
      <trkpt lat="42.100704" lon="2.745592">
        <ele>180.0</ele>
        <time>2022-03-10T10:23:05Z</time>
      </trkpt>
      <trkpt lat="42.10072" lon="2.745647">
        <ele>179.0</ele>
        <time>2022-03-10T10:23:06Z</time>
      </trkpt>
      <trkpt lat="42.10075" lon="2.745696">
        <ele>179.0</ele>
        <time>2022-03-10T10:23:07Z</time>
      </trkpt>
      <trkpt lat="42.100784" lon="2.7457402">
        <ele>179.0</ele>
        <time>2022-03-10T10:23:08Z</time>
      </trkpt>
      <trkpt lat="42.10083" lon="2.7457898">
        <ele>179.0</ele>
        <time>2022-03-10T10:23:09Z</time>
      </trkpt>
      <trkpt lat="42.10088" lon="2.7458413">
        <ele>179.0</ele>
        <time>2022-03-10T10:23:10Z</time>
      </trkpt>
      <trkpt lat="42.100925" lon="2.7458878">
        <ele>179.0</ele>
        <time>2022-03-10T10:23:11Z</time>
      </trkpt>
      <trkpt lat="42.100975" lon="2.745933">
        <ele>178.0</ele>
        <time>2022-03-10T10:23:12Z</time>
      </trkpt>
      <trkpt lat="42.10103" lon="2.7459738">
        <ele>178.0</ele>
        <time>2022-03-10T10:23:14Z</time>
      </trkpt>
      <trkpt lat="42.101078" lon="2.746008">
        <ele>178.0</ele>
        <time>2022-03-10T10:23:15Z</time>
      </trkpt>
      <trkpt lat="42.101128" lon="2.7460382">
        <ele>178.0</ele>
        <time>2022-03-10T10:23:16Z</time>
      </trkpt>
      <trkpt lat="42.101173" lon="2.7460625">
        <ele>178.0</ele>
        <time>2022-03-10T10:23:16Z</time>
      </trkpt>
      <trkpt lat="42.10122" lon="2.7460837">
        <ele>178.0</ele>
        <time>2022-03-10T10:23:17Z</time>
      </trkpt>
      <trkpt lat="42.101265" lon="2.7461033">
        <ele>178.0</ele>
        <time>2022-03-10T10:23:18Z</time>
      </trkpt>
      <trkpt lat="42.101315" lon="2.7461238">
        <ele>178.0</ele>
        <time>2022-03-10T10:23:19Z</time>
      </trkpt>
      <trkpt lat="42.10136" lon="2.746143">
        <ele>178.0</ele>
        <time>2022-03-10T10:23:20Z</time>
      </trkpt>
      <trkpt lat="42.101402" lon="2.74616">
        <ele>177.0</ele>
        <time>2022-03-10T10:23:21Z</time>
      </trkpt>
      <trkpt lat="42.10144" lon="2.746178">
        <ele>177.0</ele>
        <time>2022-03-10T10:23:22Z</time>
      </trkpt>
      <trkpt lat="42.10148" lon="2.7461946">
        <ele>177.0</ele>
        <time>2022-03-10T10:23:23Z</time>
      </trkpt>
      <trkpt lat="42.101513" lon="2.7462108">
        <ele>177.0</ele>
        <time>2022-03-10T10:23:24Z</time>
      </trkpt>
      <trkpt lat="42.101543" lon="2.7462265">
        <ele>177.0</ele>
        <time>2022-03-10T10:23:25Z</time>
      </trkpt>
      <trkpt lat="42.10158" lon="2.7462432">
        <ele>177.0</ele>
        <time>2022-03-10T10:23:26Z</time>
      </trkpt>
      <trkpt lat="42.101616" lon="2.746261">
        <ele>177.0</ele>
        <time>2022-03-10T10:23:27Z</time>
      </trkpt>
      <trkpt lat="42.101654" lon="2.74628">
        <ele>177.0</ele>
        <time>2022-03-10T10:23:28Z</time>
      </trkpt>
      <trkpt lat="42.101692" lon="2.7463021">
        <ele>177.0</ele>
        <time>2022-03-10T10:23:29Z</time>
      </trkpt>
      <trkpt lat="42.101738" lon="2.746326">
        <ele>177.0</ele>
        <time>2022-03-10T10:23:30Z</time>
      </trkpt>
      <trkpt lat="42.10179" lon="2.7463555">
        <ele>177.0</ele>
        <time>2022-03-10T10:23:31Z</time>
      </trkpt>
      <trkpt lat="42.10185" lon="2.7463894">
        <ele>177.0</ele>
        <time>2022-03-10T10:23:32Z</time>
      </trkpt>
      <trkpt lat="42.101902" lon="2.7464256">
        <ele>177.0</ele>
        <time>2022-03-10T10:23:33Z</time>
      </trkpt>
      <trkpt lat="42.10196" lon="2.746472">
        <ele>177.0</ele>
        <time>2022-03-10T10:23:34Z</time>
      </trkpt>
      <trkpt lat="42.10202" lon="2.7465222">
        <ele>177.0</ele>
        <time>2022-03-10T10:23:35Z</time>
      </trkpt>
      <trkpt lat="42.10208" lon="2.7465763">
        <ele>177.0</ele>
        <time>2022-03-10T10:23:36Z</time>
      </trkpt>
      <trkpt lat="42.102146" lon="2.7466314">
        <ele>177.0</ele>
        <time>2022-03-10T10:23:37Z</time>
      </trkpt>
      <trkpt lat="42.102207" lon="2.7466812">
        <ele>177.0</ele>
        <time>2022-03-10T10:23:38Z</time>
      </trkpt>
      <trkpt lat="42.102264" lon="2.7467322">
        <ele>177.0</ele>
        <time>2022-03-10T10:23:39Z</time>
      </trkpt>
      <trkpt lat="42.10233" lon="2.7467823">
        <ele>177.0</ele>
        <time>2022-03-10T10:23:40Z</time>
      </trkpt>
      <trkpt lat="42.102386" lon="2.746827">
        <ele>176.0</ele>
        <time>2022-03-10T10:23:41Z</time>
      </trkpt>
      <trkpt lat="42.102444" lon="2.7468662">
        <ele>176.0</ele>
        <time>2022-03-10T10:23:42Z</time>
      </trkpt>
      <trkpt lat="42.102493" lon="2.7469027">
        <ele>175.0</ele>
        <time>2022-03-10T10:23:43Z</time>
      </trkpt>
      <trkpt lat="42.102543" lon="2.7469394">
        <ele>175.0</ele>
        <time>2022-03-10T10:23:44Z</time>
      </trkpt>
      <trkpt lat="42.102592" lon="2.7469785">
        <ele>175.0</ele>
        <time>2022-03-10T10:23:45Z</time>
      </trkpt>
      <trkpt lat="42.10264" lon="2.7470167">
        <ele>175.0</ele>
        <time>2022-03-10T10:23:46Z</time>
      </trkpt>
      <trkpt lat="42.102684" lon="2.7470577">
        <ele>175.0</ele>
        <time>2022-03-10T10:23:47Z</time>
      </trkpt>
      <trkpt lat="42.102734" lon="2.7471018">
        <ele>174.0</ele>
        <time>2022-03-10T10:23:48Z</time>
      </trkpt>
      <trkpt lat="42.102783" lon="2.7471523">
        <ele>174.0</ele>
        <time>2022-03-10T10:23:48Z</time>
      </trkpt>
      <trkpt lat="42.102837" lon="2.7472074">
        <ele>174.0</ele>
        <time>2022-03-10T10:23:49Z</time>
      </trkpt>
      <trkpt lat="42.10289" lon="2.7472637">
        <ele>174.0</ele>
        <time>2022-03-10T10:23:50Z</time>
      </trkpt>
      <trkpt lat="42.102943" lon="2.747321">
        <ele>174.0</ele>
        <time>2022-03-10T10:23:51Z</time>
      </trkpt>
      <trkpt lat="42.103" lon="2.7473793">
        <ele>174.0</ele>
        <time>2022-03-10T10:23:52Z</time>
      </trkpt>
      <trkpt lat="42.103054" lon="2.7474368">
        <ele>174.0</ele>
        <time>2022-03-10T10:23:53Z</time>
      </trkpt>
      <trkpt lat="42.103107" lon="2.7474957">
        <ele>174.0</ele>
        <time>2022-03-10T10:23:54Z</time>
      </trkpt>
      <trkpt lat="42.103165" lon="2.7475555">
        <ele>173.0</ele>
        <time>2022-03-10T10:23:55Z</time>
      </trkpt>
      <trkpt lat="42.10322" lon="2.7476196">
        <ele>173.0</ele>
        <time>2022-03-10T10:23:57Z</time>
      </trkpt>
      <trkpt lat="42.103275" lon="2.7476745">
        <ele>173.0</ele>
        <time>2022-03-10T10:23:57Z</time>
      </trkpt>
      <trkpt lat="42.103325" lon="2.7477283">
        <ele>173.0</ele>
        <time>2022-03-10T10:23:58Z</time>
      </trkpt>
      <trkpt lat="42.103374" lon="2.74778">
        <ele>173.0</ele>
        <time>2022-03-10T10:23:59Z</time>
      </trkpt>
      <trkpt lat="42.10342" lon="2.7478287">
        <ele>172.0</ele>
        <time>2022-03-10T10:24:00Z</time>
      </trkpt>
      <trkpt lat="42.103462" lon="2.7478743">
        <ele>172.0</ele>
        <time>2022-03-10T10:24:01Z</time>
      </trkpt>
      <trkpt lat="42.1035" lon="2.7479167">
        <ele>172.0</ele>
        <time>2022-03-10T10:24:02Z</time>
      </trkpt>
      <trkpt lat="42.10354" lon="2.74796">
        <ele>172.0</ele>
        <time>2022-03-10T10:24:03Z</time>
      </trkpt>
      <trkpt lat="42.103573" lon="2.7479978">
        <ele>172.0</ele>
        <time>2022-03-10T10:24:04Z</time>
      </trkpt>
      <trkpt lat="42.103607" lon="2.7480364">
        <ele>171.0</ele>
        <time>2022-03-10T10:24:05Z</time>
      </trkpt>
      <trkpt lat="42.103638" lon="2.7480743">
        <ele>171.0</ele>
        <time>2022-03-10T10:24:06Z</time>
      </trkpt>
      <trkpt lat="42.103664" lon="2.7481108">
        <ele>171.0</ele>
        <time>2022-03-10T10:24:07Z</time>
      </trkpt>
      <trkpt lat="42.10369" lon="2.74814">
        <ele>171.0</ele>
        <time>2022-03-10T10:24:08Z</time>
      </trkpt>
      <trkpt lat="42.103714" lon="2.7481658">
        <ele>171.0</ele>
        <time>2022-03-10T10:24:09Z</time>
      </trkpt>
      <trkpt lat="42.103745" lon="2.7481914">
        <ele>171.0</ele>
        <time>2022-03-10T10:24:10Z</time>
      </trkpt>
      <trkpt lat="42.10378" lon="2.7482185">
        <ele>171.0</ele>
        <time>2022-03-10T10:24:11Z</time>
      </trkpt>
      <trkpt lat="42.103813" lon="2.7482476">
        <ele>170.0</ele>
        <time>2022-03-10T10:24:12Z</time>
      </trkpt>
      <trkpt lat="42.103848" lon="2.748281">
        <ele>170.0</ele>
        <time>2022-03-10T10:24:13Z</time>
      </trkpt>
      <trkpt lat="42.103878" lon="2.7483137">
        <ele>170.0</ele>
        <time>2022-03-10T10:24:14Z</time>
      </trkpt>
      <trkpt lat="42.103924" lon="2.7483501">
        <ele>170.0</ele>
        <time>2022-03-10T10:24:15Z</time>
      </trkpt>
      <trkpt lat="42.103966" lon="2.748389">
        <ele>170.0</ele>
        <time>2022-03-10T10:24:16Z</time>
      </trkpt>
      <trkpt lat="42.10401" lon="2.748428">
        <ele>170.0</ele>
        <time>2022-03-10T10:24:17Z</time>
      </trkpt>
      <trkpt lat="42.10406" lon="2.7484665">
        <ele>170.0</ele>
        <time>2022-03-10T10:24:18Z</time>
      </trkpt>
      <trkpt lat="42.104115" lon="2.7485056">
        <ele>170.0</ele>
        <time>2022-03-10T10:24:19Z</time>
      </trkpt>
      <trkpt lat="42.104168" lon="2.748542">
        <ele>170.0</ele>
        <time>2022-03-10T10:24:20Z</time>
      </trkpt>
      <trkpt lat="42.10422" lon="2.7485788">
        <ele>170.0</ele>
        <time>2022-03-10T10:24:21Z</time>
      </trkpt>
      <trkpt lat="42.104275" lon="2.7486122">
        <ele>170.0</ele>
        <time>2022-03-10T10:24:22Z</time>
      </trkpt>
      <trkpt lat="42.104332" lon="2.7486415">
        <ele>170.0</ele>
        <time>2022-03-10T10:24:23Z</time>
      </trkpt>
      <trkpt lat="42.10438" lon="2.7486658">
        <ele>169.0</ele>
        <time>2022-03-10T10:24:24Z</time>
      </trkpt>
      <trkpt lat="42.104427" lon="2.7486835">
        <ele>169.0</ele>
        <time>2022-03-10T10:24:25Z</time>
      </trkpt>
      <trkpt lat="42.104465" lon="2.7486951">
        <ele>169.0</ele>
        <time>2022-03-10T10:24:26Z</time>
      </trkpt>
      <trkpt lat="42.104507" lon="2.748701">
        <ele>169.0</ele>
        <time>2022-03-10T10:24:27Z</time>
      </trkpt>
      <trkpt lat="42.10455" lon="2.7487013">
        <ele>169.0</ele>
        <time>2022-03-10T10:24:28Z</time>
      </trkpt>
      <trkpt lat="42.10459" lon="2.7486966">
        <ele>169.0</ele>
        <time>2022-03-10T10:24:29Z</time>
      </trkpt>
      <trkpt lat="42.104637" lon="2.74869">
        <ele>169.0</ele>
        <time>2022-03-10T10:24:30Z</time>
      </trkpt>
      <trkpt lat="42.104687" lon="2.7486804">
        <ele>169.0</ele>
        <time>2022-03-10T10:24:31Z</time>
      </trkpt>
      <trkpt lat="42.104736" lon="2.7486708">
        <ele>169.0</ele>
        <time>2022-03-10T10:24:32Z</time>
      </trkpt>
      <trkpt lat="42.104786" lon="2.7486618">
        <ele>169.0</ele>
        <time>2022-03-10T10:24:33Z</time>
      </trkpt>
      <trkpt lat="42.104828" lon="2.7486546">
        <ele>168.0</ele>
        <time>2022-03-10T10:24:34Z</time>
      </trkpt>
      <trkpt lat="42.104874" lon="2.7486496">
        <ele>168.0</ele>
        <time>2022-03-10T10:24:35Z</time>
      </trkpt>
      <trkpt lat="42.104916" lon="2.748647">
        <ele>168.0</ele>
        <time>2022-03-10T10:24:36Z</time>
      </trkpt>
      <trkpt lat="42.10495" lon="2.7486484">
        <ele>168.0</ele>
        <time>2022-03-10T10:24:37Z</time>
      </trkpt>
      <trkpt lat="42.10499" lon="2.7486587">
        <ele>168.0</ele>
        <time>2022-03-10T10:24:38Z</time>
      </trkpt>
      <trkpt lat="42.105026" lon="2.7486765">
        <ele>168.0</ele>
        <time>2022-03-10T10:24:39Z</time>
      </trkpt>
      <trkpt lat="42.105064" lon="2.7487032">
        <ele>168.0</ele>
        <time>2022-03-10T10:24:40Z</time>
      </trkpt>
      <trkpt lat="42.105103" lon="2.7487385">
        <ele>168.0</ele>
        <time>2022-03-10T10:24:41Z</time>
      </trkpt>
      <trkpt lat="42.105137" lon="2.7487822">
        <ele>168.0</ele>
        <time>2022-03-10T10:24:42Z</time>
      </trkpt>
      <trkpt lat="42.10517" lon="2.7488322">
        <ele>168.0</ele>
        <time>2022-03-10T10:24:43Z</time>
      </trkpt>
      <trkpt lat="42.1052" lon="2.7488897">
        <ele>168.0</ele>
        <time>2022-03-10T10:24:44Z</time>
      </trkpt>
      <trkpt lat="42.105236" lon="2.7489529">
        <ele>168.0</ele>
        <time>2022-03-10T10:24:45Z</time>
      </trkpt>
      <trkpt lat="42.105263" lon="2.749022">
        <ele>168.0</ele>
        <time>2022-03-10T10:24:46Z</time>
      </trkpt>
      <trkpt lat="42.105297" lon="2.7490947">
        <ele>168.0</ele>
        <time>2022-03-10T10:24:47Z</time>
      </trkpt>
      <trkpt lat="42.105324" lon="2.7491696">
        <ele>168.0</ele>
        <time>2022-03-10T10:24:48Z</time>
      </trkpt>
      <trkpt lat="42.10535" lon="2.7492454">
        <ele>168.0</ele>
        <time>2022-03-10T10:24:49Z</time>
      </trkpt>
      <trkpt lat="42.10538" lon="2.7493207">
        <ele>168.0</ele>
        <time>2022-03-10T10:24:50Z</time>
      </trkpt>
      <trkpt lat="42.105404" lon="2.7493966">
        <ele>168.0</ele>
        <time>2022-03-10T10:24:51Z</time>
      </trkpt>
      <trkpt lat="42.10543" lon="2.7494726">
        <ele>168.0</ele>
        <time>2022-03-10T10:24:52Z</time>
      </trkpt>
      <trkpt lat="42.105453" lon="2.7495494">
        <ele>168.0</ele>
        <time>2022-03-10T10:24:53Z</time>
      </trkpt>
      <trkpt lat="42.10548" lon="2.7496257">
        <ele>168.0</ele>
        <time>2022-03-10T10:24:54Z</time>
      </trkpt>
      <trkpt lat="42.105507" lon="2.7496996">
        <ele>168.0</ele>
        <time>2022-03-10T10:24:55Z</time>
      </trkpt>
      <trkpt lat="42.105526" lon="2.749769">
        <ele>168.0</ele>
        <time>2022-03-10T10:24:57Z</time>
      </trkpt>
      <trkpt lat="42.10555" lon="2.7498333">
        <ele>168.0</ele>
        <time>2022-03-10T10:24:57Z</time>
      </trkpt>
      <trkpt lat="42.105568" lon="2.7498896">
        <ele>168.0</ele>
        <time>2022-03-10T10:24:58Z</time>
      </trkpt>
      <trkpt lat="42.105583" lon="2.7499373">
        <ele>168.0</ele>
        <time>2022-03-10T10:24:59Z</time>
      </trkpt>
      <trkpt lat="42.1056" lon="2.7499769">
        <ele>167.0</ele>
        <time>2022-03-10T10:25:00Z</time>
      </trkpt>
      <trkpt lat="42.10561" lon="2.750011">
        <ele>167.0</ele>
        <time>2022-03-10T10:25:01Z</time>
      </trkpt>
      <trkpt lat="42.10562" lon="2.7500432">
        <ele>167.0</ele>
        <time>2022-03-10T10:25:02Z</time>
      </trkpt>
      <trkpt lat="42.105637" lon="2.7500775">
        <ele>167.0</ele>
        <time>2022-03-10T10:25:03Z</time>
      </trkpt>
      <trkpt lat="42.105663" lon="2.7501106">
        <ele>167.0</ele>
        <time>2022-03-10T10:25:04Z</time>
      </trkpt>
      <trkpt lat="42.10569" lon="2.750146">
        <ele>167.0</ele>
        <time>2022-03-10T10:25:05Z</time>
      </trkpt>
      <trkpt lat="42.10572" lon="2.7501876">
        <ele>168.0</ele>
        <time>2022-03-10T10:25:06Z</time>
      </trkpt>
      <trkpt lat="42.105755" lon="2.750234">
        <ele>168.0</ele>
        <time>2022-03-10T10:25:07Z</time>
      </trkpt>
      <trkpt lat="42.10579" lon="2.7502828">
        <ele>168.0</ele>
        <time>2022-03-10T10:25:08Z</time>
      </trkpt>
      <trkpt lat="42.105824" lon="2.7503314">
        <ele>168.0</ele>
        <time>2022-03-10T10:25:09Z</time>
      </trkpt>
      <trkpt lat="42.10586" lon="2.750379">
        <ele>168.0</ele>
        <time>2022-03-10T10:25:10Z</time>
      </trkpt>
      <trkpt lat="42.105896" lon="2.750424">
        <ele>169.0</ele>
        <time>2022-03-10T10:25:11Z</time>
      </trkpt>
      <trkpt lat="42.105927" lon="2.7504609">
        <ele>169.0</ele>
        <time>2022-03-10T10:25:12Z</time>
      </trkpt>
      <trkpt lat="42.10595" lon="2.7504897">
        <ele>169.0</ele>
        <time>2022-03-10T10:25:13Z</time>
      </trkpt>
      <trkpt lat="42.105972" lon="2.7505124">
        <ele>169.0</ele>
        <time>2022-03-10T10:25:14Z</time>
      </trkpt>
      <trkpt lat="42.105995" lon="2.7505312">
        <ele>169.0</ele>
        <time>2022-03-10T10:25:15Z</time>
      </trkpt>
      <trkpt lat="42.10601" lon="2.750551">
        <ele>169.0</ele>
        <time>2022-03-10T10:25:16Z</time>
      </trkpt>
      <trkpt lat="42.106033" lon="2.750574">
        <ele>169.0</ele>
        <time>2022-03-10T10:25:17Z</time>
      </trkpt>
      <trkpt lat="42.106052" lon="2.750602">
        <ele>169.0</ele>
        <time>2022-03-10T10:25:18Z</time>
      </trkpt>
      <trkpt lat="42.106068" lon="2.750636">
        <ele>169.0</ele>
        <time>2022-03-10T10:25:19Z</time>
      </trkpt>
      <trkpt lat="42.106083" lon="2.7506783">
        <ele>169.0</ele>
        <time>2022-03-10T10:25:20Z</time>
      </trkpt>
      <trkpt lat="42.106094" lon="2.7507255">
        <ele>170.0</ele>
        <time>2022-03-10T10:25:21Z</time>
      </trkpt>
      <trkpt lat="42.106113" lon="2.7507815">
        <ele>171.0</ele>
        <time>2022-03-10T10:25:22Z</time>
      </trkpt>
      <trkpt lat="42.10613" lon="2.7508388">
        <ele>171.0</ele>
        <time>2022-03-10T10:25:23Z</time>
      </trkpt>
      <trkpt lat="42.10615" lon="2.750905">
        <ele>172.0</ele>
        <time>2022-03-10T10:25:24Z</time>
      </trkpt>
      <trkpt lat="42.10617" lon="2.7509775">
        <ele>173.0</ele>
        <time>2022-03-10T10:25:25Z</time>
      </trkpt>
      <trkpt lat="42.10619" lon="2.7510564">
        <ele>173.0</ele>
        <time>2022-03-10T10:25:26Z</time>
      </trkpt>
      <trkpt lat="42.106205" lon="2.7511382">
        <ele>174.0</ele>
        <time>2022-03-10T10:25:27Z</time>
      </trkpt>
      <trkpt lat="42.10622" lon="2.7512193">
        <ele>175.0</ele>
        <time>2022-03-10T10:25:28Z</time>
      </trkpt>
      <trkpt lat="42.10624" lon="2.7513025">
        <ele>175.0</ele>
        <time>2022-03-10T10:25:29Z</time>
      </trkpt>
      <trkpt lat="42.106247" lon="2.7513804">
        <ele>175.0</ele>
        <time>2022-03-10T10:25:30Z</time>
      </trkpt>
      <trkpt lat="42.106255" lon="2.7514544">
        <ele>175.0</ele>
        <time>2022-03-10T10:25:31Z</time>
      </trkpt>
      <trkpt lat="42.10626" lon="2.7515252">
        <ele>176.0</ele>
        <time>2022-03-10T10:25:32Z</time>
      </trkpt>
      <trkpt lat="42.106255" lon="2.7515945">
        <ele>176.0</ele>
        <time>2022-03-10T10:25:33Z</time>
      </trkpt>
      <trkpt lat="42.106247" lon="2.751664">
        <ele>177.0</ele>
        <time>2022-03-10T10:25:34Z</time>
      </trkpt>
      <trkpt lat="42.106228" lon="2.7517283">
        <ele>178.0</ele>
        <time>2022-03-10T10:25:35Z</time>
      </trkpt>
      <trkpt lat="42.1062" lon="2.75179">
        <ele>178.0</ele>
        <time>2022-03-10T10:25:36Z</time>
      </trkpt>
      <trkpt lat="42.10616" lon="2.7518404">
        <ele>179.0</ele>
        <time>2022-03-10T10:25:37Z</time>
      </trkpt>
      <trkpt lat="42.10612" lon="2.7518759">
        <ele>180.0</ele>
        <time>2022-03-10T10:25:38Z</time>
      </trkpt>
      <trkpt lat="42.106068" lon="2.7518957">
        <ele>181.0</ele>
        <time>2022-03-10T10:25:39Z</time>
      </trkpt>
      <trkpt lat="42.106014" lon="2.7519014">
        <ele>182.0</ele>
        <time>2022-03-10T10:25:40Z</time>
      </trkpt>
      <trkpt lat="42.105957" lon="2.7518928">
        <ele>183.0</ele>
        <time>2022-03-10T10:25:41Z</time>
      </trkpt>
      <trkpt lat="42.105904" lon="2.7518704">
        <ele>183.0</ele>
        <time>2022-03-10T10:25:42Z</time>
      </trkpt>
      <trkpt lat="42.105843" lon="2.7518415">
        <ele>184.0</ele>
        <time>2022-03-10T10:25:43Z</time>
      </trkpt>
      <trkpt lat="42.105785" lon="2.7518115">
        <ele>184.0</ele>
        <time>2022-03-10T10:25:44Z</time>
      </trkpt>
      <trkpt lat="42.105724" lon="2.751786">
        <ele>184.0</ele>
        <time>2022-03-10T10:25:45Z</time>
      </trkpt>
      <trkpt lat="42.105667" lon="2.7517664">
        <ele>185.0</ele>
        <time>2022-03-10T10:25:46Z</time>
      </trkpt>
      <trkpt lat="42.10561" lon="2.7517545">
        <ele>185.0</ele>
        <time>2022-03-10T10:25:47Z</time>
      </trkpt>
      <trkpt lat="42.10555" lon="2.751756">
        <ele>186.0</ele>
        <time>2022-03-10T10:25:48Z</time>
      </trkpt>
      <trkpt lat="42.10549" lon="2.7517715">
        <ele>186.0</ele>
        <time>2022-03-10T10:25:49Z</time>
      </trkpt>
      <trkpt lat="42.105427" lon="2.7518022">
        <ele>187.0</ele>
        <time>2022-03-10T10:25:50Z</time>
      </trkpt>
      <trkpt lat="42.105366" lon="2.7518384">
        <ele>187.0</ele>
        <time>2022-03-10T10:25:51Z</time>
      </trkpt>
      <trkpt lat="42.105305" lon="2.7518814">
        <ele>188.0</ele>
        <time>2022-03-10T10:25:52Z</time>
      </trkpt>
      <trkpt lat="42.10524" lon="2.7519286">
        <ele>189.0</ele>
        <time>2022-03-10T10:25:53Z</time>
      </trkpt>
      <trkpt lat="42.105175" lon="2.7519836">
        <ele>189.0</ele>
        <time>2022-03-10T10:25:54Z</time>
      </trkpt>
      <trkpt lat="42.10511" lon="2.7520432">
        <ele>190.0</ele>
        <time>2022-03-10T10:25:55Z</time>
      </trkpt>
      <trkpt lat="42.105045" lon="2.752105">
        <ele>191.0</ele>
        <time>2022-03-10T10:25:57Z</time>
      </trkpt>
      <trkpt lat="42.104984" lon="2.7521703">
        <ele>191.0</ele>
        <time>2022-03-10T10:25:57Z</time>
      </trkpt>
      <trkpt lat="42.104923" lon="2.7522361">
        <ele>192.0</ele>
        <time>2022-03-10T10:25:58Z</time>
      </trkpt>
      <trkpt lat="42.10486" lon="2.7523015">
        <ele>193.0</ele>
        <time>2022-03-10T10:25:59Z</time>
      </trkpt>
      <trkpt lat="42.1048" lon="2.7523642">
        <ele>194.0</ele>
        <time>2022-03-10T10:26:00Z</time>
      </trkpt>
      <trkpt lat="42.104744" lon="2.7524278">
        <ele>194.0</ele>
        <time>2022-03-10T10:26:01Z</time>
      </trkpt>
      <trkpt lat="42.104694" lon="2.7524922">
        <ele>195.0</ele>
        <time>2022-03-10T10:26:02Z</time>
      </trkpt>
      <trkpt lat="42.10465" lon="2.752555">
        <ele>196.0</ele>
        <time>2022-03-10T10:26:03Z</time>
      </trkpt>
      <trkpt lat="42.104603" lon="2.7526188">
        <ele>197.0</ele>
        <time>2022-03-10T10:26:04Z</time>
      </trkpt>
      <trkpt lat="42.104565" lon="2.752684">
        <ele>197.0</ele>
        <time>2022-03-10T10:26:05Z</time>
      </trkpt>
      <trkpt lat="42.104527" lon="2.7527478">
        <ele>198.0</ele>
        <time>2022-03-10T10:26:06Z</time>
      </trkpt>
      <trkpt lat="42.104496" lon="2.752813">
        <ele>198.0</ele>
        <time>2022-03-10T10:26:07Z</time>
      </trkpt>
      <trkpt lat="42.10447" lon="2.752882">
        <ele>198.0</ele>
        <time>2022-03-10T10:26:08Z</time>
      </trkpt>
      <trkpt lat="42.104443" lon="2.752954">
        <ele>198.0</ele>
        <time>2022-03-10T10:26:09Z</time>
      </trkpt>
      <trkpt lat="42.104424" lon="2.753029">
        <ele>199.0</ele>
        <time>2022-03-10T10:26:10Z</time>
      </trkpt>
      <trkpt lat="42.104404" lon="2.7531083">
        <ele>199.0</ele>
        <time>2022-03-10T10:26:11Z</time>
      </trkpt>
      <trkpt lat="42.104393" lon="2.7531898">
        <ele>199.0</ele>
        <time>2022-03-10T10:26:12Z</time>
      </trkpt>
      <trkpt lat="42.104385" lon="2.753271">
        <ele>199.0</ele>
        <time>2022-03-10T10:26:13Z</time>
      </trkpt>
      <trkpt lat="42.104378" lon="2.7533505">
        <ele>199.0</ele>
        <time>2022-03-10T10:26:14Z</time>
      </trkpt>
      <trkpt lat="42.104374" lon="2.7534273">
        <ele>199.0</ele>
        <time>2022-03-10T10:26:15Z</time>
      </trkpt>
      <trkpt lat="42.10437" lon="2.7535002">
        <ele>199.0</ele>
        <time>2022-03-10T10:26:16Z</time>
      </trkpt>
      <trkpt lat="42.10437" lon="2.7535667">
        <ele>199.0</ele>
        <time>2022-03-10T10:26:17Z</time>
      </trkpt>
      <trkpt lat="42.10437" lon="2.7536316">
        <ele>199.0</ele>
        <time>2022-03-10T10:26:18Z</time>
      </trkpt>
      <trkpt lat="42.104366" lon="2.7536957">
        <ele>199.0</ele>
        <time>2022-03-10T10:26:19Z</time>
      </trkpt>
      <trkpt lat="42.10437" lon="2.75375">
        <ele>199.0</ele>
        <time>2022-03-10T10:26:20Z</time>
      </trkpt>
      <trkpt lat="42.10437" lon="2.753796">
        <ele>199.0</ele>
        <time>2022-03-10T10:26:21Z</time>
      </trkpt>
      <trkpt lat="42.104374" lon="2.7538326">
        <ele>199.0</ele>
        <time>2022-03-10T10:26:22Z</time>
      </trkpt>
      <trkpt lat="42.104378" lon="2.7538998">
        <ele>199.0</ele>
        <time>2022-03-10T10:26:24Z</time>
      </trkpt>
      <trkpt lat="42.104378" lon="2.753897">
        <ele>199.0</ele>
        <time>2022-03-10T10:26:25Z</time>
      </trkpt>
      <trkpt lat="42.104378" lon="2.7538896">
        <ele>199.0</ele>
        <time>2022-03-10T10:26:26Z</time>
      </trkpt>
      <trkpt lat="42.104378" lon="2.7538784">
        <ele>199.0</ele>
        <time>2022-03-10T10:26:27Z</time>
      </trkpt>
      <trkpt lat="42.104374" lon="2.753864">
        <ele>199.0</ele>
        <time>2022-03-10T10:26:28Z</time>
      </trkpt>
      <trkpt lat="42.10437" lon="2.753849">
        <ele>199.0</ele>
        <time>2022-03-10T10:26:29Z</time>
      </trkpt>
      <trkpt lat="42.10437" lon="2.753833">
        <ele>199.0</ele>
        <time>2022-03-10T10:26:30Z</time>
      </trkpt>
      <trkpt lat="42.10437" lon="2.7538183">
        <ele>199.0</ele>
        <time>2022-03-10T10:26:31Z</time>
      </trkpt>
      <trkpt lat="42.104366" lon="2.7538064">
        <ele>199.0</ele>
        <time>2022-03-10T10:26:32Z</time>
      </trkpt>
      <trkpt lat="42.104362" lon="2.7537968">
        <ele>199.0</ele>
        <time>2022-03-10T10:26:33Z</time>
      </trkpt>
      <trkpt lat="42.104355" lon="2.7537892">
        <ele>199.0</ele>
        <time>2022-03-10T10:26:35Z</time>
      </trkpt>
      <trkpt lat="42.104355" lon="2.7537827">
        <ele>199.0</ele>
        <time>2022-03-10T10:26:35Z</time>
      </trkpt>
      <trkpt lat="42.104347" lon="2.7537773">
        <ele>199.0</ele>
        <time>2022-03-10T10:26:36Z</time>
      </trkpt>
      <trkpt lat="42.10434" lon="2.7537615">
        <ele>199.0</ele>
        <time>2022-03-10T10:26:45Z</time>
      </trkpt>
      <trkpt lat="42.10434" lon="2.7537518">
        <ele>199.0</ele>
        <time>2022-03-10T10:26:46Z</time>
      </trkpt>
      <trkpt lat="42.104347" lon="2.7537289">
        <ele>199.0</ele>
        <time>2022-03-10T10:26:47Z</time>
      </trkpt>
      <trkpt lat="42.104347" lon="2.7536948">
        <ele>199.0</ele>
        <time>2022-03-10T10:26:48Z</time>
      </trkpt>
      <trkpt lat="42.10435" lon="2.75365">
        <ele>199.0</ele>
        <time>2022-03-10T10:26:49Z</time>
      </trkpt>
      <trkpt lat="42.104355" lon="2.7535927">
        <ele>199.0</ele>
        <time>2022-03-10T10:26:50Z</time>
      </trkpt>
      <trkpt lat="42.104355" lon="2.7535236">
        <ele>199.0</ele>
        <time>2022-03-10T10:26:51Z</time>
      </trkpt>
      <trkpt lat="42.10436" lon="2.7534442">
        <ele>199.0</ele>
        <time>2022-03-10T10:26:52Z</time>
      </trkpt>
      <trkpt lat="42.104362" lon="2.7533581">
        <ele>199.0</ele>
        <time>2022-03-10T10:26:53Z</time>
      </trkpt>
      <trkpt lat="42.104374" lon="2.7532687">
        <ele>199.0</ele>
        <time>2022-03-10T10:26:54Z</time>
      </trkpt>
      <trkpt lat="42.104385" lon="2.7531776">
        <ele>199.0</ele>
        <time>2022-03-10T10:26:55Z</time>
      </trkpt>
      <trkpt lat="42.10441" lon="2.7530887">
        <ele>199.0</ele>
        <time>2022-03-10T10:26:57Z</time>
      </trkpt>
      <trkpt lat="42.10443" lon="2.753">
        <ele>199.0</ele>
        <time>2022-03-10T10:26:57Z</time>
      </trkpt>
      <trkpt lat="42.10446" lon="2.752912">
        <ele>199.0</ele>
        <time>2022-03-10T10:26:58Z</time>
      </trkpt>
      <trkpt lat="42.104492" lon="2.7528253">
        <ele>199.0</ele>
        <time>2022-03-10T10:26:59Z</time>
      </trkpt>
      <trkpt lat="42.104527" lon="2.752741">
        <ele>198.0</ele>
        <time>2022-03-10T10:27:00Z</time>
      </trkpt>
      <trkpt lat="42.104572" lon="2.7526596">
        <ele>198.0</ele>
        <time>2022-03-10T10:27:01Z</time>
      </trkpt>
      <trkpt lat="42.104618" lon="2.7525792">
        <ele>197.0</ele>
        <time>2022-03-10T10:27:02Z</time>
      </trkpt>
      <trkpt lat="42.104668" lon="2.7525">
        <ele>197.0</ele>
        <time>2022-03-10T10:27:03Z</time>
      </trkpt>
      <trkpt lat="42.10473" lon="2.752422">
        <ele>196.0</ele>
        <time>2022-03-10T10:27:04Z</time>
      </trkpt>
      <trkpt lat="42.10479" lon="2.7523425">
        <ele>196.0</ele>
        <time>2022-03-10T10:27:05Z</time>
      </trkpt>
      <trkpt lat="42.10486" lon="2.7522619">
        <ele>195.0</ele>
        <time>2022-03-10T10:27:06Z</time>
      </trkpt>
      <trkpt lat="42.10493" lon="2.7521799">
        <ele>194.0</ele>
        <time>2022-03-10T10:27:07Z</time>
      </trkpt>
      <trkpt lat="42.105007" lon="2.7520993">
        <ele>193.0</ele>
        <time>2022-03-10T10:27:08Z</time>
      </trkpt>
      <trkpt lat="42.10508" lon="2.7520218">
        <ele>192.0</ele>
        <time>2022-03-10T10:27:09Z</time>
      </trkpt>
      <trkpt lat="42.105152" lon="2.7519507">
        <ele>191.0</ele>
        <time>2022-03-10T10:27:10Z</time>
      </trkpt>
      <trkpt lat="42.105217" lon="2.7518842">
        <ele>191.0</ele>
        <time>2022-03-10T10:27:11Z</time>
      </trkpt>
      <trkpt lat="42.105286" lon="2.7518237">
        <ele>190.0</ele>
        <time>2022-03-10T10:27:12Z</time>
      </trkpt>
      <trkpt lat="42.10535" lon="2.7517712">
        <ele>189.0</ele>
        <time>2022-03-10T10:27:13Z</time>
      </trkpt>
      <trkpt lat="42.10542" lon="2.75173">
        <ele>188.0</ele>
        <time>2022-03-10T10:27:14Z</time>
      </trkpt>
      <trkpt lat="42.105484" lon="2.7517014">
        <ele>187.0</ele>
        <time>2022-03-10T10:27:15Z</time>
      </trkpt>
      <trkpt lat="42.105553" lon="2.7516901">
        <ele>187.0</ele>
        <time>2022-03-10T10:27:16Z</time>
      </trkpt>
      <trkpt lat="42.105614" lon="2.751692">
        <ele>186.0</ele>
        <time>2022-03-10T10:27:17Z</time>
      </trkpt>
      <trkpt lat="42.10568" lon="2.7517061">
        <ele>185.0</ele>
        <time>2022-03-10T10:27:18Z</time>
      </trkpt>
      <trkpt lat="42.10574" lon="2.75173">
        <ele>185.0</ele>
        <time>2022-03-10T10:27:19Z</time>
      </trkpt>
      <trkpt lat="42.1058" lon="2.7517593">
        <ele>184.0</ele>
        <time>2022-03-10T10:27:20Z</time>
      </trkpt>
      <trkpt lat="42.105865" lon="2.7517917">
        <ele>184.0</ele>
        <time>2022-03-10T10:27:21Z</time>
      </trkpt>
      <trkpt lat="42.105927" lon="2.7518218">
        <ele>183.0</ele>
        <time>2022-03-10T10:27:22Z</time>
      </trkpt>
      <trkpt lat="42.10598" lon="2.7518458">
        <ele>183.0</ele>
        <time>2022-03-10T10:27:23Z</time>
      </trkpt>
      <trkpt lat="42.106033" lon="2.75186">
        <ele>182.0</ele>
        <time>2022-03-10T10:27:24Z</time>
      </trkpt>
      <trkpt lat="42.106087" lon="2.75186">
        <ele>182.0</ele>
        <time>2022-03-10T10:27:25Z</time>
      </trkpt>
      <trkpt lat="42.106133" lon="2.751842">
        <ele>181.0</ele>
        <time>2022-03-10T10:27:26Z</time>
      </trkpt>
      <trkpt lat="42.106167" lon="2.7518094">
        <ele>181.0</ele>
        <time>2022-03-10T10:27:27Z</time>
      </trkpt>
      <trkpt lat="42.106197" lon="2.7517672">
        <ele>180.0</ele>
        <time>2022-03-10T10:27:28Z</time>
      </trkpt>
      <trkpt lat="42.10622" lon="2.751727">
        <ele>179.0</ele>
        <time>2022-03-10T10:27:29Z</time>
      </trkpt>
      <trkpt lat="42.10624" lon="2.7516952">
        <ele>179.0</ele>
        <time>2022-03-10T10:27:30Z</time>
      </trkpt>
      <trkpt lat="42.106266" lon="2.7516403">
        <ele>178.0</ele>
        <time>2022-03-10T10:27:32Z</time>
      </trkpt>
      <trkpt lat="42.106266" lon="2.751641">
        <ele>178.0</ele>
        <time>2022-03-10T10:27:33Z</time>
      </trkpt>
      <trkpt lat="42.106266" lon="2.7516425">
        <ele>178.0</ele>
        <time>2022-03-10T10:27:34Z</time>
      </trkpt>
      <trkpt lat="42.106262" lon="2.751657">
        <ele>178.0</ele>
        <time>2022-03-10T10:27:38Z</time>
      </trkpt>
      <trkpt lat="42.106262" lon="2.7516608">
        <ele>178.0</ele>
        <time>2022-03-10T10:27:39Z</time>
      </trkpt>
      <trkpt lat="42.10626" lon="2.7516704">
        <ele>177.0</ele>
        <time>2022-03-10T10:27:40Z</time>
      </trkpt>
      <trkpt lat="42.106255" lon="2.751684">
        <ele>177.0</ele>
        <time>2022-03-10T10:27:41Z</time>
      </trkpt>
      <trkpt lat="42.10625" lon="2.7516983">
        <ele>177.0</ele>
        <time>2022-03-10T10:27:42Z</time>
      </trkpt>
      <trkpt lat="42.106247" lon="2.7517102">
        <ele>177.0</ele>
        <time>2022-03-10T10:27:43Z</time>
      </trkpt>
      <trkpt lat="42.106243" lon="2.7517197">
        <ele>177.0</ele>
        <time>2022-03-10T10:27:44Z</time>
      </trkpt>
      <trkpt lat="42.106247" lon="2.7517242">
        <ele>177.0</ele>
        <time>2022-03-10T10:27:45Z</time>
      </trkpt>
      <trkpt lat="42.10625" lon="2.7517262">
        <ele>177.0</ele>
        <time>2022-03-10T10:27:46Z</time>
      </trkpt>
      <trkpt lat="42.106262" lon="2.7517292">
        <ele>177.0</ele>
        <time>2022-03-10T10:27:47Z</time>
      </trkpt>
      <trkpt lat="42.106274" lon="2.751736">
        <ele>177.0</ele>
        <time>2022-03-10T10:27:48Z</time>
      </trkpt>
      <trkpt lat="42.10629" lon="2.751746">
        <ele>177.0</ele>
        <time>2022-03-10T10:27:49Z</time>
      </trkpt>
      <trkpt lat="42.106304" lon="2.751758">
        <ele>178.0</ele>
        <time>2022-03-10T10:27:50Z</time>
      </trkpt>
      <trkpt lat="42.106323" lon="2.7517729">
        <ele>178.0</ele>
        <time>2022-03-10T10:27:51Z</time>
      </trkpt>
      <trkpt lat="42.106346" lon="2.7517898">
        <ele>178.0</ele>
        <time>2022-03-10T10:27:52Z</time>
      </trkpt>
      <trkpt lat="42.10637" lon="2.7518094">
        <ele>178.0</ele>
        <time>2022-03-10T10:27:53Z</time>
      </trkpt>
      <trkpt lat="42.106396" lon="2.7518294">
        <ele>178.0</ele>
        <time>2022-03-10T10:27:54Z</time>
      </trkpt>
      <trkpt lat="42.106422" lon="2.7518487">
        <ele>179.0</ele>
        <time>2022-03-10T10:27:55Z</time>
      </trkpt>
      <trkpt lat="42.10645" lon="2.7518678">
        <ele>179.0</ele>
        <time>2022-03-10T10:27:57Z</time>
      </trkpt>
      <trkpt lat="42.106472" lon="2.7518864">
        <ele>179.0</ele>
        <time>2022-03-10T10:27:57Z</time>
      </trkpt>
      <trkpt lat="42.106495" lon="2.751905">
        <ele>179.0</ele>
        <time>2022-03-10T10:27:58Z</time>
      </trkpt>
      <trkpt lat="42.106518" lon="2.7519248">
        <ele>180.0</ele>
        <time>2022-03-10T10:27:59Z</time>
      </trkpt>
      <trkpt lat="42.106537" lon="2.7519436">
        <ele>180.0</ele>
        <time>2022-03-10T10:28:00Z</time>
      </trkpt>
      <trkpt lat="42.106556" lon="2.7519622">
        <ele>181.0</ele>
        <time>2022-03-10T10:28:01Z</time>
      </trkpt>
      <trkpt lat="42.10658" lon="2.751979">
        <ele>181.0</ele>
        <time>2022-03-10T10:28:02Z</time>
      </trkpt>
      <trkpt lat="42.106598" lon="2.7519948">
        <ele>181.0</ele>
        <time>2022-03-10T10:28:03Z</time>
      </trkpt>
      <trkpt lat="42.106617" lon="2.7520096">
        <ele>181.0</ele>
        <time>2022-03-10T10:28:03Z</time>
      </trkpt>
      <trkpt lat="42.106644" lon="2.7520235">
        <ele>182.0</ele>
        <time>2022-03-10T10:28:04Z</time>
      </trkpt>
      <trkpt lat="42.10667" lon="2.7520366">
        <ele>182.0</ele>
        <time>2022-03-10T10:28:05Z</time>
      </trkpt>
      <trkpt lat="42.106697" lon="2.752048">
        <ele>183.0</ele>
        <time>2022-03-10T10:28:06Z</time>
      </trkpt>
      <trkpt lat="42.106728" lon="2.7520583">
        <ele>183.0</ele>
        <time>2022-03-10T10:28:07Z</time>
      </trkpt>
      <trkpt lat="42.106754" lon="2.7520688">
        <ele>183.0</ele>
        <time>2022-03-10T10:28:08Z</time>
      </trkpt>
      <trkpt lat="42.106785" lon="2.7520783">
        <ele>184.0</ele>
        <time>2022-03-10T10:28:09Z</time>
      </trkpt>
      <trkpt lat="42.106815" lon="2.752087">
        <ele>184.0</ele>
        <time>2022-03-10T10:28:10Z</time>
      </trkpt>
      <trkpt lat="42.106846" lon="2.7520974">
        <ele>184.0</ele>
        <time>2022-03-10T10:28:11Z</time>
      </trkpt>
      <trkpt lat="42.10687" lon="2.7521098">
        <ele>184.0</ele>
        <time>2022-03-10T10:28:12Z</time>
      </trkpt>
      <trkpt lat="42.106895" lon="2.752123">
        <ele>185.0</ele>
        <time>2022-03-10T10:28:13Z</time>
      </trkpt>
      <trkpt lat="42.106915" lon="2.752137">
        <ele>185.0</ele>
        <time>2022-03-10T10:28:14Z</time>
      </trkpt>
      <trkpt lat="42.106934" lon="2.7521484">
        <ele>185.0</ele>
        <time>2022-03-10T10:28:15Z</time>
      </trkpt>
      <trkpt lat="42.106953" lon="2.7521605">
        <ele>185.0</ele>
        <time>2022-03-10T10:28:16Z</time>
      </trkpt>
      <trkpt lat="42.106964" lon="2.7521718">
        <ele>186.0</ele>
        <time>2022-03-10T10:28:17Z</time>
      </trkpt>
      <trkpt lat="42.106976" lon="2.7521827">
        <ele>186.0</ele>
        <time>2022-03-10T10:28:18Z</time>
      </trkpt>
      <trkpt lat="42.106987" lon="2.7521927">
        <ele>186.0</ele>
        <time>2022-03-10T10:28:19Z</time>
      </trkpt>
      <trkpt lat="42.107" lon="2.7522025">
        <ele>186.0</ele>
        <time>2022-03-10T10:28:20Z</time>
      </trkpt>
      <trkpt lat="42.107006" lon="2.7522118">
        <ele>186.0</ele>
        <time>2022-03-10T10:28:21Z</time>
      </trkpt>
      <trkpt lat="42.107014" lon="2.752223">
        <ele>187.0</ele>
        <time>2022-03-10T10:28:22Z</time>
      </trkpt>
      <trkpt lat="42.107025" lon="2.7522368">
        <ele>187.0</ele>
        <time>2022-03-10T10:28:23Z</time>
      </trkpt>
      <trkpt lat="42.10704" lon="2.7522516">
        <ele>187.0</ele>
        <time>2022-03-10T10:28:24Z</time>
      </trkpt>
      <trkpt lat="42.107048" lon="2.75227">
        <ele>187.0</ele>
        <time>2022-03-10T10:28:25Z</time>
      </trkpt>
      <trkpt lat="42.10706" lon="2.7522902">
        <ele>187.0</ele>
        <time>2022-03-10T10:28:26Z</time>
      </trkpt>
      <trkpt lat="42.107063" lon="2.7523143">
        <ele>187.0</ele>
        <time>2022-03-10T10:28:27Z</time>
      </trkpt>
      <trkpt lat="42.10707" lon="2.752342">
        <ele>187.0</ele>
        <time>2022-03-10T10:28:28Z</time>
      </trkpt>
      <trkpt lat="42.10707" lon="2.7523718">
        <ele>187.0</ele>
        <time>2022-03-10T10:28:29Z</time>
      </trkpt>
      <trkpt lat="42.10707" lon="2.7524028">
        <ele>187.0</ele>
        <time>2022-03-10T10:28:30Z</time>
      </trkpt>
      <trkpt lat="42.10707" lon="2.7524345">
        <ele>187.0</ele>
        <time>2022-03-10T10:28:31Z</time>
      </trkpt>
      <trkpt lat="42.107067" lon="2.752467">
        <ele>187.0</ele>
        <time>2022-03-10T10:28:32Z</time>
      </trkpt>
      <trkpt lat="42.107063" lon="2.7525005">
        <ele>187.0</ele>
        <time>2022-03-10T10:28:33Z</time>
      </trkpt>
      <trkpt lat="42.107063" lon="2.7525365">
        <ele>187.0</ele>
        <time>2022-03-10T10:28:34Z</time>
      </trkpt>
      <trkpt lat="42.10706" lon="2.7525744">
        <ele>188.0</ele>
        <time>2022-03-10T10:28:35Z</time>
      </trkpt>
      <trkpt lat="42.107056" lon="2.7526145">
        <ele>188.0</ele>
        <time>2022-03-10T10:28:36Z</time>
      </trkpt>
      <trkpt lat="42.107048" lon="2.7526567">
        <ele>188.0</ele>
        <time>2022-03-10T10:28:37Z</time>
      </trkpt>
      <trkpt lat="42.107048" lon="2.7527008">
        <ele>188.0</ele>
        <time>2022-03-10T10:28:38Z</time>
      </trkpt>
      <trkpt lat="42.10704" lon="2.7527468">
        <ele>188.0</ele>
        <time>2022-03-10T10:28:39Z</time>
      </trkpt>
      <trkpt lat="42.107037" lon="2.752794">
        <ele>188.0</ele>
        <time>2022-03-10T10:28:40Z</time>
      </trkpt>
      <trkpt lat="42.107033" lon="2.7528393">
        <ele>188.0</ele>
        <time>2022-03-10T10:28:41Z</time>
      </trkpt>
      <trkpt lat="42.107025" lon="2.7528849">
        <ele>188.0</ele>
        <time>2022-03-10T10:28:42Z</time>
      </trkpt>
      <trkpt lat="42.107018" lon="2.7529292">
        <ele>188.0</ele>
        <time>2022-03-10T10:28:43Z</time>
      </trkpt>
      <trkpt lat="42.107006" lon="2.7529714">
        <ele>188.0</ele>
        <time>2022-03-10T10:28:44Z</time>
      </trkpt>
      <trkpt lat="42.107" lon="2.7530112">
        <ele>188.0</ele>
        <time>2022-03-10T10:28:45Z</time>
      </trkpt>
      <trkpt lat="42.106995" lon="2.7530503">
        <ele>189.0</ele>
        <time>2022-03-10T10:28:46Z</time>
      </trkpt>
      <trkpt lat="42.10699" lon="2.7530892">
        <ele>189.0</ele>
        <time>2022-03-10T10:28:47Z</time>
      </trkpt>
      <trkpt lat="42.10699" lon="2.7531285">
        <ele>189.0</ele>
        <time>2022-03-10T10:28:48Z</time>
      </trkpt>
      <trkpt lat="42.10699" lon="2.7531686">
        <ele>189.0</ele>
        <time>2022-03-10T10:28:49Z</time>
      </trkpt>
      <trkpt lat="42.106987" lon="2.7532103">
        <ele>189.0</ele>
        <time>2022-03-10T10:28:50Z</time>
      </trkpt>
      <trkpt lat="42.106983" lon="2.7532523">
        <ele>189.0</ele>
        <time>2022-03-10T10:28:51Z</time>
      </trkpt>
      <trkpt lat="42.106983" lon="2.7532938">
        <ele>189.0</ele>
        <time>2022-03-10T10:28:52Z</time>
      </trkpt>
      <trkpt lat="42.10698" lon="2.7533357">
        <ele>189.0</ele>
        <time>2022-03-10T10:28:53Z</time>
      </trkpt>
      <trkpt lat="42.106976" lon="2.7533772">
        <ele>189.0</ele>
        <time>2022-03-10T10:28:54Z</time>
      </trkpt>
      <trkpt lat="42.106976" lon="2.75342">
        <ele>189.0</ele>
        <time>2022-03-10T10:28:56Z</time>
      </trkpt>
      <trkpt lat="42.106976" lon="2.7534642">
        <ele>189.0</ele>
        <time>2022-03-10T10:28:56Z</time>
      </trkpt>
      <trkpt lat="42.106976" lon="2.7535076">
        <ele>189.0</ele>
        <time>2022-03-10T10:28:57Z</time>
      </trkpt>
      <trkpt lat="42.106976" lon="2.7535524">
        <ele>189.0</ele>
        <time>2022-03-10T10:28:58Z</time>
      </trkpt>
      <trkpt lat="42.106976" lon="2.7536013">
        <ele>190.0</ele>
        <time>2022-03-10T10:28:59Z</time>
      </trkpt>
      <trkpt lat="42.106976" lon="2.7536528">
        <ele>190.0</ele>
        <time>2022-03-10T10:29:00Z</time>
      </trkpt>
      <trkpt lat="42.10698" lon="2.753707">
        <ele>190.0</ele>
        <time>2022-03-10T10:29:01Z</time>
      </trkpt>
      <trkpt lat="42.10698" lon="2.7537632">
        <ele>190.0</ele>
        <time>2022-03-10T10:29:02Z</time>
      </trkpt>
      <trkpt lat="42.10698" lon="2.7538192">
        <ele>190.0</ele>
        <time>2022-03-10T10:29:03Z</time>
      </trkpt>
      <trkpt lat="42.10698" lon="2.7538784">
        <ele>190.0</ele>
        <time>2022-03-10T10:29:04Z</time>
      </trkpt>
      <trkpt lat="42.106976" lon="2.753936">
        <ele>190.0</ele>
        <time>2022-03-10T10:29:05Z</time>
      </trkpt>
      <trkpt lat="42.106976" lon="2.753992">
        <ele>190.0</ele>
        <time>2022-03-10T10:29:06Z</time>
      </trkpt>
      <trkpt lat="42.106968" lon="2.7540455">
        <ele>190.0</ele>
        <time>2022-03-10T10:29:07Z</time>
      </trkpt>
      <trkpt lat="42.10696" lon="2.754098">
        <ele>190.0</ele>
        <time>2022-03-10T10:29:08Z</time>
      </trkpt>
      <trkpt lat="42.106953" lon="2.754151">
        <ele>190.0</ele>
        <time>2022-03-10T10:29:09Z</time>
      </trkpt>
      <trkpt lat="42.10694" lon="2.7542028">
        <ele>190.0</ele>
        <time>2022-03-10T10:29:10Z</time>
      </trkpt>
      <trkpt lat="42.10693" lon="2.7542522">
        <ele>190.0</ele>
        <time>2022-03-10T10:29:11Z</time>
      </trkpt>
      <trkpt lat="42.106922" lon="2.7542992">
        <ele>190.0</ele>
        <time>2022-03-10T10:29:12Z</time>
      </trkpt>
      <trkpt lat="42.106915" lon="2.7543414">
        <ele>190.0</ele>
        <time>2022-03-10T10:29:13Z</time>
      </trkpt>
      <trkpt lat="42.106907" lon="2.7543778">
        <ele>190.0</ele>
        <time>2022-03-10T10:29:14Z</time>
      </trkpt>
      <trkpt lat="42.106907" lon="2.7544096">
        <ele>190.0</ele>
        <time>2022-03-10T10:29:15Z</time>
      </trkpt>
      <trkpt lat="42.106907" lon="2.7544365">
        <ele>189.0</ele>
        <time>2022-03-10T10:29:16Z</time>
      </trkpt>
      <trkpt lat="42.106907" lon="2.7544606">
        <ele>189.0</ele>
        <time>2022-03-10T10:29:17Z</time>
      </trkpt>
      <trkpt lat="42.106907" lon="2.754483">
        <ele>189.0</ele>
        <time>2022-03-10T10:29:18Z</time>
      </trkpt>
      <trkpt lat="42.106903" lon="2.7545054">
        <ele>189.0</ele>
        <time>2022-03-10T10:29:19Z</time>
      </trkpt>
      <trkpt lat="42.106903" lon="2.7545273">
        <ele>189.0</ele>
        <time>2022-03-10T10:29:20Z</time>
      </trkpt>
      <trkpt lat="42.1069" lon="2.754548">
        <ele>189.0</ele>
        <time>2022-03-10T10:29:21Z</time>
      </trkpt>
      <trkpt lat="42.1069" lon="2.7545674">
        <ele>188.0</ele>
        <time>2022-03-10T10:29:22Z</time>
      </trkpt>
      <trkpt lat="42.10689" lon="2.7545834">
        <ele>188.0</ele>
        <time>2022-03-10T10:29:23Z</time>
      </trkpt>
      <trkpt lat="42.106888" lon="2.7545974">
        <ele>188.0</ele>
        <time>2022-03-10T10:29:24Z</time>
      </trkpt>
      <trkpt lat="42.106884" lon="2.7546098">
        <ele>188.0</ele>
        <time>2022-03-10T10:29:25Z</time>
      </trkpt>
      <trkpt lat="42.106876" lon="2.7546215">
        <ele>188.0</ele>
        <time>2022-03-10T10:29:26Z</time>
      </trkpt>
      <trkpt lat="42.106865" lon="2.754631">
        <ele>188.0</ele>
        <time>2022-03-10T10:29:27Z</time>
      </trkpt>
      <trkpt lat="42.106853" lon="2.7546403">
        <ele>187.0</ele>
        <time>2022-03-10T10:29:28Z</time>
      </trkpt>
      <trkpt lat="42.10684" lon="2.7546506">
        <ele>187.0</ele>
        <time>2022-03-10T10:29:29Z</time>
      </trkpt>
      <trkpt lat="42.106823" lon="2.7546613">
        <ele>187.0</ele>
        <time>2022-03-10T10:29:30Z</time>
      </trkpt>
      <trkpt lat="42.106808" lon="2.7546747">
        <ele>187.0</ele>
        <time>2022-03-10T10:29:31Z</time>
      </trkpt>
      <trkpt lat="42.10679" lon="2.75469">
        <ele>186.0</ele>
        <time>2022-03-10T10:29:32Z</time>
      </trkpt>
      <trkpt lat="42.106773" lon="2.7547088">
        <ele>186.0</ele>
        <time>2022-03-10T10:29:33Z</time>
      </trkpt>
      <trkpt lat="42.10676" lon="2.7547324">
        <ele>186.0</ele>
        <time>2022-03-10T10:29:34Z</time>
      </trkpt>
      <trkpt lat="42.10674" lon="2.75476">
        <ele>186.0</ele>
        <time>2022-03-10T10:29:35Z</time>
      </trkpt>
      <trkpt lat="42.106724" lon="2.75479">
        <ele>186.0</ele>
        <time>2022-03-10T10:29:36Z</time>
      </trkpt>
      <trkpt lat="42.10671" lon="2.7548249">
        <ele>186.0</ele>
        <time>2022-03-10T10:29:37Z</time>
      </trkpt>
      <trkpt lat="42.106697" lon="2.7548614">
        <ele>185.0</ele>
        <time>2022-03-10T10:29:38Z</time>
      </trkpt>
      <trkpt lat="42.106686" lon="2.7549002">
        <ele>185.0</ele>
        <time>2022-03-10T10:29:39Z</time>
      </trkpt>
      <trkpt lat="42.106678" lon="2.7549403">
        <ele>185.0</ele>
        <time>2022-03-10T10:29:40Z</time>
      </trkpt>
      <trkpt lat="42.106667" lon="2.754982">
        <ele>185.0</ele>
        <time>2022-03-10T10:29:41Z</time>
      </trkpt>
      <trkpt lat="42.10666" lon="2.755025">
        <ele>185.0</ele>
        <time>2022-03-10T10:29:42Z</time>
      </trkpt>
      <trkpt lat="42.10665" lon="2.7550662">
        <ele>185.0</ele>
        <time>2022-03-10T10:29:43Z</time>
      </trkpt>
      <trkpt lat="42.106644" lon="2.755105">
        <ele>185.0</ele>
        <time>2022-03-10T10:29:44Z</time>
      </trkpt>
      <trkpt lat="42.10664" lon="2.75514">
        <ele>184.0</ele>
        <time>2022-03-10T10:29:45Z</time>
      </trkpt>
      <trkpt lat="42.10663" lon="2.7551732">
        <ele>184.0</ele>
        <time>2022-03-10T10:29:46Z</time>
      </trkpt>
      <trkpt lat="42.106625" lon="2.7552042">
        <ele>184.0</ele>
        <time>2022-03-10T10:29:47Z</time>
      </trkpt>
      <trkpt lat="42.106617" lon="2.7552345">
        <ele>184.0</ele>
        <time>2022-03-10T10:29:48Z</time>
      </trkpt>
      <trkpt lat="42.10661" lon="2.7552662">
        <ele>184.0</ele>
        <time>2022-03-10T10:29:49Z</time>
      </trkpt>
      <trkpt lat="42.1066" lon="2.7552996">
        <ele>184.0</ele>
        <time>2022-03-10T10:29:50Z</time>
      </trkpt>
      <trkpt lat="42.106594" lon="2.7553363">
        <ele>184.0</ele>
        <time>2022-03-10T10:29:51Z</time>
      </trkpt>
      <trkpt lat="42.106586" lon="2.7553775">
        <ele>184.0</ele>
        <time>2022-03-10T10:29:52Z</time>
      </trkpt>
      <trkpt lat="42.106583" lon="2.7554219">
        <ele>184.0</ele>
        <time>2022-03-10T10:29:53Z</time>
      </trkpt>
      <trkpt lat="42.106575" lon="2.7554693">
        <ele>184.0</ele>
        <time>2022-03-10T10:29:54Z</time>
      </trkpt>
      <trkpt lat="42.10657" lon="2.75552">
        <ele>184.0</ele>
        <time>2022-03-10T10:29:56Z</time>
      </trkpt>
      <trkpt lat="42.106564" lon="2.7555735">
        <ele>184.0</ele>
        <time>2022-03-10T10:29:56Z</time>
      </trkpt>
      <trkpt lat="42.106556" lon="2.7556295">
        <ele>184.0</ele>
        <time>2022-03-10T10:29:57Z</time>
      </trkpt>
      <trkpt lat="42.106544" lon="2.7556825">
        <ele>184.0</ele>
        <time>2022-03-10T10:29:58Z</time>
      </trkpt>
      <trkpt lat="42.106533" lon="2.7557328">
        <ele>184.0</ele>
        <time>2022-03-10T10:29:59Z</time>
      </trkpt>
      <trkpt lat="42.10652" lon="2.7557807">
        <ele>184.0</ele>
        <time>2022-03-10T10:30:00Z</time>
      </trkpt>
      <trkpt lat="42.10651" lon="2.755825">
        <ele>184.0</ele>
        <time>2022-03-10T10:30:01Z</time>
      </trkpt>
      <trkpt lat="42.106495" lon="2.7558668">
        <ele>184.0</ele>
        <time>2022-03-10T10:30:02Z</time>
      </trkpt>
      <trkpt lat="42.106483" lon="2.7559075">
        <ele>184.0</ele>
        <time>2022-03-10T10:30:03Z</time>
      </trkpt>
      <trkpt lat="42.106472" lon="2.7559452">
        <ele>184.0</ele>
        <time>2022-03-10T10:30:04Z</time>
      </trkpt>
      <trkpt lat="42.10646" lon="2.7559788">
        <ele>184.0</ele>
        <time>2022-03-10T10:30:05Z</time>
      </trkpt>
      <trkpt lat="42.10645" lon="2.7560117">
        <ele>184.0</ele>
        <time>2022-03-10T10:30:06Z</time>
      </trkpt>
      <trkpt lat="42.10644" lon="2.7560444">
        <ele>184.0</ele>
        <time>2022-03-10T10:30:07Z</time>
      </trkpt>
      <trkpt lat="42.10643" lon="2.756076">
        <ele>184.0</ele>
        <time>2022-03-10T10:30:08Z</time>
      </trkpt>
      <trkpt lat="42.106422" lon="2.7561078">
        <ele>184.0</ele>
        <time>2022-03-10T10:30:09Z</time>
      </trkpt>
      <trkpt lat="42.106407" lon="2.7561398">
        <ele>184.0</ele>
        <time>2022-03-10T10:30:10Z</time>
      </trkpt>
      <trkpt lat="42.106396" lon="2.7561734">
        <ele>184.0</ele>
        <time>2022-03-10T10:30:11Z</time>
      </trkpt>
      <trkpt lat="42.106384" lon="2.7562113">
        <ele>184.0</ele>
        <time>2022-03-10T10:30:12Z</time>
      </trkpt>
      <trkpt lat="42.106377" lon="2.7562551">
        <ele>184.0</ele>
        <time>2022-03-10T10:30:13Z</time>
      </trkpt>
      <trkpt lat="42.10637" lon="2.7563057">
        <ele>184.0</ele>
        <time>2022-03-10T10:30:14Z</time>
      </trkpt>
      <trkpt lat="42.10636" lon="2.7563596">
        <ele>184.0</ele>
        <time>2022-03-10T10:30:15Z</time>
      </trkpt>
      <trkpt lat="42.106358" lon="2.7564154">
        <ele>184.0</ele>
        <time>2022-03-10T10:30:16Z</time>
      </trkpt>
      <trkpt lat="42.106354" lon="2.7564697">
        <ele>184.0</ele>
        <time>2022-03-10T10:30:17Z</time>
      </trkpt>
      <trkpt lat="42.10635" lon="2.756522">
        <ele>184.0</ele>
        <time>2022-03-10T10:30:18Z</time>
      </trkpt>
      <trkpt lat="42.106346" lon="2.7565706">
        <ele>184.0</ele>
        <time>2022-03-10T10:30:19Z</time>
      </trkpt>
      <trkpt lat="42.106342" lon="2.7566183">
        <ele>184.0</ele>
        <time>2022-03-10T10:30:20Z</time>
      </trkpt>
      <trkpt lat="42.106335" lon="2.756666">
        <ele>184.0</ele>
        <time>2022-03-10T10:30:21Z</time>
      </trkpt>
      <trkpt lat="42.10633" lon="2.7567146">
        <ele>183.0</ele>
        <time>2022-03-10T10:30:22Z</time>
      </trkpt>
      <trkpt lat="42.106323" lon="2.7567642">
        <ele>183.0</ele>
        <time>2022-03-10T10:30:23Z</time>
      </trkpt>
      <trkpt lat="42.106316" lon="2.7568135">
        <ele>183.0</ele>
        <time>2022-03-10T10:30:24Z</time>
      </trkpt>
      <trkpt lat="42.10631" lon="2.7568595">
        <ele>183.0</ele>
        <time>2022-03-10T10:30:25Z</time>
      </trkpt>
      <trkpt lat="42.106308" lon="2.7569027">
        <ele>182.0</ele>
        <time>2022-03-10T10:30:26Z</time>
      </trkpt>
      <trkpt lat="42.106304" lon="2.7569401">
        <ele>182.0</ele>
        <time>2022-03-10T10:30:27Z</time>
      </trkpt>
      <trkpt lat="42.106304" lon="2.7569735">
        <ele>181.0</ele>
        <time>2022-03-10T10:30:28Z</time>
      </trkpt>
      <trkpt lat="42.106308" lon="2.7570074">
        <ele>181.0</ele>
        <time>2022-03-10T10:30:29Z</time>
      </trkpt>
      <trkpt lat="42.106316" lon="2.7570438">
        <ele>180.0</ele>
        <time>2022-03-10T10:30:30Z</time>
      </trkpt>
      <trkpt lat="42.106327" lon="2.7570868">
        <ele>180.0</ele>
        <time>2022-03-10T10:30:31Z</time>
      </trkpt>
      <trkpt lat="42.106346" lon="2.7571356">
        <ele>179.0</ele>
        <time>2022-03-10T10:30:32Z</time>
      </trkpt>
      <trkpt lat="42.10636" lon="2.757191">
        <ele>179.0</ele>
        <time>2022-03-10T10:30:33Z</time>
      </trkpt>
      <trkpt lat="42.106384" lon="2.7572498">
        <ele>178.0</ele>
        <time>2022-03-10T10:30:34Z</time>
      </trkpt>
      <trkpt lat="42.10641" lon="2.7573123">
        <ele>178.0</ele>
        <time>2022-03-10T10:30:35Z</time>
      </trkpt>
      <trkpt lat="42.10644" lon="2.7573786">
        <ele>177.0</ele>
        <time>2022-03-10T10:30:36Z</time>
      </trkpt>
      <trkpt lat="42.106472" lon="2.7574487">
        <ele>176.0</ele>
        <time>2022-03-10T10:30:37Z</time>
      </trkpt>
      <trkpt lat="42.106495" lon="2.7575233">
        <ele>175.0</ele>
        <time>2022-03-10T10:30:38Z</time>
      </trkpt>
      <trkpt lat="42.106518" lon="2.7576005">
        <ele>174.0</ele>
        <time>2022-03-10T10:30:39Z</time>
      </trkpt>
      <trkpt lat="42.106533" lon="2.7576833">
        <ele>173.0</ele>
        <time>2022-03-10T10:30:40Z</time>
      </trkpt>
      <trkpt lat="42.106552" lon="2.7577693">
        <ele>172.0</ele>
        <time>2022-03-10T10:30:41Z</time>
      </trkpt>
      <trkpt lat="42.106564" lon="2.7578576">
        <ele>170.0</ele>
        <time>2022-03-10T10:30:42Z</time>
      </trkpt>
      <trkpt lat="42.10658" lon="2.7579465">
        <ele>169.0</ele>
        <time>2022-03-10T10:30:43Z</time>
      </trkpt>
      <trkpt lat="42.106594" lon="2.7580304">
        <ele>168.0</ele>
        <time>2022-03-10T10:30:44Z</time>
      </trkpt>
      <trkpt lat="42.10661" lon="2.7581072">
        <ele>166.0</ele>
        <time>2022-03-10T10:30:45Z</time>
      </trkpt>
      <trkpt lat="42.106617" lon="2.7581766">
        <ele>165.0</ele>
        <time>2022-03-10T10:30:46Z</time>
      </trkpt>
      <trkpt lat="42.106617" lon="2.7582402">
        <ele>164.0</ele>
        <time>2022-03-10T10:30:47Z</time>
      </trkpt>
      <trkpt lat="42.1066" lon="2.7582972">
        <ele>164.0</ele>
        <time>2022-03-10T10:30:48Z</time>
      </trkpt>
      <trkpt lat="42.10658" lon="2.7583492">
        <ele>163.0</ele>
        <time>2022-03-10T10:30:49Z</time>
      </trkpt>
      <trkpt lat="42.10655" lon="2.7583988">
        <ele>163.0</ele>
        <time>2022-03-10T10:30:50Z</time>
      </trkpt>
      <trkpt lat="42.106506" lon="2.7584493">
        <ele>162.0</ele>
        <time>2022-03-10T10:30:51Z</time>
      </trkpt>
      <trkpt lat="42.106457" lon="2.758499">
        <ele>162.0</ele>
        <time>2022-03-10T10:30:52Z</time>
      </trkpt>
      <trkpt lat="42.1064" lon="2.7585466">
        <ele>162.0</ele>
        <time>2022-03-10T10:30:53Z</time>
      </trkpt>
      <trkpt lat="42.10634" lon="2.7585895">
        <ele>162.0</ele>
        <time>2022-03-10T10:30:54Z</time>
      </trkpt>
      <trkpt lat="42.106274" lon="2.758627">
        <ele>162.0</ele>
        <time>2022-03-10T10:30:56Z</time>
      </trkpt>
      <trkpt lat="42.106197" lon="2.7586591">
        <ele>161.0</ele>
        <time>2022-03-10T10:30:56Z</time>
      </trkpt>
      <trkpt lat="42.106125" lon="2.758688">
        <ele>161.0</ele>
        <time>2022-03-10T10:30:57Z</time>
      </trkpt>
      <trkpt lat="42.106052" lon="2.7587135">
        <ele>161.0</ele>
        <time>2022-03-10T10:30:58Z</time>
      </trkpt>
      <trkpt lat="42.105972" lon="2.7587383">
        <ele>161.0</ele>
        <time>2022-03-10T10:30:59Z</time>
      </trkpt>
      <trkpt lat="42.105904" lon="2.7587616">
        <ele>161.0</ele>
        <time>2022-03-10T10:31:00Z</time>
      </trkpt>
      <trkpt lat="42.10583" lon="2.7587817">
        <ele>161.0</ele>
        <time>2022-03-10T10:31:01Z</time>
      </trkpt>
      <trkpt lat="42.10577" lon="2.7588007">
        <ele>160.0</ele>
        <time>2022-03-10T10:31:02Z</time>
      </trkpt>
      <trkpt lat="42.10571" lon="2.7588232">
        <ele>159.0</ele>
        <time>2022-03-10T10:31:03Z</time>
      </trkpt>
      <trkpt lat="42.105656" lon="2.758857">
        <ele>159.0</ele>
        <time>2022-03-10T10:31:04Z</time>
      </trkpt>
      <trkpt lat="42.105606" lon="2.7589066">
        <ele>158.0</ele>
        <time>2022-03-10T10:31:05Z</time>
      </trkpt>
      <trkpt lat="42.105553" lon="2.758975">
        <ele>158.0</ele>
        <time>2022-03-10T10:31:06Z</time>
      </trkpt>
      <trkpt lat="42.105503" lon="2.7590442">
        <ele>158.0</ele>
        <time>2022-03-10T10:31:07Z</time>
      </trkpt>
      <trkpt lat="42.105453" lon="2.7591126">
        <ele>157.0</ele>
        <time>2022-03-10T10:31:08Z</time>
      </trkpt>
      <trkpt lat="42.105404" lon="2.7591767">
        <ele>157.0</ele>
        <time>2022-03-10T10:31:09Z</time>
      </trkpt>
      <trkpt lat="42.10535" lon="2.7592323">
        <ele>156.0</ele>
        <time>2022-03-10T10:31:10Z</time>
      </trkpt>
      <trkpt lat="42.105305" lon="2.7592752">
        <ele>156.0</ele>
        <time>2022-03-10T10:31:11Z</time>
      </trkpt>
      <trkpt lat="42.10525" lon="2.7593036">
        <ele>156.0</ele>
        <time>2022-03-10T10:31:12Z</time>
      </trkpt>
      <trkpt lat="42.1052" lon="2.759319">
        <ele>156.0</ele>
        <time>2022-03-10T10:31:13Z</time>
      </trkpt>
      <trkpt lat="42.10515" lon="2.759327">
        <ele>156.0</ele>
        <time>2022-03-10T10:31:14Z</time>
      </trkpt>
      <trkpt lat="42.105087" lon="2.7593322">
        <ele>156.0</ele>
        <time>2022-03-10T10:31:15Z</time>
      </trkpt>
      <trkpt lat="42.10503" lon="2.7593396">
        <ele>156.0</ele>
        <time>2022-03-10T10:31:16Z</time>
      </trkpt>
      <trkpt lat="42.10497" lon="2.7593484">
        <ele>156.0</ele>
        <time>2022-03-10T10:31:17Z</time>
      </trkpt>
      <trkpt lat="42.104908" lon="2.75936">
        <ele>156.0</ele>
        <time>2022-03-10T10:31:18Z</time>
      </trkpt>
      <trkpt lat="42.10485" lon="2.7593725">
        <ele>156.0</ele>
        <time>2022-03-10T10:31:19Z</time>
      </trkpt>
      <trkpt lat="42.10479" lon="2.7593853">
        <ele>156.0</ele>
        <time>2022-03-10T10:31:20Z</time>
      </trkpt>
      <trkpt lat="42.104733" lon="2.7594013">
        <ele>156.0</ele>
        <time>2022-03-10T10:31:21Z</time>
      </trkpt>
      <trkpt lat="42.10467" lon="2.7594182">
        <ele>156.0</ele>
        <time>2022-03-10T10:31:22Z</time>
      </trkpt>
      <trkpt lat="42.10461" lon="2.7594368">
        <ele>156.0</ele>
        <time>2022-03-10T10:31:23Z</time>
      </trkpt>
      <trkpt lat="42.10455" lon="2.7594554">
        <ele>156.0</ele>
        <time>2022-03-10T10:31:24Z</time>
      </trkpt>
      <trkpt lat="42.104485" lon="2.7594745">
        <ele>156.0</ele>
        <time>2022-03-10T10:31:25Z</time>
      </trkpt>
      <trkpt lat="42.104424" lon="2.759495">
        <ele>156.0</ele>
        <time>2022-03-10T10:31:26Z</time>
      </trkpt>
      <trkpt lat="42.104362" lon="2.7595162">
        <ele>156.0</ele>
        <time>2022-03-10T10:31:27Z</time>
      </trkpt>
      <trkpt lat="42.10429" lon="2.7595387">
        <ele>156.0</ele>
        <time>2022-03-10T10:31:28Z</time>
      </trkpt>
      <trkpt lat="42.10422" lon="2.759563">
        <ele>155.0</ele>
        <time>2022-03-10T10:31:29Z</time>
      </trkpt>
      <trkpt lat="42.104153" lon="2.7595866">
        <ele>155.0</ele>
        <time>2022-03-10T10:31:30Z</time>
      </trkpt>
      <trkpt lat="42.10408" lon="2.7596092">
        <ele>155.0</ele>
        <time>2022-03-10T10:31:31Z</time>
      </trkpt>
      <trkpt lat="42.10402" lon="2.759628">
        <ele>155.0</ele>
        <time>2022-03-10T10:31:32Z</time>
      </trkpt>
      <trkpt lat="42.10396" lon="2.7596426">
        <ele>155.0</ele>
        <time>2022-03-10T10:31:33Z</time>
      </trkpt>
      <trkpt lat="42.103897" lon="2.7596521">
        <ele>154.0</ele>
        <time>2022-03-10T10:31:34Z</time>
      </trkpt>
      <trkpt lat="42.10384" lon="2.7596586">
        <ele>154.0</ele>
        <time>2022-03-10T10:31:35Z</time>
      </trkpt>
      <trkpt lat="42.10379" lon="2.7596626">
        <ele>154.0</ele>
        <time>2022-03-10T10:31:36Z</time>
      </trkpt>
      <trkpt lat="42.10374" lon="2.7596624">
        <ele>154.0</ele>
        <time>2022-03-10T10:31:37Z</time>
      </trkpt>
      <trkpt lat="42.1037" lon="2.7596586">
        <ele>154.0</ele>
        <time>2022-03-10T10:31:38Z</time>
      </trkpt>
      <trkpt lat="42.103653" lon="2.759651">
        <ele>154.0</ele>
        <time>2022-03-10T10:31:40Z</time>
      </trkpt>
      <trkpt lat="42.103615" lon="2.7596393">
        <ele>154.0</ele>
        <time>2022-03-10T10:31:40Z</time>
      </trkpt>
      <trkpt lat="42.10358" lon="2.7596233">
        <ele>154.0</ele>
        <time>2022-03-10T10:31:41Z</time>
      </trkpt>
      <trkpt lat="42.10355" lon="2.7596033">
        <ele>154.0</ele>
        <time>2022-03-10T10:31:42Z</time>
      </trkpt>
      <trkpt lat="42.10352" lon="2.7595792">
        <ele>154.0</ele>
        <time>2022-03-10T10:31:43Z</time>
      </trkpt>
      <trkpt lat="42.10349" lon="2.759554">
        <ele>154.0</ele>
        <time>2022-03-10T10:31:45Z</time>
      </trkpt>
      <trkpt lat="42.103466" lon="2.7595277">
        <ele>154.0</ele>
        <time>2022-03-10T10:31:46Z</time>
      </trkpt>
      <trkpt lat="42.103447" lon="2.759497">
        <ele>154.0</ele>
        <time>2022-03-10T10:31:47Z</time>
      </trkpt>
      <trkpt lat="42.10343" lon="2.7594676">
        <ele>154.0</ele>
        <time>2022-03-10T10:31:48Z</time>
      </trkpt>
      <trkpt lat="42.103424" lon="2.7594426">
        <ele>154.0</ele>
        <time>2022-03-10T10:31:49Z</time>
      </trkpt>
      <trkpt lat="42.103416" lon="2.7594256">
        <ele>154.0</ele>
        <time>2022-03-10T10:31:50Z</time>
      </trkpt>
      <trkpt lat="42.103413" lon="2.7594163">
        <ele>154.0</ele>
        <time>2022-03-10T10:31:51Z</time>
      </trkpt>
      <trkpt lat="42.103413" lon="2.7594135">
        <ele>154.0</ele>
        <time>2022-03-10T10:31:51Z</time>
      </trkpt>
      <trkpt lat="42.10341" lon="2.7594147">
        <ele>154.0</ele>
        <time>2022-03-10T10:31:52Z</time>
      </trkpt>
      <trkpt lat="42.103405" lon="2.7594175">
        <ele>154.0</ele>
        <time>2022-03-10T10:31:54Z</time>
      </trkpt>
      <trkpt lat="42.103405" lon="2.7594213">
        <ele>154.0</ele>
        <time>2022-03-10T10:31:55Z</time>
      </trkpt>
      <trkpt lat="42.103405" lon="2.759425">
        <ele>154.0</ele>
        <time>2022-03-10T10:31:56Z</time>
      </trkpt>
      <trkpt lat="42.103405" lon="2.7594275">
        <ele>154.0</ele>
        <time>2022-03-10T10:31:57Z</time>
      </trkpt>
      <trkpt lat="42.103405" lon="2.7594314">
        <ele>154.0</ele>
        <time>2022-03-10T10:31:58Z</time>
      </trkpt>
      <trkpt lat="42.103413" lon="2.7594385">
        <ele>154.0</ele>
        <time>2022-03-10T10:31:59Z</time>
      </trkpt>
      <trkpt lat="42.103424" lon="2.7594519">
        <ele>154.0</ele>
        <time>2022-03-10T10:32:00Z</time>
      </trkpt>
      <trkpt lat="42.10344" lon="2.7594755">
        <ele>154.0</ele>
        <time>2022-03-10T10:32:01Z</time>
      </trkpt>
      <trkpt lat="42.10346" lon="2.7595072">
        <ele>154.0</ele>
        <time>2022-03-10T10:32:02Z</time>
      </trkpt>
      <trkpt lat="42.10349" lon="2.759541">
        <ele>154.0</ele>
        <time>2022-03-10T10:32:03Z</time>
      </trkpt>
      <trkpt lat="42.103527" lon="2.7595718">
        <ele>154.0</ele>
        <time>2022-03-10T10:32:04Z</time>
      </trkpt>
      <trkpt lat="42.103573" lon="2.759599">
        <ele>154.0</ele>
        <time>2022-03-10T10:32:04Z</time>
      </trkpt>
      <trkpt lat="42.103626" lon="2.7596173">
        <ele>154.0</ele>
        <time>2022-03-10T10:32:05Z</time>
      </trkpt>
      <trkpt lat="42.103683" lon="2.759626">
        <ele>154.0</ele>
        <time>2022-03-10T10:32:06Z</time>
      </trkpt>
      <trkpt lat="42.103752" lon="2.7596252">
        <ele>154.0</ele>
        <time>2022-03-10T10:32:07Z</time>
      </trkpt>
      <trkpt lat="42.10383" lon="2.7596176">
        <ele>155.0</ele>
        <time>2022-03-10T10:32:08Z</time>
      </trkpt>
      <trkpt lat="42.103912" lon="2.7596042">
        <ele>155.0</ele>
        <time>2022-03-10T10:32:09Z</time>
      </trkpt>
      <trkpt lat="42.104" lon="2.7595878">
        <ele>156.0</ele>
        <time>2022-03-10T10:32:10Z</time>
      </trkpt>
      <trkpt lat="42.104088" lon="2.7595713">
        <ele>156.0</ele>
        <time>2022-03-10T10:32:11Z</time>
      </trkpt>
      <trkpt lat="42.104168" lon="2.7595546">
        <ele>156.0</ele>
        <time>2022-03-10T10:32:12Z</time>
      </trkpt>
      <trkpt lat="42.10425" lon="2.759537">
        <ele>156.0</ele>
        <time>2022-03-10T10:32:13Z</time>
      </trkpt>
      <trkpt lat="42.104324" lon="2.7595193">
        <ele>156.0</ele>
        <time>2022-03-10T10:32:14Z</time>
      </trkpt>
      <trkpt lat="42.104397" lon="2.7595017">
        <ele>156.0</ele>
        <time>2022-03-10T10:32:15Z</time>
      </trkpt>
      <trkpt lat="42.10446" lon="2.759483">
        <ele>156.0</ele>
        <time>2022-03-10T10:32:16Z</time>
      </trkpt>
      <trkpt lat="42.10452" lon="2.7594638">
        <ele>156.0</ele>
        <time>2022-03-10T10:32:17Z</time>
      </trkpt>
      <trkpt lat="42.10457" lon="2.7594457">
        <ele>156.0</ele>
        <time>2022-03-10T10:32:18Z</time>
      </trkpt>
      <trkpt lat="42.10461" lon="2.759433">
        <ele>156.0</ele>
        <time>2022-03-10T10:32:18Z</time>
      </trkpt>
      <trkpt lat="42.10464" lon="2.7594273">
        <ele>155.0</ele>
        <time>2022-03-10T10:32:19Z</time>
      </trkpt>
      <trkpt lat="42.104664" lon="2.7594295">
        <ele>155.0</ele>
        <time>2022-03-10T10:32:20Z</time>
      </trkpt>
      <trkpt lat="42.10468" lon="2.759438">
        <ele>155.0</ele>
        <time>2022-03-10T10:32:21Z</time>
      </trkpt>
      <trkpt lat="42.104687" lon="2.7594485">
        <ele>155.0</ele>
        <time>2022-03-10T10:32:22Z</time>
      </trkpt>
      <trkpt lat="42.104683" lon="2.7594604">
        <ele>155.0</ele>
        <time>2022-03-10T10:32:23Z</time>
      </trkpt>
      <trkpt lat="42.10467" lon="2.7594724">
        <ele>155.0</ele>
        <time>2022-03-10T10:32:24Z</time>
      </trkpt>
      <trkpt lat="42.10465" lon="2.7594855">
        <ele>155.0</ele>
        <time>2022-03-10T10:32:25Z</time>
      </trkpt>
      <trkpt lat="42.10462" lon="2.7594995">
        <ele>155.0</ele>
        <time>2022-03-10T10:32:26Z</time>
      </trkpt>
      <trkpt lat="42.10459" lon="2.7595174">
        <ele>154.0</ele>
        <time>2022-03-10T10:32:27Z</time>
      </trkpt>
      <trkpt lat="42.104553" lon="2.75954">
        <ele>154.0</ele>
        <time>2022-03-10T10:32:28Z</time>
      </trkpt>
      <trkpt lat="42.104515" lon="2.7595701">
        <ele>154.0</ele>
        <time>2022-03-10T10:32:29Z</time>
      </trkpt>
      <trkpt lat="42.10447" lon="2.7596111">
        <ele>154.0</ele>
        <time>2022-03-10T10:32:30Z</time>
      </trkpt>
      <trkpt lat="42.104427" lon="2.7596607">
        <ele>153.0</ele>
        <time>2022-03-10T10:32:31Z</time>
      </trkpt>
      <trkpt lat="42.104385" lon="2.7597153">
        <ele>153.0</ele>
        <time>2022-03-10T10:32:32Z</time>
      </trkpt>
      <trkpt lat="42.104347" lon="2.759775">
        <ele>153.0</ele>
        <time>2022-03-10T10:32:33Z</time>
      </trkpt>
      <trkpt lat="42.10431" lon="2.759839">
        <ele>153.0</ele>
        <time>2022-03-10T10:32:34Z</time>
      </trkpt>
      <trkpt lat="42.104267" lon="2.759909">
        <ele>152.0</ele>
        <time>2022-03-10T10:32:35Z</time>
      </trkpt>
      <trkpt lat="42.10423" lon="2.7599828">
        <ele>152.0</ele>
        <time>2022-03-10T10:32:36Z</time>
      </trkpt>
      <trkpt lat="42.104183" lon="2.760058">
        <ele>152.0</ele>
        <time>2022-03-10T10:32:37Z</time>
      </trkpt>
      <trkpt lat="42.10414" lon="2.7601347">
        <ele>152.0</ele>
        <time>2022-03-10T10:32:38Z</time>
      </trkpt>
      <trkpt lat="42.104103" lon="2.760212">
        <ele>151.0</ele>
        <time>2022-03-10T10:32:39Z</time>
      </trkpt>
      <trkpt lat="42.104073" lon="2.760292">
        <ele>151.0</ele>
        <time>2022-03-10T10:32:40Z</time>
      </trkpt>
      <trkpt lat="42.104057" lon="2.7603705">
        <ele>150.0</ele>
        <time>2022-03-10T10:32:41Z</time>
      </trkpt>
      <trkpt lat="42.104057" lon="2.7604458">
        <ele>150.0</ele>
        <time>2022-03-10T10:32:42Z</time>
      </trkpt>
      <trkpt lat="42.10406" lon="2.7605155">
        <ele>150.0</ele>
        <time>2022-03-10T10:32:43Z</time>
      </trkpt>
      <trkpt lat="42.104073" lon="2.760578">
        <ele>150.0</ele>
        <time>2022-03-10T10:32:44Z</time>
      </trkpt>
      <trkpt lat="42.10408" lon="2.7606316">
        <ele>150.0</ele>
        <time>2022-03-10T10:32:45Z</time>
      </trkpt>
      <trkpt lat="42.104088" lon="2.7606754">
        <ele>150.0</ele>
        <time>2022-03-10T10:32:46Z</time>
      </trkpt>
      <trkpt lat="42.104088" lon="2.7607105">
        <ele>149.0</ele>
        <time>2022-03-10T10:32:47Z</time>
      </trkpt>
      <trkpt lat="42.104088" lon="2.760738">
        <ele>149.0</ele>
        <time>2022-03-10T10:32:48Z</time>
      </trkpt>
      <trkpt lat="42.10408" lon="2.7607546">
        <ele>149.0</ele>
        <time>2022-03-10T10:32:49Z</time>
      </trkpt>
      <trkpt lat="42.104065" lon="2.760762">
        <ele>149.0</ele>
        <time>2022-03-10T10:32:50Z</time>
      </trkpt>
      <trkpt lat="42.104046" lon="2.760762">
        <ele>150.0</ele>
        <time>2022-03-10T10:32:51Z</time>
      </trkpt>
      <trkpt lat="42.10402" lon="2.7607558">
        <ele>151.0</ele>
        <time>2022-03-10T10:32:52Z</time>
      </trkpt>
      <trkpt lat="42.10399" lon="2.760746">
        <ele>151.0</ele>
        <time>2022-03-10T10:32:53Z</time>
      </trkpt>
      <trkpt lat="42.103943" lon="2.7607367">
        <ele>152.0</ele>
        <time>2022-03-10T10:32:55Z</time>
      </trkpt>
      <trkpt lat="42.103886" lon="2.7607331">
        <ele>153.0</ele>
        <time>2022-03-10T10:32:55Z</time>
      </trkpt>
      <trkpt lat="42.103825" lon="2.7607343">
        <ele>154.0</ele>
        <time>2022-03-10T10:32:56Z</time>
      </trkpt>
      <trkpt lat="42.10375" lon="2.7607427">
        <ele>155.0</ele>
        <time>2022-03-10T10:32:57Z</time>
      </trkpt>
      <trkpt lat="42.103676" lon="2.7607553">
        <ele>155.0</ele>
        <time>2022-03-10T10:32:58Z</time>
      </trkpt>
      <trkpt lat="42.1036" lon="2.7607703">
        <ele>155.0</ele>
        <time>2022-03-10T10:32:59Z</time>
      </trkpt>
      <trkpt lat="42.10354" lon="2.7607856">
        <ele>156.0</ele>
        <time>2022-03-10T10:33:00Z</time>
      </trkpt>
      <trkpt lat="42.10348" lon="2.760799">
        <ele>156.0</ele>
        <time>2022-03-10T10:33:01Z</time>
      </trkpt>
      <trkpt lat="42.103443" lon="2.760809">
        <ele>156.0</ele>
        <time>2022-03-10T10:33:02Z</time>
      </trkpt>
      <trkpt lat="42.103367" lon="2.7608273">
        <ele>156.0</ele>
        <time>2022-03-10T10:33:04Z</time>
      </trkpt>
      <trkpt lat="42.103367" lon="2.7608304">
        <ele>156.0</ele>
        <time>2022-03-10T10:33:07Z</time>
      </trkpt>
      <trkpt lat="42.103367" lon="2.7608306">
        <ele>156.0</ele>
        <time>2022-03-10T10:33:08Z</time>
      </trkpt>
      <trkpt lat="42.103374" lon="2.7608304">
        <ele>156.0</ele>
        <time>2022-03-10T10:33:11Z</time>
      </trkpt>
      <trkpt lat="42.103374" lon="2.7608287">
        <ele>156.0</ele>
        <time>2022-03-10T10:33:13Z</time>
      </trkpt>
      <trkpt lat="42.10337" lon="2.7608287">
        <ele>156.0</ele>
        <time>2022-03-10T10:33:38Z</time>
      </trkpt>
      <trkpt lat="42.10336" lon="2.7608316">
        <ele>156.0</ele>
        <time>2022-03-10T10:33:39Z</time>
      </trkpt>
      <trkpt lat="42.103336" lon="2.76084">
        <ele>156.0</ele>
        <time>2022-03-10T10:33:40Z</time>
      </trkpt>
      <trkpt lat="42.103302" lon="2.760853">
        <ele>158.0</ele>
        <time>2022-03-10T10:33:41Z</time>
      </trkpt>
      <trkpt lat="42.10326" lon="2.7608705">
        <ele>158.0</ele>
        <time>2022-03-10T10:33:42Z</time>
      </trkpt>
      <trkpt lat="42.10321" lon="2.760891">
        <ele>159.0</ele>
        <time>2022-03-10T10:33:43Z</time>
      </trkpt>
      <trkpt lat="42.10315" lon="2.7609146">
        <ele>160.0</ele>
        <time>2022-03-10T10:33:44Z</time>
      </trkpt>
      <trkpt lat="42.103085" lon="2.760943">
        <ele>161.0</ele>
        <time>2022-03-10T10:33:45Z</time>
      </trkpt>
      <trkpt lat="42.10301" lon="2.7609713">
        <ele>161.0</ele>
        <time>2022-03-10T10:33:46Z</time>
      </trkpt>
      <trkpt lat="42.102936" lon="2.7609997">
        <ele>162.0</ele>
        <time>2022-03-10T10:33:47Z</time>
      </trkpt>
      <trkpt lat="42.102867" lon="2.7610261">
        <ele>163.0</ele>
        <time>2022-03-10T10:33:48Z</time>
      </trkpt>
      <trkpt lat="42.102795" lon="2.7610505">
        <ele>164.0</ele>
        <time>2022-03-10T10:33:49Z</time>
      </trkpt>
      <trkpt lat="42.102726" lon="2.761071">
        <ele>165.0</ele>
        <time>2022-03-10T10:33:50Z</time>
      </trkpt>
      <trkpt lat="42.102654" lon="2.761086">
        <ele>165.0</ele>
        <time>2022-03-10T10:33:51Z</time>
      </trkpt>
      <trkpt lat="42.102585" lon="2.7610967">
        <ele>166.0</ele>
        <time>2022-03-10T10:33:52Z</time>
      </trkpt>
      <trkpt lat="42.102512" lon="2.7611024">
        <ele>167.0</ele>
        <time>2022-03-10T10:33:53Z</time>
      </trkpt>
      <trkpt lat="42.102444" lon="2.7611">
        <ele>168.0</ele>
        <time>2022-03-10T10:33:55Z</time>
      </trkpt>
      <trkpt lat="42.10238" lon="2.761092">
        <ele>169.0</ele>
        <time>2022-03-10T10:33:55Z</time>
      </trkpt>
      <trkpt lat="42.10232" lon="2.7610793">
        <ele>169.0</ele>
        <time>2022-03-10T10:33:56Z</time>
      </trkpt>
      <trkpt lat="42.102276" lon="2.7610662">
        <ele>170.0</ele>
        <time>2022-03-10T10:33:57Z</time>
      </trkpt>
      <trkpt lat="42.102238" lon="2.7610555">
        <ele>170.0</ele>
        <time>2022-03-10T10:33:58Z</time>
      </trkpt>
      <trkpt lat="42.102203" lon="2.7610505">
        <ele>170.0</ele>
        <time>2022-03-10T10:33:59Z</time>
      </trkpt>
      <trkpt lat="42.102173" lon="2.761051">
        <ele>170.0</ele>
        <time>2022-03-10T10:34:00Z</time>
      </trkpt>
      <trkpt lat="42.102135" lon="2.7610595">
        <ele>170.0</ele>
        <time>2022-03-10T10:34:01Z</time>
      </trkpt>
      <trkpt lat="42.1021" lon="2.7610755">
        <ele>170.0</ele>
        <time>2022-03-10T10:34:02Z</time>
      </trkpt>
      <trkpt lat="42.10206" lon="2.7610967">
        <ele>170.0</ele>
        <time>2022-03-10T10:34:03Z</time>
      </trkpt>
      <trkpt lat="42.10201" lon="2.7611225">
        <ele>170.0</ele>
        <time>2022-03-10T10:34:04Z</time>
      </trkpt>
      <trkpt lat="42.10195" lon="2.7611513">
        <ele>170.0</ele>
        <time>2022-03-10T10:34:05Z</time>
      </trkpt>
      <trkpt lat="42.101894" lon="2.7611814">
        <ele>170.0</ele>
        <time>2022-03-10T10:34:06Z</time>
      </trkpt>
      <trkpt lat="42.101833" lon="2.7612092">
        <ele>170.0</ele>
        <time>2022-03-10T10:34:07Z</time>
      </trkpt>
      <trkpt lat="42.10177" lon="2.7612362">
        <ele>170.0</ele>
        <time>2022-03-10T10:34:08Z</time>
      </trkpt>
      <trkpt lat="42.101707" lon="2.7612576">
        <ele>170.0</ele>
        <time>2022-03-10T10:34:09Z</time>
      </trkpt>
      <trkpt lat="42.10165" lon="2.7612755">
        <ele>170.0</ele>
        <time>2022-03-10T10:34:10Z</time>
      </trkpt>
      <trkpt lat="42.101597" lon="2.7612913">
        <ele>170.0</ele>
        <time>2022-03-10T10:34:11Z</time>
      </trkpt>
      <trkpt lat="42.101555" lon="2.76131">
        <ele>170.0</ele>
        <time>2022-03-10T10:34:12Z</time>
      </trkpt>
      <trkpt lat="42.101513" lon="2.7613351">
        <ele>170.0</ele>
        <time>2022-03-10T10:34:13Z</time>
      </trkpt>
      <trkpt lat="42.101475" lon="2.7613664">
        <ele>170.0</ele>
        <time>2022-03-10T10:34:14Z</time>
      </trkpt>
      <trkpt lat="42.101437" lon="2.761402">
        <ele>170.0</ele>
        <time>2022-03-10T10:34:15Z</time>
      </trkpt>
      <trkpt lat="42.101395" lon="2.7614408">
        <ele>170.0</ele>
        <time>2022-03-10T10:34:16Z</time>
      </trkpt>
      <trkpt lat="42.101357" lon="2.7614825">
        <ele>169.0</ele>
        <time>2022-03-10T10:34:17Z</time>
      </trkpt>
      <trkpt lat="42.10132" lon="2.7615292">
        <ele>169.0</ele>
        <time>2022-03-10T10:34:18Z</time>
      </trkpt>
      <trkpt lat="42.10128" lon="2.7615802">
        <ele>169.0</ele>
        <time>2022-03-10T10:34:19Z</time>
      </trkpt>
      <trkpt lat="42.101242" lon="2.7616274">
        <ele>168.0</ele>
        <time>2022-03-10T10:34:20Z</time>
      </trkpt>
      <trkpt lat="42.101204" lon="2.7616694">
        <ele>167.0</ele>
        <time>2022-03-10T10:34:21Z</time>
      </trkpt>
      <trkpt lat="42.101173" lon="2.7617073">
        <ele>167.0</ele>
        <time>2022-03-10T10:34:22Z</time>
      </trkpt>
      <trkpt lat="42.101147" lon="2.7617428">
        <ele>166.0</ele>
        <time>2022-03-10T10:34:23Z</time>
      </trkpt>
      <trkpt lat="42.101124" lon="2.7617784">
        <ele>166.0</ele>
        <time>2022-03-10T10:34:24Z</time>
      </trkpt>
      <trkpt lat="42.10111" lon="2.7618172">
        <ele>165.0</ele>
        <time>2022-03-10T10:34:25Z</time>
      </trkpt>
      <trkpt lat="42.1011" lon="2.7618601">
        <ele>164.0</ele>
        <time>2022-03-10T10:34:26Z</time>
      </trkpt>
      <trkpt lat="42.101097" lon="2.761908">
        <ele>164.0</ele>
        <time>2022-03-10T10:34:27Z</time>
      </trkpt>
      <trkpt lat="42.1011" lon="2.7619603">
        <ele>163.0</ele>
        <time>2022-03-10T10:34:28Z</time>
      </trkpt>
      <trkpt lat="42.10111" lon="2.762016">
        <ele>163.0</ele>
        <time>2022-03-10T10:34:29Z</time>
      </trkpt>
      <trkpt lat="42.101112" lon="2.7620702">
        <ele>162.0</ele>
        <time>2022-03-10T10:34:30Z</time>
      </trkpt>
      <trkpt lat="42.101116" lon="2.762117">
        <ele>162.0</ele>
        <time>2022-03-10T10:34:31Z</time>
      </trkpt>
      <trkpt lat="42.10111" lon="2.7621553">
        <ele>161.0</ele>
        <time>2022-03-10T10:34:32Z</time>
      </trkpt>
      <trkpt lat="42.101097" lon="2.762183">
        <ele>161.0</ele>
        <time>2022-03-10T10:34:33Z</time>
      </trkpt>
      <trkpt lat="42.101074" lon="2.7622023">
        <ele>161.0</ele>
        <time>2022-03-10T10:34:34Z</time>
      </trkpt>
      <trkpt lat="42.101044" lon="2.7622135">
        <ele>161.0</ele>
        <time>2022-03-10T10:34:35Z</time>
      </trkpt>
      <trkpt lat="42.101006" lon="2.762217">
        <ele>161.0</ele>
        <time>2022-03-10T10:34:36Z</time>
      </trkpt>
      <trkpt lat="42.10096" lon="2.7622154">
        <ele>160.0</ele>
        <time>2022-03-10T10:34:37Z</time>
      </trkpt>
      <trkpt lat="42.100914" lon="2.7622101">
        <ele>159.0</ele>
        <time>2022-03-10T10:34:38Z</time>
      </trkpt>
      <trkpt lat="42.100864" lon="2.7622044">
        <ele>159.0</ele>
        <time>2022-03-10T10:34:39Z</time>
      </trkpt>
      <trkpt lat="42.10082" lon="2.762199">
        <ele>158.0</ele>
        <time>2022-03-10T10:34:40Z</time>
      </trkpt>
      <trkpt lat="42.100784" lon="2.7621965">
        <ele>158.0</ele>
        <time>2022-03-10T10:34:41Z</time>
      </trkpt>
      <trkpt lat="42.10075" lon="2.762201">
        <ele>157.0</ele>
        <time>2022-03-10T10:34:42Z</time>
      </trkpt>
      <trkpt lat="42.10072" lon="2.7622132">
        <ele>157.0</ele>
        <time>2022-03-10T10:34:43Z</time>
      </trkpt>
      <trkpt lat="42.10069" lon="2.7622335">
        <ele>156.0</ele>
        <time>2022-03-10T10:34:44Z</time>
      </trkpt>
      <trkpt lat="42.10066" lon="2.762263">
        <ele>156.0</ele>
        <time>2022-03-10T10:34:45Z</time>
      </trkpt>
      <trkpt lat="42.100624" lon="2.7622998">
        <ele>156.0</ele>
        <time>2022-03-10T10:34:46Z</time>
      </trkpt>
      <trkpt lat="42.100594" lon="2.7623427">
        <ele>156.0</ele>
        <time>2022-03-10T10:34:47Z</time>
      </trkpt>
      <trkpt lat="42.10056" lon="2.7623901">
        <ele>155.0</ele>
        <time>2022-03-10T10:34:48Z</time>
      </trkpt>
      <trkpt lat="42.100525" lon="2.7624424">
        <ele>155.0</ele>
        <time>2022-03-10T10:34:49Z</time>
      </trkpt>
      <trkpt lat="42.100487" lon="2.7624943">
        <ele>155.0</ele>
        <time>2022-03-10T10:34:50Z</time>
      </trkpt>
      <trkpt lat="42.100452" lon="2.7625465">
        <ele>154.0</ele>
        <time>2022-03-10T10:34:51Z</time>
      </trkpt>
      <trkpt lat="42.100414" lon="2.7625978">
        <ele>153.0</ele>
        <time>2022-03-10T10:34:52Z</time>
      </trkpt>
      <trkpt lat="42.100376" lon="2.76265">
        <ele>153.0</ele>
        <time>2022-03-10T10:34:53Z</time>
      </trkpt>
      <trkpt lat="42.100338" lon="2.7627058">
        <ele>152.0</ele>
        <time>2022-03-10T10:34:55Z</time>
      </trkpt>
      <trkpt lat="42.1003" lon="2.7627654">
        <ele>152.0</ele>
        <time>2022-03-10T10:34:55Z</time>
      </trkpt>
      <trkpt lat="42.100258" lon="2.7628295">
        <ele>151.0</ele>
        <time>2022-03-10T10:34:57Z</time>
      </trkpt>
      <trkpt lat="42.10022" lon="2.7628963">
        <ele>150.0</ele>
        <time>2022-03-10T10:34:57Z</time>
      </trkpt>
      <trkpt lat="42.10018" lon="2.762971">
        <ele>150.0</ele>
        <time>2022-03-10T10:34:58Z</time>
      </trkpt>
      <trkpt lat="42.100143" lon="2.763041">
        <ele>149.0</ele>
        <time>2022-03-10T10:34:59Z</time>
      </trkpt>
      <trkpt lat="42.100113" lon="2.763114">
        <ele>149.0</ele>
        <time>2022-03-10T10:35:00Z</time>
      </trkpt>
      <trkpt lat="42.10008" lon="2.7631907">
        <ele>148.0</ele>
        <time>2022-03-10T10:35:01Z</time>
      </trkpt>
      <trkpt lat="42.100048" lon="2.7632692">
        <ele>147.0</ele>
        <time>2022-03-10T10:35:02Z</time>
      </trkpt>
      <trkpt lat="42.100018" lon="2.7633426">
        <ele>147.0</ele>
        <time>2022-03-10T10:35:03Z</time>
      </trkpt>
      <trkpt lat="42.099987" lon="2.7634094">
        <ele>146.0</ele>
        <time>2022-03-10T10:35:04Z</time>
      </trkpt>
      <trkpt lat="42.099953" lon="2.7634673">
        <ele>146.0</ele>
        <time>2022-03-10T10:35:05Z</time>
      </trkpt>
      <trkpt lat="42.09991" lon="2.7635207">
        <ele>145.0</ele>
        <time>2022-03-10T10:35:06Z</time>
      </trkpt>
      <trkpt lat="42.09986" lon="2.7635717">
        <ele>145.0</ele>
        <time>2022-03-10T10:35:07Z</time>
      </trkpt>
      <trkpt lat="42.099808" lon="2.763625">
        <ele>144.0</ele>
        <time>2022-03-10T10:35:08Z</time>
      </trkpt>
      <trkpt lat="42.099754" lon="2.7636771">
        <ele>144.0</ele>
        <time>2022-03-10T10:35:09Z</time>
      </trkpt>
      <trkpt lat="42.099705" lon="2.763726">
        <ele>143.0</ele>
        <time>2022-03-10T10:35:10Z</time>
      </trkpt>
      <trkpt lat="42.09966" lon="2.7637708">
        <ele>143.0</ele>
        <time>2022-03-10T10:35:11Z</time>
      </trkpt>
      <trkpt lat="42.099613" lon="2.763809">
        <ele>142.0</ele>
        <time>2022-03-10T10:35:12Z</time>
      </trkpt>
      <trkpt lat="42.09957" lon="2.7638476">
        <ele>142.0</ele>
        <time>2022-03-10T10:35:13Z</time>
      </trkpt>
      <trkpt lat="42.09953" lon="2.763887">
        <ele>142.0</ele>
        <time>2022-03-10T10:35:14Z</time>
      </trkpt>
      <trkpt lat="42.09949" lon="2.7639267">
        <ele>142.0</ele>
        <time>2022-03-10T10:35:15Z</time>
      </trkpt>
      <trkpt lat="42.09945" lon="2.7639668">
        <ele>142.0</ele>
        <time>2022-03-10T10:35:16Z</time>
      </trkpt>
      <trkpt lat="42.099403" lon="2.7640054">
        <ele>142.0</ele>
        <time>2022-03-10T10:35:17Z</time>
      </trkpt>
      <trkpt lat="42.09936" lon="2.7640436">
        <ele>142.0</ele>
        <time>2022-03-10T10:35:18Z</time>
      </trkpt>
      <trkpt lat="42.09932" lon="2.76408">
        <ele>142.0</ele>
        <time>2022-03-10T10:35:19Z</time>
      </trkpt>
      <trkpt lat="42.099277" lon="2.7641146">
        <ele>142.0</ele>
        <time>2022-03-10T10:35:20Z</time>
      </trkpt>
      <trkpt lat="42.09923" lon="2.7641482">
        <ele>142.0</ele>
        <time>2022-03-10T10:35:21Z</time>
      </trkpt>
      <trkpt lat="42.099194" lon="2.764182">
        <ele>142.0</ele>
        <time>2022-03-10T10:35:22Z</time>
      </trkpt>
      <trkpt lat="42.09915" lon="2.7642133">
        <ele>142.0</ele>
        <time>2022-03-10T10:35:24Z</time>
      </trkpt>
      <trkpt lat="42.09911" lon="2.7642417">
        <ele>142.0</ele>
        <time>2022-03-10T10:35:25Z</time>
      </trkpt>
      <trkpt lat="42.099075" lon="2.76427">
        <ele>142.0</ele>
        <time>2022-03-10T10:35:25Z</time>
      </trkpt>
      <trkpt lat="42.09904" lon="2.764298">
        <ele>142.0</ele>
        <time>2022-03-10T10:35:26Z</time>
      </trkpt>
      <trkpt lat="42.099014" lon="2.764329">
        <ele>142.0</ele>
        <time>2022-03-10T10:35:27Z</time>
      </trkpt>
      <trkpt lat="42.098984" lon="2.764367">
        <ele>142.0</ele>
        <time>2022-03-10T10:35:28Z</time>
      </trkpt>
      <trkpt lat="42.09896" lon="2.764417">
        <ele>142.0</ele>
        <time>2022-03-10T10:35:29Z</time>
      </trkpt>
      <trkpt lat="42.098946" lon="2.7644825">
        <ele>142.0</ele>
        <time>2022-03-10T10:35:30Z</time>
      </trkpt>
      <trkpt lat="42.09893" lon="2.7645612">
        <ele>143.0</ele>
        <time>2022-03-10T10:35:31Z</time>
      </trkpt>
      <trkpt lat="42.09892" lon="2.7646484">
        <ele>143.0</ele>
        <time>2022-03-10T10:35:32Z</time>
      </trkpt>
      <trkpt lat="42.098907" lon="2.7647378">
        <ele>143.0</ele>
        <time>2022-03-10T10:35:33Z</time>
      </trkpt>
      <trkpt lat="42.098896" lon="2.7648253">
        <ele>144.0</ele>
        <time>2022-03-10T10:35:34Z</time>
      </trkpt>
      <trkpt lat="42.09888" lon="2.764906">
        <ele>144.0</ele>
        <time>2022-03-10T10:35:35Z</time>
      </trkpt>
      <trkpt lat="42.098866" lon="2.7649763">
        <ele>144.0</ele>
        <time>2022-03-10T10:35:36Z</time>
      </trkpt>
      <trkpt lat="42.098843" lon="2.7650316">
        <ele>144.0</ele>
        <time>2022-03-10T10:35:37Z</time>
      </trkpt>
      <trkpt lat="42.098816" lon="2.7650714">
        <ele>145.0</ele>
        <time>2022-03-10T10:35:38Z</time>
      </trkpt>
      <trkpt lat="42.098778" lon="2.7650976">
        <ele>145.0</ele>
        <time>2022-03-10T10:35:39Z</time>
      </trkpt>
      <trkpt lat="42.098736" lon="2.7651129">
        <ele>145.0</ele>
        <time>2022-03-10T10:35:40Z</time>
      </trkpt>
      <trkpt lat="42.098686" lon="2.7651246">
        <ele>146.0</ele>
        <time>2022-03-10T10:35:41Z</time>
      </trkpt>
      <trkpt lat="42.098633" lon="2.7651305">
        <ele>146.0</ele>
        <time>2022-03-10T10:35:42Z</time>
      </trkpt>
      <trkpt lat="42.098576" lon="2.7651353">
        <ele>146.0</ele>
        <time>2022-03-10T10:35:43Z</time>
      </trkpt>
      <trkpt lat="42.098515" lon="2.765141">
        <ele>147.0</ele>
        <time>2022-03-10T10:35:44Z</time>
      </trkpt>
      <trkpt lat="42.09845" lon="2.7651463">
        <ele>147.0</ele>
        <time>2022-03-10T10:35:45Z</time>
      </trkpt>
      <trkpt lat="42.098377" lon="2.76515">
        <ele>148.0</ele>
        <time>2022-03-10T10:35:46Z</time>
      </trkpt>
      <trkpt lat="42.0983" lon="2.765151">
        <ele>148.0</ele>
        <time>2022-03-10T10:35:47Z</time>
      </trkpt>
      <trkpt lat="42.09822" lon="2.765153">
        <ele>148.0</ele>
        <time>2022-03-10T10:35:48Z</time>
      </trkpt>
      <trkpt lat="42.098145" lon="2.7651548">
        <ele>149.0</ele>
        <time>2022-03-10T10:35:49Z</time>
      </trkpt>
      <trkpt lat="42.098064" lon="2.7651572">
        <ele>149.0</ele>
        <time>2022-03-10T10:35:50Z</time>
      </trkpt>
      <trkpt lat="42.09798" lon="2.7651594">
        <ele>149.0</ele>
        <time>2022-03-10T10:35:51Z</time>
      </trkpt>
      <trkpt lat="42.0979" lon="2.765161">
        <ele>149.0</ele>
        <time>2022-03-10T10:35:52Z</time>
      </trkpt>
      <trkpt lat="42.097824" lon="2.7651632">
        <ele>149.0</ele>
        <time>2022-03-10T10:35:53Z</time>
      </trkpt>
      <trkpt lat="42.09774" lon="2.7651658">
        <ele>149.0</ele>
        <time>2022-03-10T10:35:55Z</time>
      </trkpt>
      <trkpt lat="42.09766" lon="2.7651725">
        <ele>149.0</ele>
        <time>2022-03-10T10:35:55Z</time>
      </trkpt>
      <trkpt lat="42.097584" lon="2.765182">
        <ele>149.0</ele>
        <time>2022-03-10T10:35:56Z</time>
      </trkpt>
      <trkpt lat="42.097504" lon="2.765195">
        <ele>149.0</ele>
        <time>2022-03-10T10:35:57Z</time>
      </trkpt>
      <trkpt lat="42.09742" lon="2.765211">
        <ele>149.0</ele>
        <time>2022-03-10T10:35:58Z</time>
      </trkpt>
      <trkpt lat="42.09734" lon="2.7652292">
        <ele>149.0</ele>
        <time>2022-03-10T10:35:59Z</time>
      </trkpt>
      <trkpt lat="42.097267" lon="2.7652466">
        <ele>149.0</ele>
        <time>2022-03-10T10:36:00Z</time>
      </trkpt>
      <trkpt lat="42.097206" lon="2.7652638">
        <ele>149.0</ele>
        <time>2022-03-10T10:36:01Z</time>
      </trkpt>
      <trkpt lat="42.097153" lon="2.7652771">
        <ele>148.0</ele>
        <time>2022-03-10T10:36:02Z</time>
      </trkpt>
      <trkpt lat="42.097107" lon="2.7652905">
        <ele>148.0</ele>
        <time>2022-03-10T10:36:03Z</time>
      </trkpt>
      <trkpt lat="42.097073" lon="2.7653027">
        <ele>148.0</ele>
        <time>2022-03-10T10:36:04Z</time>
      </trkpt>
      <trkpt lat="42.097046" lon="2.7653165">
        <ele>147.0</ele>
        <time>2022-03-10T10:36:05Z</time>
      </trkpt>
      <trkpt lat="42.097023" lon="2.7653313">
        <ele>147.0</ele>
        <time>2022-03-10T10:36:06Z</time>
      </trkpt>
      <trkpt lat="42.097008" lon="2.765354">
        <ele>147.0</ele>
        <time>2022-03-10T10:36:07Z</time>
      </trkpt>
      <trkpt lat="42.097" lon="2.7653854">
        <ele>147.0</ele>
        <time>2022-03-10T10:36:08Z</time>
      </trkpt>
      <trkpt lat="42.096992" lon="2.7654276">
        <ele>147.0</ele>
        <time>2022-03-10T10:36:09Z</time>
      </trkpt>
      <trkpt lat="42.09699" lon="2.7654812">
        <ele>147.0</ele>
        <time>2022-03-10T10:36:10Z</time>
      </trkpt>
      <trkpt lat="42.096992" lon="2.7655435">
        <ele>147.0</ele>
        <time>2022-03-10T10:36:11Z</time>
      </trkpt>
      <trkpt lat="42.096996" lon="2.765612">
        <ele>147.0</ele>
        <time>2022-03-10T10:36:12Z</time>
      </trkpt>
      <trkpt lat="42.097004" lon="2.7656825">
        <ele>147.0</ele>
        <time>2022-03-10T10:36:13Z</time>
      </trkpt>
      <trkpt lat="42.097015" lon="2.7657514">
        <ele>147.0</ele>
        <time>2022-03-10T10:36:14Z</time>
      </trkpt>
      <trkpt lat="42.097023" lon="2.765816">
        <ele>147.0</ele>
        <time>2022-03-10T10:36:15Z</time>
      </trkpt>
      <trkpt lat="42.09703" lon="2.7658758">
        <ele>146.0</ele>
        <time>2022-03-10T10:36:16Z</time>
      </trkpt>
      <trkpt lat="42.09704" lon="2.7659278">
        <ele>146.0</ele>
        <time>2022-03-10T10:36:17Z</time>
      </trkpt>
      <trkpt lat="42.09704" lon="2.7659714">
        <ele>145.0</ele>
        <time>2022-03-10T10:36:18Z</time>
      </trkpt>
      <trkpt lat="42.09704" lon="2.7660055">
        <ele>145.0</ele>
        <time>2022-03-10T10:36:19Z</time>
      </trkpt>
      <trkpt lat="42.09703" lon="2.7660265">
        <ele>145.0</ele>
        <time>2022-03-10T10:36:20Z</time>
      </trkpt>
      <trkpt lat="42.097023" lon="2.7660375">
        <ele>145.0</ele>
        <time>2022-03-10T10:36:21Z</time>
      </trkpt>
      <trkpt lat="42.09701" lon="2.7660384">
        <ele>145.0</ele>
        <time>2022-03-10T10:36:22Z</time>
      </trkpt>
      <trkpt lat="42.097" lon="2.7660317">
        <ele>145.0</ele>
        <time>2022-03-10T10:36:23Z</time>
      </trkpt>
      <trkpt lat="42.09699" lon="2.7660172">
        <ele>145.0</ele>
        <time>2022-03-10T10:36:24Z</time>
      </trkpt>
      <trkpt lat="42.096973" lon="2.766">
        <ele>145.0</ele>
        <time>2022-03-10T10:36:25Z</time>
      </trkpt>
      <trkpt lat="42.09695" lon="2.765983">
        <ele>145.0</ele>
        <time>2022-03-10T10:36:26Z</time>
      </trkpt>
      <trkpt lat="42.096924" lon="2.7659664">
        <ele>145.0</ele>
        <time>2022-03-10T10:36:27Z</time>
      </trkpt>
      <trkpt lat="42.096893" lon="2.7659507">
        <ele>145.0</ele>
        <time>2022-03-10T10:36:28Z</time>
      </trkpt>
      <trkpt lat="42.09686" lon="2.7659338">
        <ele>145.0</ele>
        <time>2022-03-10T10:36:29Z</time>
      </trkpt>
      <trkpt lat="42.09683" lon="2.765914">
        <ele>145.0</ele>
        <time>2022-03-10T10:36:30Z</time>
      </trkpt>
      <trkpt lat="42.096794" lon="2.7658892">
        <ele>145.0</ele>
        <time>2022-03-10T10:36:31Z</time>
      </trkpt>
      <trkpt lat="42.096764" lon="2.7658572">
        <ele>145.0</ele>
        <time>2022-03-10T10:36:32Z</time>
      </trkpt>
      <trkpt lat="42.09674" lon="2.7658162">
        <ele>145.0</ele>
        <time>2022-03-10T10:36:33Z</time>
      </trkpt>
      <trkpt lat="42.09672" lon="2.765768">
        <ele>145.0</ele>
        <time>2022-03-10T10:36:33Z</time>
      </trkpt>
      <trkpt lat="42.096706" lon="2.765716">
        <ele>145.0</ele>
        <time>2022-03-10T10:36:34Z</time>
      </trkpt>
      <trkpt lat="42.096695" lon="2.7656615">
        <ele>145.0</ele>
        <time>2022-03-10T10:36:35Z</time>
      </trkpt>
      <trkpt lat="42.09668" lon="2.7656052">
        <ele>145.0</ele>
        <time>2022-03-10T10:36:36Z</time>
      </trkpt>
      <trkpt lat="42.096664" lon="2.7655497">
        <ele>145.0</ele>
        <time>2022-03-10T10:36:37Z</time>
      </trkpt>
      <trkpt lat="42.09665" lon="2.7655">
        <ele>145.0</ele>
        <time>2022-03-10T10:36:38Z</time>
      </trkpt>
      <trkpt lat="42.096634" lon="2.765457">
        <ele>145.0</ele>
        <time>2022-03-10T10:36:39Z</time>
      </trkpt>
      <trkpt lat="42.09661" lon="2.7654195">
        <ele>145.0</ele>
        <time>2022-03-10T10:36:40Z</time>
      </trkpt>
      <trkpt lat="42.09659" lon="2.7653916">
        <ele>145.0</ele>
        <time>2022-03-10T10:36:41Z</time>
      </trkpt>
      <trkpt lat="42.096546" lon="2.7653728">
        <ele>145.0</ele>
        <time>2022-03-10T10:36:42Z</time>
      </trkpt>
      <trkpt lat="42.0965" lon="2.765364">
        <ele>146.0</ele>
        <time>2022-03-10T10:36:43Z</time>
      </trkpt>
      <trkpt lat="42.096447" lon="2.765361">
        <ele>146.0</ele>
        <time>2022-03-10T10:36:44Z</time>
      </trkpt>
      <trkpt lat="42.096394" lon="2.7653625">
        <ele>146.0</ele>
        <time>2022-03-10T10:36:45Z</time>
      </trkpt>
      <trkpt lat="42.096333" lon="2.7653644">
        <ele>146.0</ele>
        <time>2022-03-10T10:36:46Z</time>
      </trkpt>
      <trkpt lat="42.096275" lon="2.7653654">
        <ele>146.0</ele>
        <time>2022-03-10T10:36:48Z</time>
      </trkpt>
      <trkpt lat="42.096226" lon="2.7653642">
        <ele>146.0</ele>
        <time>2022-03-10T10:36:49Z</time>
      </trkpt>
      <trkpt lat="42.09618" lon="2.7653537">
        <ele>146.0</ele>
        <time>2022-03-10T10:36:49Z</time>
      </trkpt>
      <trkpt lat="42.09614" lon="2.7653334">
        <ele>146.0</ele>
        <time>2022-03-10T10:36:50Z</time>
      </trkpt>
      <trkpt lat="42.09612" lon="2.765308">
        <ele>146.0</ele>
        <time>2022-03-10T10:36:51Z</time>
      </trkpt>
      <trkpt lat="42.096104" lon="2.7652736">
        <ele>146.0</ele>
        <time>2022-03-10T10:36:52Z</time>
      </trkpt>
      <trkpt lat="42.096096" lon="2.7652323">
        <ele>146.0</ele>
        <time>2022-03-10T10:36:54Z</time>
      </trkpt>
      <trkpt lat="42.0961" lon="2.7651863">
        <ele>146.0</ele>
        <time>2022-03-10T10:36:54Z</time>
      </trkpt>
      <trkpt lat="42.096104" lon="2.7651367">
        <ele>146.0</ele>
        <time>2022-03-10T10:36:55Z</time>
      </trkpt>
      <trkpt lat="42.09611" lon="2.7650852">
        <ele>146.0</ele>
        <time>2022-03-10T10:36:56Z</time>
      </trkpt>
      <trkpt lat="42.09612" lon="2.7650325">
        <ele>146.0</ele>
        <time>2022-03-10T10:36:57Z</time>
      </trkpt>
      <trkpt lat="42.096127" lon="2.7649732">
        <ele>146.0</ele>
        <time>2022-03-10T10:36:58Z</time>
      </trkpt>
      <trkpt lat="42.096134" lon="2.7649143">
        <ele>146.0</ele>
        <time>2022-03-10T10:36:59Z</time>
      </trkpt>
      <trkpt lat="42.096146" lon="2.7648501">
        <ele>146.0</ele>
        <time>2022-03-10T10:37:00Z</time>
      </trkpt>
      <trkpt lat="42.09615" lon="2.7647862">
        <ele>146.0</ele>
        <time>2022-03-10T10:37:01Z</time>
      </trkpt>
      <trkpt lat="42.096153" lon="2.7647202">
        <ele>146.0</ele>
        <time>2022-03-10T10:37:02Z</time>
      </trkpt>
      <trkpt lat="42.096157" lon="2.7646523">
        <ele>146.0</ele>
        <time>2022-03-10T10:37:03Z</time>
      </trkpt>
      <trkpt lat="42.096157" lon="2.7645822">
        <ele>146.0</ele>
        <time>2022-03-10T10:37:04Z</time>
      </trkpt>
      <trkpt lat="42.096157" lon="2.7645097">
        <ele>146.0</ele>
        <time>2022-03-10T10:37:05Z</time>
      </trkpt>
      <trkpt lat="42.096157" lon="2.7644348">
        <ele>147.0</ele>
        <time>2022-03-10T10:37:06Z</time>
      </trkpt>
      <trkpt lat="42.096153" lon="2.7643578">
        <ele>147.0</ele>
        <time>2022-03-10T10:37:07Z</time>
      </trkpt>
      <trkpt lat="42.096153" lon="2.764281">
        <ele>147.0</ele>
        <time>2022-03-10T10:37:08Z</time>
      </trkpt>
      <trkpt lat="42.096157" lon="2.7642052">
        <ele>147.0</ele>
        <time>2022-03-10T10:37:09Z</time>
      </trkpt>
      <trkpt lat="42.096157" lon="2.7641299">
        <ele>147.0</ele>
        <time>2022-03-10T10:37:10Z</time>
      </trkpt>
      <trkpt lat="42.096165" lon="2.7640548">
        <ele>147.0</ele>
        <time>2022-03-10T10:37:11Z</time>
      </trkpt>
      <trkpt lat="42.096172" lon="2.7639754">
        <ele>147.0</ele>
        <time>2022-03-10T10:37:12Z</time>
      </trkpt>
      <trkpt lat="42.09618" lon="2.763893">
        <ele>147.0</ele>
        <time>2022-03-10T10:37:13Z</time>
      </trkpt>
      <trkpt lat="42.09619" lon="2.7638078">
        <ele>147.0</ele>
        <time>2022-03-10T10:37:15Z</time>
      </trkpt>
      <trkpt lat="42.096203" lon="2.7637212">
        <ele>148.0</ele>
        <time>2022-03-10T10:37:16Z</time>
      </trkpt>
      <trkpt lat="42.096214" lon="2.7636304">
        <ele>148.0</ele>
        <time>2022-03-10T10:37:17Z</time>
      </trkpt>
      <trkpt lat="42.09623" lon="2.7635436">
        <ele>148.0</ele>
        <time>2022-03-10T10:37:18Z</time>
      </trkpt>
      <trkpt lat="42.096245" lon="2.7634583">
        <ele>148.0</ele>
        <time>2022-03-10T10:37:19Z</time>
      </trkpt>
      <trkpt lat="42.09626" lon="2.7633815">
        <ele>148.0</ele>
        <time>2022-03-10T10:37:20Z</time>
      </trkpt>
      <trkpt lat="42.09628" lon="2.763312">
        <ele>148.0</ele>
        <time>2022-03-10T10:37:21Z</time>
      </trkpt>
      <trkpt lat="42.096302" lon="2.7632477">
        <ele>148.0</ele>
        <time>2022-03-10T10:37:22Z</time>
      </trkpt>
      <trkpt lat="42.096325" lon="2.7631907">
        <ele>148.0</ele>
        <time>2022-03-10T10:37:23Z</time>
      </trkpt>
      <trkpt lat="42.09635" lon="2.7631395">
        <ele>148.0</ele>
        <time>2022-03-10T10:37:24Z</time>
      </trkpt>
      <trkpt lat="42.096375" lon="2.7630937">
        <ele>148.0</ele>
        <time>2022-03-10T10:37:25Z</time>
      </trkpt>
      <trkpt lat="42.096397" lon="2.7630553">
        <ele>148.0</ele>
        <time>2022-03-10T10:37:25Z</time>
      </trkpt>
      <trkpt lat="42.096416" lon="2.7630217">
        <ele>148.0</ele>
        <time>2022-03-10T10:37:26Z</time>
      </trkpt>
      <trkpt lat="42.096428" lon="2.7629945">
        <ele>148.0</ele>
        <time>2022-03-10T10:37:27Z</time>
      </trkpt>
      <trkpt lat="42.09643" lon="2.762972">
        <ele>148.0</ele>
        <time>2022-03-10T10:37:28Z</time>
      </trkpt>
      <trkpt lat="42.096436" lon="2.7629545">
        <ele>148.0</ele>
        <time>2022-03-10T10:37:29Z</time>
      </trkpt>
      <trkpt lat="42.09643" lon="2.76294">
        <ele>148.0</ele>
        <time>2022-03-10T10:37:30Z</time>
      </trkpt>
      <trkpt lat="42.096428" lon="2.762925">
        <ele>148.0</ele>
        <time>2022-03-10T10:37:31Z</time>
      </trkpt>
      <trkpt lat="42.096416" lon="2.7629077">
        <ele>148.0</ele>
        <time>2022-03-10T10:37:32Z</time>
      </trkpt>
      <trkpt lat="42.0964" lon="2.7628899">
        <ele>148.0</ele>
        <time>2022-03-10T10:37:33Z</time>
      </trkpt>
      <trkpt lat="42.096382" lon="2.7628717">
        <ele>148.0</ele>
        <time>2022-03-10T10:37:34Z</time>
      </trkpt>
      <trkpt lat="42.096363" lon="2.762853">
        <ele>148.0</ele>
        <time>2022-03-10T10:37:35Z</time>
      </trkpt>
      <trkpt lat="42.096344" lon="2.762832">
        <ele>148.0</ele>
        <time>2022-03-10T10:37:36Z</time>
      </trkpt>
      <trkpt lat="42.096325" lon="2.7628112">
        <ele>148.0</ele>
        <time>2022-03-10T10:37:37Z</time>
      </trkpt>
      <trkpt lat="42.09631" lon="2.76279">
        <ele>148.0</ele>
        <time>2022-03-10T10:37:38Z</time>
      </trkpt>
      <trkpt lat="42.096294" lon="2.76277">
        <ele>148.0</ele>
        <time>2022-03-10T10:37:39Z</time>
      </trkpt>
      <trkpt lat="42.09628" lon="2.7627525">
        <ele>148.0</ele>
        <time>2022-03-10T10:37:40Z</time>
      </trkpt>
      <trkpt lat="42.096264" lon="2.7627392">
        <ele>149.0</ele>
        <time>2022-03-10T10:37:41Z</time>
      </trkpt>
      <trkpt lat="42.09625" lon="2.7627327">
        <ele>149.0</ele>
        <time>2022-03-10T10:37:42Z</time>
      </trkpt>
      <trkpt lat="42.09623" lon="2.7627318">
        <ele>149.0</ele>
        <time>2022-03-10T10:37:43Z</time>
      </trkpt>
      <trkpt lat="42.096203" lon="2.7627344">
        <ele>149.0</ele>
        <time>2022-03-10T10:37:44Z</time>
      </trkpt>
      <trkpt lat="42.096172" lon="2.7627394">
        <ele>149.0</ele>
        <time>2022-03-10T10:37:45Z</time>
      </trkpt>
      <trkpt lat="42.096146" lon="2.7627444">
        <ele>149.0</ele>
        <time>2022-03-10T10:37:46Z</time>
      </trkpt>
      <trkpt lat="42.096115" lon="2.7627497">
        <ele>149.0</ele>
        <time>2022-03-10T10:37:47Z</time>
      </trkpt>
      <trkpt lat="42.096085" lon="2.762755">
        <ele>149.0</ele>
        <time>2022-03-10T10:37:48Z</time>
      </trkpt>
      <trkpt lat="42.09605" lon="2.7627585">
        <ele>149.0</ele>
        <time>2022-03-10T10:37:49Z</time>
      </trkpt>
      <trkpt lat="42.096016" lon="2.7627614">
        <ele>150.0</ele>
        <time>2022-03-10T10:37:50Z</time>
      </trkpt>
      <trkpt lat="42.095978" lon="2.7627633">
        <ele>150.0</ele>
        <time>2022-03-10T10:37:51Z</time>
      </trkpt>
      <trkpt lat="42.095936" lon="2.7627652">
        <ele>150.0</ele>
        <time>2022-03-10T10:37:52Z</time>
      </trkpt>
      <trkpt lat="42.09589" lon="2.7627702">
        <ele>150.0</ele>
        <time>2022-03-10T10:37:54Z</time>
      </trkpt>
      <trkpt lat="42.095844" lon="2.762779">
        <ele>150.0</ele>
        <time>2022-03-10T10:37:54Z</time>
      </trkpt>
      <trkpt lat="42.0958" lon="2.76279">
        <ele>150.0</ele>
        <time>2022-03-10T10:37:55Z</time>
      </trkpt>
      <trkpt lat="42.095757" lon="2.7628043">
        <ele>150.0</ele>
        <time>2022-03-10T10:37:56Z</time>
      </trkpt>
      <trkpt lat="42.09572" lon="2.7628205">
        <ele>151.0</ele>
        <time>2022-03-10T10:37:57Z</time>
      </trkpt>
      <trkpt lat="42.095684" lon="2.7628393">
        <ele>151.0</ele>
        <time>2022-03-10T10:37:58Z</time>
      </trkpt>
      <trkpt lat="42.095657" lon="2.7628624">
        <ele>151.0</ele>
        <time>2022-03-10T10:37:59Z</time>
      </trkpt>
      <trkpt lat="42.09564" lon="2.762889">
        <ele>151.0</ele>
        <time>2022-03-10T10:38:00Z</time>
      </trkpt>
      <trkpt lat="42.095623" lon="2.7629197">
        <ele>151.0</ele>
        <time>2022-03-10T10:38:01Z</time>
      </trkpt>
      <trkpt lat="42.095615" lon="2.7629542">
        <ele>151.0</ele>
        <time>2022-03-10T10:38:02Z</time>
      </trkpt>
      <trkpt lat="42.09561" lon="2.7629917">
        <ele>151.0</ele>
        <time>2022-03-10T10:38:03Z</time>
      </trkpt>
      <trkpt lat="42.09561" lon="2.7630327">
        <ele>151.0</ele>
        <time>2022-03-10T10:38:04Z</time>
      </trkpt>
      <trkpt lat="42.095615" lon="2.7630765">
        <ele>152.0</ele>
        <time>2022-03-10T10:38:05Z</time>
      </trkpt>
      <trkpt lat="42.095623" lon="2.7631235">
        <ele>152.0</ele>
        <time>2022-03-10T10:38:06Z</time>
      </trkpt>
      <trkpt lat="42.09563" lon="2.7631748">
        <ele>152.0</ele>
        <time>2022-03-10T10:38:07Z</time>
      </trkpt>
      <trkpt lat="42.09563" lon="2.7632294">
        <ele>153.0</ele>
        <time>2022-03-10T10:38:08Z</time>
      </trkpt>
      <trkpt lat="42.09563" lon="2.763287">
        <ele>153.0</ele>
        <time>2022-03-10T10:38:09Z</time>
      </trkpt>
      <trkpt lat="42.095627" lon="2.7633457">
        <ele>153.0</ele>
        <time>2022-03-10T10:38:10Z</time>
      </trkpt>
      <trkpt lat="42.095623" lon="2.763405">
        <ele>153.0</ele>
        <time>2022-03-10T10:38:11Z</time>
      </trkpt>
      <trkpt lat="42.09562" lon="2.7634623">
        <ele>154.0</ele>
        <time>2022-03-10T10:38:12Z</time>
      </trkpt>
      <trkpt lat="42.09561" lon="2.76352">
        <ele>154.0</ele>
        <time>2022-03-10T10:38:13Z</time>
      </trkpt>
      <trkpt lat="42.095604" lon="2.7635772">
        <ele>154.0</ele>
        <time>2022-03-10T10:38:14Z</time>
      </trkpt>
      <trkpt lat="42.095596" lon="2.7636359">
        <ele>154.0</ele>
        <time>2022-03-10T10:38:15Z</time>
      </trkpt>
      <trkpt lat="42.09558" lon="2.7636948">
        <ele>154.0</ele>
        <time>2022-03-10T10:38:16Z</time>
      </trkpt>
      <trkpt lat="42.095566" lon="2.7637517">
        <ele>154.0</ele>
        <time>2022-03-10T10:38:17Z</time>
      </trkpt>
      <trkpt lat="42.09555" lon="2.763809">
        <ele>154.0</ele>
        <time>2022-03-10T10:38:18Z</time>
      </trkpt>
      <trkpt lat="42.095535" lon="2.763866">
        <ele>155.0</ele>
        <time>2022-03-10T10:38:19Z</time>
      </trkpt>
      <trkpt lat="42.095516" lon="2.7639234">
        <ele>155.0</ele>
        <time>2022-03-10T10:38:20Z</time>
      </trkpt>
      <trkpt lat="42.095497" lon="2.7639802">
        <ele>156.0</ele>
        <time>2022-03-10T10:38:21Z</time>
      </trkpt>
      <trkpt lat="42.09548" lon="2.7640343">
        <ele>156.0</ele>
        <time>2022-03-10T10:38:22Z</time>
      </trkpt>
      <trkpt lat="42.095467" lon="2.764085">
        <ele>156.0</ele>
        <time>2022-03-10T10:38:23Z</time>
      </trkpt>
      <trkpt lat="42.095448" lon="2.7641315">
        <ele>157.0</ele>
        <time>2022-03-10T10:38:24Z</time>
      </trkpt>
      <trkpt lat="42.095436" lon="2.7641757">
        <ele>157.0</ele>
        <time>2022-03-10T10:38:25Z</time>
      </trkpt>
      <trkpt lat="42.09542" lon="2.7642155">
        <ele>157.0</ele>
        <time>2022-03-10T10:38:26Z</time>
      </trkpt>
      <trkpt lat="42.095413" lon="2.7642531">
        <ele>158.0</ele>
        <time>2022-03-10T10:38:27Z</time>
      </trkpt>
      <trkpt lat="42.095406" lon="2.7642884">
        <ele>158.0</ele>
        <time>2022-03-10T10:38:28Z</time>
      </trkpt>
      <trkpt lat="42.095398" lon="2.7643225">
        <ele>158.0</ele>
        <time>2022-03-10T10:38:29Z</time>
      </trkpt>
      <trkpt lat="42.09539" lon="2.7643564">
        <ele>158.0</ele>
        <time>2022-03-10T10:38:30Z</time>
      </trkpt>
      <trkpt lat="42.095383" lon="2.7643943">
        <ele>158.0</ele>
        <time>2022-03-10T10:38:31Z</time>
      </trkpt>
      <trkpt lat="42.09537" lon="2.7644343">
        <ele>159.0</ele>
        <time>2022-03-10T10:38:32Z</time>
      </trkpt>
      <trkpt lat="42.095364" lon="2.7644718">
        <ele>159.0</ele>
        <time>2022-03-10T10:38:33Z</time>
      </trkpt>
      <trkpt lat="42.095356" lon="2.7645059">
        <ele>159.0</ele>
        <time>2022-03-10T10:38:34Z</time>
      </trkpt>
      <trkpt lat="42.095345" lon="2.7645373">
        <ele>159.0</ele>
        <time>2022-03-10T10:38:35Z</time>
      </trkpt>
      <trkpt lat="42.095325" lon="2.764563">
        <ele>159.0</ele>
        <time>2022-03-10T10:38:36Z</time>
      </trkpt>
      <trkpt lat="42.09531" lon="2.7645805">
        <ele>159.0</ele>
        <time>2022-03-10T10:38:37Z</time>
      </trkpt>
      <trkpt lat="42.0953" lon="2.7645879">
        <ele>159.0</ele>
        <time>2022-03-10T10:38:38Z</time>
      </trkpt>
      <trkpt lat="42.095284" lon="2.7645879">
        <ele>160.0</ele>
        <time>2022-03-10T10:38:39Z</time>
      </trkpt>
      <trkpt lat="42.09527" lon="2.7645824">
        <ele>160.0</ele>
        <time>2022-03-10T10:38:40Z</time>
      </trkpt>
      <trkpt lat="42.09525" lon="2.7645693">
        <ele>160.0</ele>
        <time>2022-03-10T10:38:41Z</time>
      </trkpt>
      <trkpt lat="42.09523" lon="2.764554">
        <ele>160.0</ele>
        <time>2022-03-10T10:38:42Z</time>
      </trkpt>
      <trkpt lat="42.095215" lon="2.7645345">
        <ele>160.0</ele>
        <time>2022-03-10T10:38:43Z</time>
      </trkpt>
      <trkpt lat="42.0952" lon="2.7645116">
        <ele>161.0</ele>
        <time>2022-03-10T10:38:44Z</time>
      </trkpt>
      <trkpt lat="42.095184" lon="2.7644887">
        <ele>161.0</ele>
        <time>2022-03-10T10:38:45Z</time>
      </trkpt>
      <trkpt lat="42.09516" lon="2.7644658">
        <ele>162.0</ele>
        <time>2022-03-10T10:38:46Z</time>
      </trkpt>
      <trkpt lat="42.09514" lon="2.7644415">
        <ele>162.0</ele>
        <time>2022-03-10T10:38:47Z</time>
      </trkpt>
      <trkpt lat="42.09511" lon="2.7644134">
        <ele>162.0</ele>
        <time>2022-03-10T10:38:48Z</time>
      </trkpt>
      <trkpt lat="42.09508" lon="2.7643824">
        <ele>163.0</ele>
        <time>2022-03-10T10:38:49Z</time>
      </trkpt>
      <trkpt lat="42.095047" lon="2.7643502">
        <ele>163.0</ele>
        <time>2022-03-10T10:38:50Z</time>
      </trkpt>
      <trkpt lat="42.095013" lon="2.7643166">
        <ele>163.0</ele>
        <time>2022-03-10T10:38:51Z</time>
      </trkpt>
      <trkpt lat="42.094975" lon="2.7642803">
        <ele>163.0</ele>
        <time>2022-03-10T10:38:52Z</time>
      </trkpt>
      <trkpt lat="42.09494" lon="2.7642455">
        <ele>163.0</ele>
        <time>2022-03-10T10:38:54Z</time>
      </trkpt>
      <trkpt lat="42.094906" lon="2.7642114">
        <ele>163.0</ele>
        <time>2022-03-10T10:38:54Z</time>
      </trkpt>
      <trkpt lat="42.094875" lon="2.7641823">
        <ele>163.0</ele>
        <time>2022-03-10T10:38:55Z</time>
      </trkpt>
      <trkpt lat="42.09484" lon="2.7641523">
        <ele>162.0</ele>
        <time>2022-03-10T10:38:56Z</time>
      </trkpt>
      <trkpt lat="42.09481" lon="2.764126">
        <ele>162.0</ele>
        <time>2022-03-10T10:38:57Z</time>
      </trkpt>
      <trkpt lat="42.09478" lon="2.764097">
        <ele>162.0</ele>
        <time>2022-03-10T10:38:58Z</time>
      </trkpt>
      <trkpt lat="42.094757" lon="2.7640684">
        <ele>161.0</ele>
        <time>2022-03-10T10:38:59Z</time>
      </trkpt>
      <trkpt lat="42.09473" lon="2.764035">
        <ele>161.0</ele>
        <time>2022-03-10T10:39:00Z</time>
      </trkpt>
      <trkpt lat="42.094707" lon="2.7639985">
        <ele>160.0</ele>
        <time>2022-03-10T10:39:01Z</time>
      </trkpt>
      <trkpt lat="42.094685" lon="2.7639585">
        <ele>160.0</ele>
        <time>2022-03-10T10:39:02Z</time>
      </trkpt>
      <trkpt lat="42.09466" lon="2.7639155">
        <ele>159.0</ele>
        <time>2022-03-10T10:39:03Z</time>
      </trkpt>
      <trkpt lat="42.09463" lon="2.763868">
        <ele>159.0</ele>
        <time>2022-03-10T10:39:04Z</time>
      </trkpt>
      <trkpt lat="42.09461" lon="2.7638266">
        <ele>159.0</ele>
        <time>2022-03-10T10:39:05Z</time>
      </trkpt>
      <trkpt lat="42.09457" lon="2.7637906">
        <ele>158.0</ele>
        <time>2022-03-10T10:39:06Z</time>
      </trkpt>
      <trkpt lat="42.094524" lon="2.763761">
        <ele>158.0</ele>
        <time>2022-03-10T10:39:07Z</time>
      </trkpt>
      <trkpt lat="42.094467" lon="2.7637386">
        <ele>158.0</ele>
        <time>2022-03-10T10:39:08Z</time>
      </trkpt>
      <trkpt lat="42.0944" lon="2.7637217">
        <ele>158.0</ele>
        <time>2022-03-10T10:39:09Z</time>
      </trkpt>
      <trkpt lat="42.09432" lon="2.763708">
        <ele>158.0</ele>
        <time>2022-03-10T10:39:10Z</time>
      </trkpt>
      <trkpt lat="42.094234" lon="2.7636976">
        <ele>158.0</ele>
        <time>2022-03-10T10:39:11Z</time>
      </trkpt>
      <trkpt lat="42.094143" lon="2.763689">
        <ele>158.0</ele>
        <time>2022-03-10T10:39:12Z</time>
      </trkpt>
      <trkpt lat="42.09405" lon="2.7636807">
        <ele>158.0</ele>
        <time>2022-03-10T10:39:13Z</time>
      </trkpt>
      <trkpt lat="42.093956" lon="2.7636716">
        <ele>158.0</ele>
        <time>2022-03-10T10:39:14Z</time>
      </trkpt>
      <trkpt lat="42.093853" lon="2.7636602">
        <ele>158.0</ele>
        <time>2022-03-10T10:39:15Z</time>
      </trkpt>
      <trkpt lat="42.093754" lon="2.7636473">
        <ele>158.0</ele>
        <time>2022-03-10T10:39:16Z</time>
      </trkpt>
      <trkpt lat="42.093647" lon="2.763634">
        <ele>158.0</ele>
        <time>2022-03-10T10:39:17Z</time>
      </trkpt>
      <trkpt lat="42.093548" lon="2.7636201">
        <ele>159.0</ele>
        <time>2022-03-10T10:39:18Z</time>
      </trkpt>
      <trkpt lat="42.093437" lon="2.7636049">
        <ele>159.0</ele>
        <time>2022-03-10T10:39:19Z</time>
      </trkpt>
      <trkpt lat="42.093334" lon="2.763591">
        <ele>159.0</ele>
        <time>2022-03-10T10:39:20Z</time>
      </trkpt>
      <trkpt lat="42.093227" lon="2.7635763">
        <ele>159.0</ele>
        <time>2022-03-10T10:39:21Z</time>
      </trkpt>
      <trkpt lat="42.093124" lon="2.7635615">
        <ele>159.0</ele>
        <time>2022-03-10T10:39:22Z</time>
      </trkpt>
      <trkpt lat="42.09302" lon="2.7635462">
        <ele>159.0</ele>
        <time>2022-03-10T10:39:23Z</time>
      </trkpt>
      <trkpt lat="42.09292" lon="2.763531">
        <ele>159.0</ele>
        <time>2022-03-10T10:39:24Z</time>
      </trkpt>
      <trkpt lat="42.092815" lon="2.7635126">
        <ele>159.0</ele>
        <time>2022-03-10T10:39:25Z</time>
      </trkpt>
      <trkpt lat="42.092716" lon="2.763492">
        <ele>160.0</ele>
        <time>2022-03-10T10:39:26Z</time>
      </trkpt>
      <trkpt lat="42.092617" lon="2.7634676">
        <ele>160.0</ele>
        <time>2022-03-10T10:39:27Z</time>
      </trkpt>
      <trkpt lat="42.09252" lon="2.7634387">
        <ele>160.0</ele>
        <time>2022-03-10T10:39:28Z</time>
      </trkpt>
      <trkpt lat="42.092434" lon="2.763405">
        <ele>160.0</ele>
        <time>2022-03-10T10:39:29Z</time>
      </trkpt>
      <trkpt lat="42.092346" lon="2.7633674">
        <ele>161.0</ele>
        <time>2022-03-10T10:39:30Z</time>
      </trkpt>
      <trkpt lat="42.092266" lon="2.7633235">
        <ele>161.0</ele>
        <time>2022-03-10T10:39:31Z</time>
      </trkpt>
      <trkpt lat="42.092197" lon="2.7632759">
        <ele>162.0</ele>
        <time>2022-03-10T10:39:32Z</time>
      </trkpt>
      <trkpt lat="42.09213" lon="2.7632284">
        <ele>162.0</ele>
        <time>2022-03-10T10:39:33Z</time>
      </trkpt>
      <trkpt lat="42.09207" lon="2.7631881">
        <ele>163.0</ele>
        <time>2022-03-10T10:39:35Z</time>
      </trkpt>
      <trkpt lat="42.092014" lon="2.7631598">
        <ele>163.0</ele>
        <time>2022-03-10T10:39:36Z</time>
      </trkpt>
      <trkpt lat="42.091953" lon="2.7631433">
        <ele>164.0</ele>
        <time>2022-03-10T10:39:37Z</time>
      </trkpt>
      <trkpt lat="42.091892" lon="2.7631378">
        <ele>164.0</ele>
        <time>2022-03-10T10:39:38Z</time>
      </trkpt>
      <trkpt lat="42.09184" lon="2.7631419">
        <ele>165.0</ele>
        <time>2022-03-10T10:39:39Z</time>
      </trkpt>
      <trkpt lat="42.091774" lon="2.7631574">
        <ele>166.0</ele>
        <time>2022-03-10T10:39:40Z</time>
      </trkpt>
      <trkpt lat="42.091705" lon="2.7631783">
        <ele>167.0</ele>
        <time>2022-03-10T10:39:41Z</time>
      </trkpt>
      <trkpt lat="42.09164" lon="2.7632012">
        <ele>168.0</ele>
        <time>2022-03-10T10:39:42Z</time>
      </trkpt>
      <trkpt lat="42.091576" lon="2.763227">
        <ele>169.0</ele>
        <time>2022-03-10T10:39:43Z</time>
      </trkpt>
      <trkpt lat="42.09151" lon="2.7632563">
        <ele>169.0</ele>
        <time>2022-03-10T10:39:44Z</time>
      </trkpt>
      <trkpt lat="42.09145" lon="2.7632837">
        <ele>170.0</ele>
        <time>2022-03-10T10:39:45Z</time>
      </trkpt>
      <trkpt lat="42.091396" lon="2.7633047">
        <ele>171.0</ele>
        <time>2022-03-10T10:39:46Z</time>
      </trkpt>
      <trkpt lat="42.09135" lon="2.7633216">
        <ele>171.0</ele>
        <time>2022-03-10T10:39:47Z</time>
      </trkpt>
      <trkpt lat="42.09131" lon="2.7633405">
        <ele>171.0</ele>
        <time>2022-03-10T10:39:48Z</time>
      </trkpt>
      <trkpt lat="42.09127" lon="2.7633665">
        <ele>172.0</ele>
        <time>2022-03-10T10:39:49Z</time>
      </trkpt>
      <trkpt lat="42.091232" lon="2.7633986">
        <ele>173.0</ele>
        <time>2022-03-10T10:39:50Z</time>
      </trkpt>
      <trkpt lat="42.091194" lon="2.7634423">
        <ele>173.0</ele>
        <time>2022-03-10T10:39:51Z</time>
      </trkpt>
      <trkpt lat="42.091156" lon="2.7634935">
        <ele>174.0</ele>
        <time>2022-03-10T10:39:51Z</time>
      </trkpt>
      <trkpt lat="42.09112" lon="2.7635515">
        <ele>174.0</ele>
        <time>2022-03-10T10:39:52Z</time>
      </trkpt>
      <trkpt lat="42.091084" lon="2.7636156">
        <ele>174.0</ele>
        <time>2022-03-10T10:39:54Z</time>
      </trkpt>
      <trkpt lat="42.09104" lon="2.7636929">
        <ele>174.0</ele>
        <time>2022-03-10T10:39:54Z</time>
      </trkpt>
      <trkpt lat="42.090996" lon="2.7637784">
        <ele>174.0</ele>
        <time>2022-03-10T10:39:55Z</time>
      </trkpt>
      <trkpt lat="42.090946" lon="2.763868">
        <ele>174.0</ele>
        <time>2022-03-10T10:39:56Z</time>
      </trkpt>
      <trkpt lat="42.0909" lon="2.7639594">
        <ele>174.0</ele>
        <time>2022-03-10T10:39:57Z</time>
      </trkpt>
      <trkpt lat="42.090855" lon="2.7640514">
        <ele>174.0</ele>
        <time>2022-03-10T10:39:58Z</time>
      </trkpt>
      <trkpt lat="42.090816" lon="2.7641437">
        <ele>174.0</ele>
        <time>2022-03-10T10:39:59Z</time>
      </trkpt>
      <trkpt lat="42.090782" lon="2.7642388">
        <ele>173.0</ele>
        <time>2022-03-10T10:40:00Z</time>
      </trkpt>
      <trkpt lat="42.09075" lon="2.764338">
        <ele>173.0</ele>
        <time>2022-03-10T10:40:01Z</time>
      </trkpt>
      <trkpt lat="42.090725" lon="2.7644405">
        <ele>172.0</ele>
        <time>2022-03-10T10:40:02Z</time>
      </trkpt>
      <trkpt lat="42.090702" lon="2.7645469">
        <ele>172.0</ele>
        <time>2022-03-10T10:40:03Z</time>
      </trkpt>
      <trkpt lat="42.09068" lon="2.7646542">
        <ele>171.0</ele>
        <time>2022-03-10T10:40:04Z</time>
      </trkpt>
      <trkpt lat="42.09065" lon="2.7647593">
        <ele>170.0</ele>
        <time>2022-03-10T10:40:05Z</time>
      </trkpt>
      <trkpt lat="42.09062" lon="2.7648609">
        <ele>169.0</ele>
        <time>2022-03-10T10:40:06Z</time>
      </trkpt>
      <trkpt lat="42.09058" lon="2.7649553">
        <ele>168.0</ele>
        <time>2022-03-10T10:40:07Z</time>
      </trkpt>
      <trkpt lat="42.090546" lon="2.76504">
        <ele>167.0</ele>
        <time>2022-03-10T10:40:08Z</time>
      </trkpt>
      <trkpt lat="42.090515" lon="2.7651095">
        <ele>167.0</ele>
        <time>2022-03-10T10:40:09Z</time>
      </trkpt>
      <trkpt lat="42.090485" lon="2.7651613">
        <ele>166.0</ele>
        <time>2022-03-10T10:40:10Z</time>
      </trkpt>
      <trkpt lat="42.090466" lon="2.7651987">
        <ele>165.0</ele>
        <time>2022-03-10T10:40:11Z</time>
      </trkpt>
      <trkpt lat="42.090454" lon="2.7652247">
        <ele>165.0</ele>
        <time>2022-03-10T10:40:12Z</time>
      </trkpt>
      <trkpt lat="42.090443" lon="2.7652426">
        <ele>164.0</ele>
        <time>2022-03-10T10:40:13Z</time>
      </trkpt>
      <trkpt lat="42.090424" lon="2.7652783">
        <ele>164.0</ele>
        <time>2022-03-10T10:40:18Z</time>
      </trkpt>
      <trkpt lat="42.090424" lon="2.7652779">
        <ele>164.0</ele>
        <time>2022-03-10T10:40:19Z</time>
      </trkpt>
      <trkpt lat="42.090427" lon="2.7652733">
        <ele>164.0</ele>
        <time>2022-03-10T10:40:21Z</time>
      </trkpt>
      <trkpt lat="42.090435" lon="2.76524">
        <ele>184.0</ele>
        <time>2022-03-10T10:41:19Z</time>
      </trkpt>
      <trkpt lat="42.090435" lon="2.765237">
        <ele>184.0</ele>
        <time>2022-03-10T10:41:20Z</time>
      </trkpt>
      <trkpt lat="42.09043" lon="2.765234">
        <ele>184.0</ele>
        <time>2022-03-10T10:41:22Z</time>
      </trkpt>
      <trkpt lat="42.090424" lon="2.7652335">
        <ele>184.0</ele>
        <time>2022-03-10T10:41:22Z</time>
      </trkpt>
      <trkpt lat="42.090405" lon="2.7652314">
        <ele>184.0</ele>
        <time>2022-03-10T10:41:23Z</time>
      </trkpt>
      <trkpt lat="42.09038" lon="2.765224">
        <ele>184.0</ele>
        <time>2022-03-10T10:41:24Z</time>
      </trkpt>
      <trkpt lat="42.09036" lon="2.7652097">
        <ele>184.0</ele>
        <time>2022-03-10T10:41:25Z</time>
      </trkpt>
      <trkpt lat="42.090332" lon="2.7651892">
        <ele>184.0</ele>
        <time>2022-03-10T10:41:26Z</time>
      </trkpt>
      <trkpt lat="42.0903" lon="2.7651622">
        <ele>184.0</ele>
        <time>2022-03-10T10:41:27Z</time>
      </trkpt>
      <trkpt lat="42.090267" lon="2.7651343">
        <ele>184.0</ele>
        <time>2022-03-10T10:41:28Z</time>
      </trkpt>
      <trkpt lat="42.090237" lon="2.7651079">
        <ele>184.0</ele>
        <time>2022-03-10T10:41:29Z</time>
      </trkpt>
      <trkpt lat="42.090202" lon="2.7650807">
        <ele>184.0</ele>
        <time>2022-03-10T10:41:30Z</time>
      </trkpt>
      <trkpt lat="42.090176" lon="2.7650611">
        <ele>184.0</ele>
        <time>2022-03-10T10:41:31Z</time>
      </trkpt>
      <trkpt lat="42.09015" lon="2.7650506">
        <ele>184.0</ele>
        <time>2022-03-10T10:41:32Z</time>
      </trkpt>
      <trkpt lat="42.090134" lon="2.765048">
        <ele>183.0</ele>
        <time>2022-03-10T10:41:33Z</time>
      </trkpt>
      <trkpt lat="42.090122" lon="2.765051">
        <ele>183.0</ele>
        <time>2022-03-10T10:41:34Z</time>
      </trkpt>
      <trkpt lat="42.09012" lon="2.765059">
        <ele>183.0</ele>
        <time>2022-03-10T10:41:35Z</time>
      </trkpt>
      <trkpt lat="42.090122" lon="2.765069">
        <ele>183.0</ele>
        <time>2022-03-10T10:41:36Z</time>
      </trkpt>
      <trkpt lat="42.09013" lon="2.7650797">
        <ele>183.0</ele>
        <time>2022-03-10T10:41:37Z</time>
      </trkpt>
      <trkpt lat="42.09014" lon="2.765091">
        <ele>183.0</ele>
        <time>2022-03-10T10:41:38Z</time>
      </trkpt>
      <trkpt lat="42.09015" lon="2.7651017">
        <ele>183.0</ele>
        <time>2022-03-10T10:41:39Z</time>
      </trkpt>
      <trkpt lat="42.090157" lon="2.7651117">
        <ele>182.0</ele>
        <time>2022-03-10T10:41:41Z</time>
      </trkpt>
      <trkpt lat="42.090164" lon="2.765122">
        <ele>182.0</ele>
        <time>2022-03-10T10:41:41Z</time>
      </trkpt>
      <trkpt lat="42.09017" lon="2.7651324">
        <ele>182.0</ele>
        <time>2022-03-10T10:41:42Z</time>
      </trkpt>
      <trkpt lat="42.090176" lon="2.7651417">
        <ele>182.0</ele>
        <time>2022-03-10T10:41:43Z</time>
      </trkpt>
      <trkpt lat="42.09018" lon="2.7651489">
        <ele>182.0</ele>
        <time>2022-03-10T10:41:44Z</time>
      </trkpt>
      <trkpt lat="42.090195" lon="2.7651522">
        <ele>182.0</ele>
        <time>2022-03-10T10:41:45Z</time>
      </trkpt>
      <trkpt lat="42.09021" lon="2.765152">
        <ele>182.0</ele>
        <time>2022-03-10T10:41:46Z</time>
      </trkpt>
      <trkpt lat="42.090237" lon="2.7651482">
        <ele>182.0</ele>
        <time>2022-03-10T10:41:47Z</time>
      </trkpt>
      <trkpt lat="42.090263" lon="2.7651381">
        <ele>182.0</ele>
        <time>2022-03-10T10:41:48Z</time>
      </trkpt>
      <trkpt lat="42.090294" lon="2.7651198">
        <ele>182.0</ele>
        <time>2022-03-10T10:41:49Z</time>
      </trkpt>
      <trkpt lat="42.09033" lon="2.7650874">
        <ele>183.0</ele>
        <time>2022-03-10T10:41:50Z</time>
      </trkpt>
      <trkpt lat="42.09036" lon="2.7650397">
        <ele>183.0</ele>
        <time>2022-03-10T10:41:51Z</time>
      </trkpt>
      <trkpt lat="42.090397" lon="2.7649748">
        <ele>184.0</ele>
        <time>2022-03-10T10:41:52Z</time>
      </trkpt>
      <trkpt lat="42.09044" lon="2.7648945">
        <ele>185.0</ele>
        <time>2022-03-10T10:41:53Z</time>
      </trkpt>
      <trkpt lat="42.09047" lon="2.764802">
        <ele>186.0</ele>
        <time>2022-03-10T10:41:54Z</time>
      </trkpt>
      <trkpt lat="42.0905" lon="2.7647052">
        <ele>187.0</ele>
        <time>2022-03-10T10:41:55Z</time>
      </trkpt>
      <trkpt lat="42.090527" lon="2.7646093">
        <ele>187.0</ele>
        <time>2022-03-10T10:41:56Z</time>
      </trkpt>
      <trkpt lat="42.09055" lon="2.764519">
        <ele>188.0</ele>
        <time>2022-03-10T10:41:57Z</time>
      </trkpt>
      <trkpt lat="42.09057" lon="2.7644374">
        <ele>188.0</ele>
        <time>2022-03-10T10:41:59Z</time>
      </trkpt>
      <trkpt lat="42.090584" lon="2.7643654">
        <ele>188.0</ele>
        <time>2022-03-10T10:41:59Z</time>
      </trkpt>
      <trkpt lat="42.09059" lon="2.7643015">
        <ele>189.0</ele>
        <time>2022-03-10T10:42:00Z</time>
      </trkpt>
      <trkpt lat="42.0906" lon="2.764245">
        <ele>190.0</ele>
        <time>2022-03-10T10:42:01Z</time>
      </trkpt>
      <trkpt lat="42.09059" lon="2.7641964">
        <ele>191.0</ele>
        <time>2022-03-10T10:42:02Z</time>
      </trkpt>
      <trkpt lat="42.090576" lon="2.764154">
        <ele>191.0</ele>
        <time>2022-03-10T10:42:03Z</time>
      </trkpt>
      <trkpt lat="42.090553" lon="2.7641187">
        <ele>192.0</ele>
        <time>2022-03-10T10:42:04Z</time>
      </trkpt>
      <trkpt lat="42.090515" lon="2.764088">
        <ele>193.0</ele>
        <time>2022-03-10T10:42:05Z</time>
      </trkpt>
      <trkpt lat="42.09047" lon="2.7640626">
        <ele>194.0</ele>
        <time>2022-03-10T10:42:06Z</time>
      </trkpt>
      <trkpt lat="42.09041" lon="2.764042">
        <ele>196.0</ele>
        <time>2022-03-10T10:42:07Z</time>
      </trkpt>
      <trkpt lat="42.090343" lon="2.764024">
        <ele>197.0</ele>
        <time>2022-03-10T10:42:08Z</time>
      </trkpt>
      <trkpt lat="42.090275" lon="2.7640092">
        <ele>198.0</ele>
        <time>2022-03-10T10:42:09Z</time>
      </trkpt>
      <trkpt lat="42.090202" lon="2.7639935">
        <ele>199.0</ele>
        <time>2022-03-10T10:42:10Z</time>
      </trkpt>
      <trkpt lat="42.090134" lon="2.7639782">
        <ele>199.0</ele>
        <time>2022-03-10T10:42:11Z</time>
      </trkpt>
      <trkpt lat="42.090057" lon="2.763959">
        <ele>200.0</ele>
        <time>2022-03-10T10:42:12Z</time>
      </trkpt>
      <trkpt lat="42.089993" lon="2.7639356">
        <ele>201.0</ele>
        <time>2022-03-10T10:42:13Z</time>
      </trkpt>
      <trkpt lat="42.08992" lon="2.7639005">
        <ele>202.0</ele>
        <time>2022-03-10T10:42:14Z</time>
      </trkpt>
      <trkpt lat="42.08985" lon="2.7638528">
        <ele>203.0</ele>
        <time>2022-03-10T10:42:15Z</time>
      </trkpt>
      <trkpt lat="42.089783" lon="2.7637978">
        <ele>205.0</ele>
        <time>2022-03-10T10:42:16Z</time>
      </trkpt>
      <trkpt lat="42.08971" lon="2.76374">
        <ele>206.0</ele>
        <time>2022-03-10T10:42:17Z</time>
      </trkpt>
      <trkpt lat="42.089645" lon="2.7636871">
        <ele>207.0</ele>
        <time>2022-03-10T10:42:18Z</time>
      </trkpt>
      <trkpt lat="42.08957" lon="2.7636285">
        <ele>208.0</ele>
        <time>2022-03-10T10:42:19Z</time>
      </trkpt>
      <trkpt lat="42.089497" lon="2.7635639">
        <ele>209.0</ele>
        <time>2022-03-10T10:42:20Z</time>
      </trkpt>
      <trkpt lat="42.089424" lon="2.7634928">
        <ele>211.0</ele>
        <time>2022-03-10T10:42:21Z</time>
      </trkpt>
      <trkpt lat="42.089355" lon="2.763417">
        <ele>212.0</ele>
        <time>2022-03-10T10:42:22Z</time>
      </trkpt>
      <trkpt lat="42.089287" lon="2.7633407">
        <ele>213.0</ele>
        <time>2022-03-10T10:42:23Z</time>
      </trkpt>
      <trkpt lat="42.089222" lon="2.7632663">
        <ele>214.0</ele>
        <time>2022-03-10T10:42:24Z</time>
      </trkpt>
      <trkpt lat="42.089157" lon="2.7631927">
        <ele>215.0</ele>
        <time>2022-03-10T10:42:25Z</time>
      </trkpt>
      <trkpt lat="42.089092" lon="2.7631218">
        <ele>216.0</ele>
        <time>2022-03-10T10:42:26Z</time>
      </trkpt>
      <trkpt lat="42.08903" lon="2.7630563">
        <ele>217.0</ele>
        <time>2022-03-10T10:42:27Z</time>
      </trkpt>
      <trkpt lat="42.088974" lon="2.7629952">
        <ele>218.0</ele>
        <time>2022-03-10T10:42:28Z</time>
      </trkpt>
      <trkpt lat="42.088913" lon="2.7629228">
        <ele>219.0</ele>
        <time>2022-03-10T10:42:29Z</time>
      </trkpt>
      <trkpt lat="42.08885" lon="2.7628508">
        <ele>220.0</ele>
        <time>2022-03-10T10:42:30Z</time>
      </trkpt>
      <trkpt lat="42.088787" lon="2.7627776">
        <ele>221.0</ele>
        <time>2022-03-10T10:42:31Z</time>
      </trkpt>
      <trkpt lat="42.08873" lon="2.7626903">
        <ele>222.0</ele>
        <time>2022-03-10T10:42:32Z</time>
      </trkpt>
      <trkpt lat="42.088673" lon="2.7626047">
        <ele>224.0</ele>
        <time>2022-03-10T10:42:33Z</time>
      </trkpt>
      <trkpt lat="42.088615" lon="2.7625127">
        <ele>225.0</ele>
        <time>2022-03-10T10:42:34Z</time>
      </trkpt>
      <trkpt lat="42.088554" lon="2.762419">
        <ele>227.0</ele>
        <time>2022-03-10T10:42:35Z</time>
      </trkpt>
      <trkpt lat="42.088493" lon="2.7623303">
        <ele>228.0</ele>
        <time>2022-03-10T10:42:36Z</time>
      </trkpt>
      <trkpt lat="42.088425" lon="2.7622483">
        <ele>230.0</ele>
        <time>2022-03-10T10:42:37Z</time>
      </trkpt>
      <trkpt lat="42.08836" lon="2.7621715">
        <ele>231.0</ele>
        <time>2022-03-10T10:42:38Z</time>
      </trkpt>
      <trkpt lat="42.08829" lon="2.7620986">
        <ele>232.0</ele>
        <time>2022-03-10T10:42:39Z</time>
      </trkpt>
      <trkpt lat="42.088226" lon="2.7620254">
        <ele>234.0</ele>
        <time>2022-03-10T10:42:40Z</time>
      </trkpt>
      <trkpt lat="42.08816" lon="2.761952">
        <ele>235.0</ele>
        <time>2022-03-10T10:42:41Z</time>
      </trkpt>
      <trkpt lat="42.088097" lon="2.7618797">
        <ele>236.0</ele>
        <time>2022-03-10T10:42:42Z</time>
      </trkpt>
      <trkpt lat="42.088028" lon="2.7618196">
        <ele>237.0</ele>
        <time>2022-03-10T10:42:43Z</time>
      </trkpt>
      <trkpt lat="42.087955" lon="2.761768">
        <ele>237.0</ele>
        <time>2022-03-10T10:42:44Z</time>
      </trkpt>
      <trkpt lat="42.08789" lon="2.76172">
        <ele>238.0</ele>
        <time>2022-03-10T10:42:45Z</time>
      </trkpt>
      <trkpt lat="42.087826" lon="2.7616608">
        <ele>239.0</ele>
        <time>2022-03-10T10:42:46Z</time>
      </trkpt>
      <trkpt lat="42.087772" lon="2.7615926">
        <ele>239.0</ele>
        <time>2022-03-10T10:42:47Z</time>
      </trkpt>
      <trkpt lat="42.08773" lon="2.7615223">
        <ele>240.0</ele>
        <time>2022-03-10T10:42:48Z</time>
      </trkpt>
      <trkpt lat="42.08768" lon="2.761455">
        <ele>241.0</ele>
        <time>2022-03-10T10:42:49Z</time>
      </trkpt>
      <trkpt lat="42.087627" lon="2.7613866">
        <ele>242.0</ele>
        <time>2022-03-10T10:42:50Z</time>
      </trkpt>
      <trkpt lat="42.087563" lon="2.761319">
        <ele>244.0</ele>
        <time>2022-03-10T10:42:51Z</time>
      </trkpt>
      <trkpt lat="42.08749" lon="2.7612538">
        <ele>245.0</ele>
        <time>2022-03-10T10:42:52Z</time>
      </trkpt>
      <trkpt lat="42.087418" lon="2.7611914">
        <ele>246.0</ele>
        <time>2022-03-10T10:42:53Z</time>
      </trkpt>
      <trkpt lat="42.087345" lon="2.7611341">
        <ele>248.0</ele>
        <time>2022-03-10T10:42:54Z</time>
      </trkpt>
      <trkpt lat="42.087276" lon="2.7610836">
        <ele>249.0</ele>
        <time>2022-03-10T10:42:55Z</time>
      </trkpt>
      <trkpt lat="42.087215" lon="2.76104">
        <ele>250.0</ele>
        <time>2022-03-10T10:42:56Z</time>
      </trkpt>
      <trkpt lat="42.087162" lon="2.7610006">
        <ele>251.0</ele>
        <time>2022-03-10T10:42:57Z</time>
      </trkpt>
      <trkpt lat="42.087112" lon="2.760965">
        <ele>251.0</ele>
        <time>2022-03-10T10:42:59Z</time>
      </trkpt>
      <trkpt lat="42.087074" lon="2.7609305">
        <ele>252.0</ele>
        <time>2022-03-10T10:42:59Z</time>
      </trkpt>
      <trkpt lat="42.087036" lon="2.760892">
        <ele>252.0</ele>
        <time>2022-03-10T10:43:00Z</time>
      </trkpt>
      <trkpt lat="42.087006" lon="2.760848">
        <ele>252.0</ele>
        <time>2022-03-10T10:43:01Z</time>
      </trkpt>
      <trkpt lat="42.08697" lon="2.7607968">
        <ele>253.0</ele>
        <time>2022-03-10T10:43:02Z</time>
      </trkpt>
      <trkpt lat="42.086933" lon="2.7607381">
        <ele>254.0</ele>
        <time>2022-03-10T10:43:03Z</time>
      </trkpt>
      <trkpt lat="42.086895" lon="2.760674">
        <ele>254.0</ele>
        <time>2022-03-10T10:43:04Z</time>
      </trkpt>
      <trkpt lat="42.08686" lon="2.760604">
        <ele>254.0</ele>
        <time>2022-03-10T10:43:05Z</time>
      </trkpt>
      <trkpt lat="42.086826" lon="2.7605252">
        <ele>255.0</ele>
        <time>2022-03-10T10:43:06Z</time>
      </trkpt>
      <trkpt lat="42.0868" lon="2.760436">
        <ele>256.0</ele>
        <time>2022-03-10T10:43:07Z</time>
      </trkpt>
      <trkpt lat="42.08678" lon="2.7603457">
        <ele>257.0</ele>
        <time>2022-03-10T10:43:08Z</time>
      </trkpt>
      <trkpt lat="42.086765" lon="2.760246">
        <ele>258.0</ele>
        <time>2022-03-10T10:43:09Z</time>
      </trkpt>
      <trkpt lat="42.086754" lon="2.7601373">
        <ele>258.0</ele>
        <time>2022-03-10T10:43:10Z</time>
      </trkpt>
      <trkpt lat="42.086746" lon="2.7600205">
        <ele>259.0</ele>
        <time>2022-03-10T10:43:11Z</time>
      </trkpt>
      <trkpt lat="42.08674" lon="2.7598982">
        <ele>260.0</ele>
        <time>2022-03-10T10:43:12Z</time>
      </trkpt>
      <trkpt lat="42.086735" lon="2.7597616">
        <ele>261.0</ele>
        <time>2022-03-10T10:43:13Z</time>
      </trkpt>
      <trkpt lat="42.086723" lon="2.7596219">
        <ele>262.0</ele>
        <time>2022-03-10T10:43:14Z</time>
      </trkpt>
      <trkpt lat="42.086708" lon="2.759478">
        <ele>263.0</ele>
        <time>2022-03-10T10:43:15Z</time>
      </trkpt>
      <trkpt lat="42.086693" lon="2.7593422">
        <ele>263.0</ele>
        <time>2022-03-10T10:43:16Z</time>
      </trkpt>
      <trkpt lat="42.08667" lon="2.7592099">
        <ele>264.0</ele>
        <time>2022-03-10T10:43:17Z</time>
      </trkpt>
      <trkpt lat="42.086655" lon="2.759076">
        <ele>264.0</ele>
        <time>2022-03-10T10:43:18Z</time>
      </trkpt>
      <trkpt lat="42.08664" lon="2.7589538">
        <ele>265.0</ele>
        <time>2022-03-10T10:43:19Z</time>
      </trkpt>
      <trkpt lat="42.08663" lon="2.758842">
        <ele>265.0</ele>
        <time>2022-03-10T10:43:20Z</time>
      </trkpt>
      <trkpt lat="42.086636" lon="2.75874">
        <ele>266.0</ele>
        <time>2022-03-10T10:43:21Z</time>
      </trkpt>
      <trkpt lat="42.086643" lon="2.7586532">
        <ele>267.0</ele>
        <time>2022-03-10T10:43:22Z</time>
      </trkpt>
      <trkpt lat="42.086662" lon="2.7585642">
        <ele>267.0</ele>
        <time>2022-03-10T10:43:23Z</time>
      </trkpt>
      <trkpt lat="42.086693" lon="2.758481">
        <ele>268.0</ele>
        <time>2022-03-10T10:43:24Z</time>
      </trkpt>
      <trkpt lat="42.086727" lon="2.7584007">
        <ele>269.0</ele>
        <time>2022-03-10T10:43:25Z</time>
      </trkpt>
      <trkpt lat="42.086758" lon="2.7583213">
        <ele>270.0</ele>
        <time>2022-03-10T10:43:26Z</time>
      </trkpt>
      <trkpt lat="42.086784" lon="2.758255">
        <ele>270.0</ele>
        <time>2022-03-10T10:43:27Z</time>
      </trkpt>
      <trkpt lat="42.08681" lon="2.7582004">
        <ele>271.0</ele>
        <time>2022-03-10T10:43:28Z</time>
      </trkpt>
      <trkpt lat="42.086834" lon="2.7581532">
        <ele>271.0</ele>
        <time>2022-03-10T10:43:29Z</time>
      </trkpt>
      <trkpt lat="42.086857" lon="2.7581172">
        <ele>271.0</ele>
        <time>2022-03-10T10:43:30Z</time>
      </trkpt>
      <trkpt lat="42.086872" lon="2.7580893">
        <ele>272.0</ele>
        <time>2022-03-10T10:43:31Z</time>
      </trkpt>
      <trkpt lat="42.086887" lon="2.7580688">
        <ele>272.0</ele>
        <time>2022-03-10T10:43:32Z</time>
      </trkpt>
      <trkpt lat="42.086903" lon="2.758054">
        <ele>272.0</ele>
        <time>2022-03-10T10:43:33Z</time>
      </trkpt>
      <trkpt lat="42.086918" lon="2.7580419">
        <ele>272.0</ele>
        <time>2022-03-10T10:43:34Z</time>
      </trkpt>
      <trkpt lat="42.08693" lon="2.758036">
        <ele>273.0</ele>
        <time>2022-03-10T10:43:35Z</time>
      </trkpt>
      <trkpt lat="42.08694" lon="2.7580369">
        <ele>273.0</ele>
        <time>2022-03-10T10:43:36Z</time>
      </trkpt>
      <trkpt lat="42.086952" lon="2.7580419">
        <ele>273.0</ele>
        <time>2022-03-10T10:43:37Z</time>
      </trkpt>
      <trkpt lat="42.086964" lon="2.7580495">
        <ele>273.0</ele>
        <time>2022-03-10T10:43:38Z</time>
      </trkpt>
      <trkpt lat="42.086975" lon="2.7580626">
        <ele>273.0</ele>
        <time>2022-03-10T10:43:39Z</time>
      </trkpt>
      <trkpt lat="42.086983" lon="2.7580793">
        <ele>274.0</ele>
        <time>2022-03-10T10:43:40Z</time>
      </trkpt>
      <trkpt lat="42.08699" lon="2.7580981">
        <ele>274.0</ele>
        <time>2022-03-10T10:43:41Z</time>
      </trkpt>
      <trkpt lat="42.086998" lon="2.7581177">
        <ele>274.0</ele>
        <time>2022-03-10T10:43:42Z</time>
      </trkpt>
      <trkpt lat="42.086998" lon="2.758135">
        <ele>274.0</ele>
        <time>2022-03-10T10:43:43Z</time>
      </trkpt>
      <trkpt lat="42.086998" lon="2.7581494">
        <ele>274.0</ele>
        <time>2022-03-10T10:43:44Z</time>
      </trkpt>
      <trkpt lat="42.08701" lon="2.7581723">
        <ele>274.0</ele>
        <time>2022-03-10T10:43:46Z</time>
      </trkpt>
      <trkpt lat="42.08701" lon="2.7581692">
        <ele>274.0</ele>
        <time>2022-03-10T10:43:47Z</time>
      </trkpt>
      <trkpt lat="42.08701" lon="2.758164">
        <ele>274.0</ele>
        <time>2022-03-10T10:43:48Z</time>
      </trkpt>
      <trkpt lat="42.08701" lon="2.7581565">
        <ele>274.0</ele>
        <time>2022-03-10T10:43:49Z</time>
      </trkpt>
      <trkpt lat="42.087006" lon="2.7581499">
        <ele>274.0</ele>
        <time>2022-03-10T10:43:51Z</time>
      </trkpt>
      <trkpt lat="42.087006" lon="2.7581437">
        <ele>274.0</ele>
        <time>2022-03-10T10:43:52Z</time>
      </trkpt>
    </trkseg>
  </trk>
</gpx>
